Don't ask what we can do for you, but what you can do for us!

PRE DATA

Datetime Category Release
2022-03-27 00:00:10 MP3 Nicky_Elisabeth-The_Boom_Room_403-SAT-26-03-2022-1KING
2022-03-27 00:00:11 MP3 Disconnection_feat_Sabrynaah_Pope-Music-Vinyl-2001-BPM_HOUSE
2022-03-27 00:00:48 MP3 Monster_Magnet-Space_Lord_(CDS)-1998-TFS
2022-03-27 00:01:20 MP3 Souldoubt-Midtown-EP-2001-BPM_HOUSE
2022-03-27 00:01:52 MP3 VA-Promo_Pop_CD-2001-BPM
2022-03-27 00:02:26 Club.Mouse.ep.1-30_dupe
2022-03-27 00:02:46 APPS UDEMY.CSS.and.JavaScript.Certification.Course.for.Beginners.BOOKWARE-iLEARN
2022-03-27 00:02:59 X264 The.Ward.2010.MULTi.COMPLETE.BLURAY-MONUMENT
2022-03-27 00:03:31 TV-X264 Almost.Paradise.S01E03.Reef.Eel.Soup.For.the.Soul.German.DD51.Dubbed.DL.1080p.AmazonHD.AVC-TVS
2022-03-27 00:04:05 MP3 VA-3P_Revolution-DE-2000-uC_INT
2022-03-27 00:04:33 TV-HD Pachinko.S01E03.DV.2160p.WEB.h265-KOGi
2022-03-27 00:05:08 TV-X264 Spider-Man.Unlimited.S01E09.FRENCH.WEB.H264-D4KiD
2022-03-27 00:05:40 TV-X264 Halo.S01E01.Kontakt.German.DD51.Dubbed.DL.1080p.AmazonHD.AVC-TVS
2022-03-27 00:06:11 X264 Froschmaenner.1951.German.AC3D.DL.1080p.WEB-Rip.x264-Oergel
2022-03-27 00:06:33 GAMES The.Tribe.Game-DARKSiDERS
2022-03-27 00:11:06 TV-X264 Put.a.Ring.On.It.S03E01.1080p.HDTV.x264-CRiMSON
2022-03-27 00:12:24 BLURAY-FULL The.Godfather.Coda.The.Death.of.Michael.Corleone.1990.REMASTERED.MULTi.COMPLETE.BLURAY-FULLSiZE
2022-03-27 00:15:55 TV-HD-FR Power.Book.IV.Force.S01E08.INTERNAL.FRENCH.720p.WEB.H264-SILVIODANTE
2022-03-27 00:16:05 TV-X264 Put.a.Ring.On.It.S03E01.720p.HDTV.x264-CRiMSON
2022-03-27 00:16:16 TV-HD-FR Shining.Vale.S01E05.INTERNAL.FRENCH.720p.WEB.H264-SILVIODANTE
2022-03-27 00:17:22 MP3 James_Hype-1LIVE_DJ_Session-SAT-03-26-2022-PTC
2022-03-27 00:17:26 TV-SD Put.a.Ring.On.It.S03E01.HDTV.x264-CRiMSON
2022-03-27 00:18:15 EBOOK UDEMY.Angular.10.Course.Build.Angular.Apps.Step.by.Step.BOOKWARE-iLEARN
2022-03-27 00:24:44 MP3 Twocolors-Sputnik_Club-SAT-03-26-2022-PTC
2022-03-27 00:25:07 X264-HD-SP Aguas.Profundas.2022.SPANiSH.1080p.WEB.H264-XPERT_HD
2022-03-27 00:27:33 X264-HD-SP Aguas.Profundas.2022.SPANiSH.720p.WEB.H264-XPERT_HD
2022-03-27 00:30:00 X264-HD-SP Ana.Plus.2022.SPANiSH.1080p.web.h264-XPERT_HD
2022-03-27 00:32:04 TV-X264 Formula1.2022.Saudi.Arabian.Grand.Prix.Qualifying.1080p.AHDTV.x264-DARKSPORT
2022-03-27 00:35:15 X264-HD-SP Venganza.A.Golpes.2022.SPANiSH.1080p.web.x264-XPERT_HD
2022-03-27 00:36:11 MP3 Cesaria_Evora-Mae_Carinhosa-CD-PT-2013-NOiR
2022-03-27 00:37:50 MP3 Cesaria_Evora-Mae_Carinhosa-Bonus-DVD-PT-2013-NOiR
2022-03-27 00:38:01 X264-SD-DE Romeo.must.die.German.DL.2000.AC3.BDRip.x264.iNTERNAL-VideoStar
2022-03-27 00:39:01 TV-HD Romeo.must.die.2000.German.DL.1080p.BluRay.x264.iNTERNAL-VideoStar
2022-03-27 00:39:22 TV-X264 Devoured.S01E05.1080p.WEB.h264-BAE
2022-03-27 00:39:24 TV-X264 Devoured.S01E05.720p.WEBRip.x264-BAE
2022-03-27 00:39:59 FLAC Cesaria_Evora-Mae_Carinhosa-(88765478202)-PT-CD-FLAC-2013-BITOCUL
2022-03-27 00:40:27 FLAC Cesaria_Evora-Mae_Carinhosa-(88765478202)-PT-BONUS-DVD-FLAC-2013-BITOCUL
2022-03-27 00:41:24 TV-HD NBA.2022.03.26.San.Antonio.Spurs.vs.New.Orleans.Pelicans.1080p.WEB.H264-SPLASH
2022-03-27 00:42:27 TV-X264 NBA.2022.03.26.San.Antonio.Spurs.vs.New.Orleans.Pelicans.720p.WEB.H264-SPLASH
2022-03-27 00:45:35 TV-HD-FR Vienna.Blood.S02E01.FRENCH.720p.WEB.H264-AVON
2022-03-27 00:46:26 TV-SD-FR Vienna.Blood.S02E01.FRENCH.WEB.H264-AVON
2022-03-27 00:52:59 TV-X264 Love.After.Lockup.S04E04.Rule.Breakers.and.Love.Makers.720p.HDTV.x264-CRiMSON
2022-03-27 00:54:20 TV-SD Love.After.Lockup.S04E04.Rule.Breakers.and.Love.Makers.HDTV.x264-CRiMSON
2022-03-27 00:58:38 PRE MANNING_MICROSERVICES_IN_DOTNET_SECOND_EDITION-iLLiTERATE
2022-03-27 00:58:57 X264-HD-DE Ich.will.dich.ich.dich.auch.nicht.2021.GERMAN.DL.1080P.WEB.H264-WAYNE
2022-03-27 01:02:36 BLURAY-FULL Barb.Wire.1996.UNRATED.MULTi.COMPLETE.BLURAY-PEGASUS
2022-03-27 01:11:00 FLAC 2Raumwohnung-Melancholisch_Schoen-(82876701042)-DE-CD-FLAC-2005-6DM
2022-03-27 01:12:26 FLAC Alexander_O_Neal-This_Thing_Called_Love_The_Greatest_Hits_Of_Alexander_O_Neal-(471_714_2)-CD-FLAC-1992-6DM
2022-03-27 01:13:03 MP3 Large_Pro-Beatz_Volume_3-WEB-2022-KNOWN
2022-03-27 01:13:39 FLAC Anne_Clark-The_Best_Of_Anne_Clark-(BEECD10)-CD-FLAC-1992-6DM
2022-03-27 01:15:25 FLAC Byther_Smith-Im_A_Mad_Man-(BB9527)-CD-FLAC-1993-6DM
2022-03-27 01:17:05 FLAC Geoff_Gibbons-Buffalo_Hotel-CD-FLAC-2017-6DM
2022-03-27 01:17:18 MP3 Tune_Brothers-Housesession-SAT-03-27-2022-PTC
2022-03-27 01:18:15 FLAC Jerry_Jeff_Walker-Navajo_Rug-(RCD10175)-CD-FLAC-1991-6DM
2022-03-27 01:19:39 FLAC Nat_King_Cole-Essential_Original_Albums-(545518)-Deluxe_Edition-3CD-FLAC-2018-6DM
2022-03-27 01:21:06 FLAC Rolf_Zuckowski-Dezembertraeume-(519_687-2)-DE-CD-FLAC-1993-6DM
2022-03-27 01:30:14 FLAC VA-Texas_Guitar_Greats-(CD-8279692)-CD-FLAC-1993-6DM
2022-03-27 01:32:52 PRE PEARSON_JAVA_SE_11_DEVELOPER_1Z0-819-iLLiTERATE
2022-03-27 01:33:34 MP3 Dog_Fashion_Disco-Cult_Classic-WEB-2022-KNOWN
2022-03-27 01:36:53 MP3 A7MC_and_EndorfinBeats-Just_1s_and_0s-WEB-2022-KNOWN
2022-03-27 01:37:38 MP3 Amono_Dio-Mission_Begins-(FREQ2210)-WEB-2022-PTC
2022-03-27 01:38:32 MP3 Phunkadelica-Photonico-(BUTS27)-WEB-2022-PTC
2022-03-27 01:39:53 MP3 Flughand-Bookisa-EP-WEB-2021-KNOWN
2022-03-27 01:41:21 APPS PEARSON_ANGULAR_ZERO_TO_FULL-STACK-iLLiTERATE
2022-03-27 01:41:47 MP3 Konducta_Beats-Diggaman-WEB-2022-KNOWN
2022-03-27 01:44:37 MP3 Learbvicks-Ultrasulk-WEB-2022-KNOWN
2022-03-27 01:48:39 FLAC The_Cassandra_Complex-Sex_and_Death-(450.0255.20)-CD-FLAC-1993-6DM
2022-03-27 01:50:51 APPS PEARSON_THE_ESSENTIAL_MACHINE_LEARNING_FOUNDATIONS_MATH_PROBABILITY_STATISTICS_AND_COMPUTER_SCIENCE-iLLiTERATE
2022-03-27 01:53:38 MP3 GEMINVS--Nalia-(CDR075)-SINGLE-WEB-2021-YALLA
2022-03-27 03:01:06 MP3 Lord_Beatjitzu-Dirt_Dog_Chamber-WEB-2022-KNOWN_iNT
2022-03-27 03:01:54 TV-HD-NORD Vetenskapens.Varld.S39E12.SWEDiSH.720p.WEB.h264-NORUSH
2022-03-27 03:02:43 MP3 GEMINVS--Religion-(CDR072)-WEB-2021-YALLA
2022-03-27 03:02:49 MP3 Puk-alt.way-WEB-2022-KNOWN_iNT
2022-03-27 03:03:04 TV-HD-NORD Vetenskapens.Varld.S39E12.SWEDiSH.1080p.WEB.h264-NORUSH
2022-03-27 03:03:39 MP3 Joris_Voorn-Spectrum_Radio-SAT-27-03-2022-1KING
2022-03-27 03:04:44 MP3 Aqui_Dela-Autumn-SINGLE-WEB-2021-KNOWN
2022-03-27 03:05:12 MP3 Eelke_Kleijn-Days_Like_Nights_Radio_229-SAT-27-03-2022-1KING
2022-03-27 03:05:38 TV-HD-NORD Robinson.S21E06.SWEDiSH.720p.WEB.h264-NORUSH
2022-03-27 03:05:57 TV-HD-NORD Robinson.S21E06.SWEDiSH.1080p.WEB.h264-NORUSH
2022-03-27 03:06:24 MP3 Aqui_Dela-Ceats-WEB-2022-KNOWN
2022-03-27 03:09:20 MP3 Aqui_Dela-Poor_Mans_Dream-SINGLE-WEB-2021-KNOWN
2022-03-27 03:10:24 TV-HD-NORD En.Mot.En.S01E01.SWEDiSH.720p.WEB.h264-NORUSH
2022-03-27 03:10:33 TV-HD-NORD En.Mot.En.S01E01.SWEDiSH.1080p.WEB.h264-NORUSH
2022-03-27 03:11:06 MP3 Aqui_Dela-Waves-SINGLE-WEB-2021-KNOWN
2022-03-27 03:12:54 MP3 Chilla_Ninja-Breakfast_Beats-WEB-2022-KNOWN
2022-03-27 03:14:59 MP3 Chilla_Ninja-Slow_Down-EP-WEB-2022-KNOWN
2022-03-27 03:15:24 TV-HD-NORD En.Mot.En.S01E02.SWEDiSH.720p.WEB.h264-NORUSH
2022-03-27 03:15:29 TV-HD-NORD En.Mot.En.S01E02.SWEDiSH.1080p.WEB.h264-NORUSH
2022-03-27 03:16:54 MP3 Dusty_Fingerz-I_Heart_Twitter-WEB-2013-KNOWN
2022-03-27 03:18:27 TV-HD-FR Bleach.E121.CUSTOM.MULTi.1080p.WEB.x264-AMB3R
2022-03-27 03:18:32 TV-HD-FR Bleach.E122.CUSTOM.MULTi.1080p.WEB.x264-AMB3R
2022-03-27 03:18:39 TV-HD-FR Bleach.E123.CUSTOM.MULTi.1080p.WEB.x264-AMB3R
2022-03-27 03:18:41 MP3 Dusty_Fingerz-IN_SOUNDS_FROM_WAY_OUT-WEB-2019-KNOWN
2022-03-27 03:18:47 TV-HD-FR Bleach.E124.CUSTOM.MULTi.1080p.WEB.x264-AMB3R
2022-03-27 03:18:56 TV-HD-FR Bleach.E125.CUSTOM.MULTi.1080p.WEB.x264-AMB3R
2022-03-27 03:19:20 TV-HD-FR Bleach.E127.CUSTOM.MULTi.1080p.WEB.x264-AMB3R
2022-03-27 03:19:24 TV-HD-FR Bleach.E126.CUSTOM.MULTi.1080p.WEB.x264-AMB3R
2022-03-27 03:19:44 TV-HD-FR Bleach.E128.CUSTOM.MULTi.1080p.WEB.x264-AMB3R
2022-03-27 03:19:45 TV-HD-FR Bleach.E129.CUSTOM.MULTi.1080p.WEB.x264-AMB3R
2022-03-27 03:19:57 TV-HD-FR Bleach.E130.CUSTOM.MULTi.1080p.WEB.x264-AMB3R
2022-03-27 03:20:30 MP3 Dusty_Fingerz-Jazzmal_And_Auska-WEB-2015-KNOWN
2022-03-27 03:22:20 MP3 Glintsik-Perch-WEB-2022-KNOWN
2022-03-27 03:24:08 MP3 Glintsik-Recluse-WEB-2022-KNOWN
2022-03-27 03:26:05 MP3 Shitao-Aleph-WEB-2020-KNOWN
2022-03-27 03:27:56 MP3 Shitao-Lines-WEB-2008-KNOWN
2022-03-27 03:30:42 MP3 Shitao-Mono-WEB-2021-KNOWN
2022-03-27 03:32:31 MP3 Shitao-No_Bridge_Behind-WEB-2012-KNOWN
2022-03-27 03:34:32 MP3 DJ_Licious_-_In_The_Mix_(Studio_Brussel)-CABLE-03-26-2022-TALiON
2022-03-27 03:35:05 MP3 Joyhauser_-_In_The_Mix_(Studio_Brussel)-CABLE-03-26-2022-TALiON
2022-03-27 03:35:17 MP3 Shitao-Nocturnal_Tales-WEB-2007-KNOWN
2022-03-27 03:36:46 MP3 Ultra_Music_Festival_2022_-_Tchami_Live_(Miami)-SAT-03-26-2022-TALiON
2022-03-27 03:37:06 MP3 Shitao-Sunless-WEB-2019-KNOWN
2022-03-27 03:38:59 MP3 Shitao-The_Day_She_Arrives-WEB-2020-KNOWN
2022-03-27 03:39:19 MP3 Ultra_Music_Festival_2022_-_Oliver_Heldens_Live_(Miami)-SAT-03-26-2022-TALiON
2022-03-27 03:40:45 MP3 Shitao-Tomie_Tape-WEB-2021-KNOWN
2022-03-27 03:41:24 TV-HD NBA.2022.03.26.Sacramento.Kings.vs.Orlando.Magic.1080p.WEB.H264-SPLASH
2022-03-27 03:42:28 TV-X264 NBA.2022.03.26.Sacramento.Kings.vs.Orlando.Magic.720p.WEB.H264-SPLASH
2022-03-27 03:42:36 MP3 Shitao-Torn-WEB-2019-KNOWN
2022-03-27 03:42:46 MP3 Ultra_Music_Festival_2022_-_Tiesto_Live_(Miami)-SAT-03-26-2022-TALiON
2022-03-27 03:48:37 TV-HD Dark.House.2014.iNTERNAL.1080p.BluRay.x264-PEGASUS
2022-03-27 03:48:53 XXX BigWetButts.22.03.27.Summer.Hart.Anal.Overload.XXX.1080p.MP4-WRB
2022-03-27 03:48:58 MP3 Hercules_and_Love_Affair--Grace-WEB-2022-YALLA
2022-03-27 03:49:51 XXX BrazzersExxtra.22.03.27.Mona.Azar.Attention.Whore.Likes.Big.Cock.XXX.1080p.MP4-WRB
2022-03-27 03:51:25 MP3 Ultra_Music_Festival_2022_-_Afrojack_Live_(Miami)-SAT-03-26-2022-TALiON
2022-03-27 03:52:49 TV-X264 Dark.House.2014.iNTERNAL.720p.BluRay.x264-PEGASUS
2022-03-27 03:54:56 X264-SD Dark.House.2014.iNTERNAL.BDRip.x264-PEGASUS
2022-03-27 03:59:30 MP3 Jochem_Hamerling-EXOPLANETS_027-SAT-20-03-2022-1KING
2022-03-27 04:00:24 TV-X264 Waccha.PriMagi.S01E24.1080p.WEB.H264-SUGOI
2022-03-27 04:02:59 MP3 Chris_Liebing_-_AM.FM_368-SAT-03-27-2022-TALiON
2022-03-27 04:06:26 MP3 Jochem_Hamerling-EXOPLANETS_027-DIRFIX-SAT-27-03-2022-1KING
2022-03-27 04:07:17 XXX FakeDrivingSchool.22.03.27.Julia.North.XXX.1080p.MP4-WRB
2022-03-27 04:08:33 XXX RKPrime.22.03.27.Bonnie.Dolce.Drowning.In.Her.Pussy.XXX.1080p.MP4-WRB
2022-03-27 04:09:46 XXX StrandedTeens.22.03.27.Roma.Amor.Getting.Revenge.By.Riding.Her.Exs.Friend.XXX.1080p.MP4-WRB
2022-03-27 04:12:49 MP3 Adam_Beyer_-_Drumcode_Radio_Live_608__Live_from_CRSSD_After_Dark_(San_Diego)-CABLE-03-27-2022-TALiON
2022-03-27 04:19:36 TV-X264 PrivateSociety.22.03.26.Fucking.A.Baby.Into.Ophelia.XXX.720p.MP4-WRB
2022-03-27 04:23:18 TV-X264 Shining.Vale.S01E05.1080p.WEB.H264-GGEZ
2022-03-27 04:23:32 TV-X264 Power.Book.IV.Force.S01E08.1080p.WEB.H264-GGEZ
2022-03-27 04:24:15 TV-X264 Shining.Vale.S01E05.720p.WEB.H264-GGEZ
2022-03-27 04:25:39 XXX PornMegaLoad.22.03.26.Holly.Garner.Bubbles.And.Boobs.XXX.1080p.MP4-WRB
2022-03-27 04:25:44 TV-X264 Power.Book.IV.Force.S01E08.720p.WEB.H264-GGEZ
2022-03-27 04:27:07 XXX PornMegaLoad.22.03.26.River.Lynn.Afternoon.Delight.XXX.1080p.MP4-WRB
2022-03-27 04:29:58 XXX PornWorld.22.03.27.Savannah.Bond.XXX.1080p.MP4-WRB
2022-03-27 04:36:14 XXX Hegre.22.03.25.Katherina.No.Privacy.XXX.1080p.MP4-WRB
2022-03-27 04:37:23 XXX Hegre.22.03.25.Katherina.No.Privacy.XXX.2160p.MP4-WRB
2022-03-27 04:39:26 MP3 Ultra_Music_Festival_2022_-_Camelphat_Live_(Miami)-SAT-03-26-2022-TALiON
2022-03-27 04:40:56 XXX HookupHotshot.22.03.26.Allie.Addison.Returns.XXX.1080p.MP4-WRB
2022-03-27 04:45:13 FLAC J_Rawls-The_Essence_Of_J_Rawls_Fifteenth_Anniversary_Redux-REISSUE-2LP-FLAC-2016-DDAS
2022-03-27 04:45:51 MP3 Funkdoobiest-Which_Doobie_U_B-REISSUE-LP-2017-DDASMP3
2022-03-27 04:46:11 FLAC Funkdoobiest-Which_Doobie_U_B-REISSUE-LP-FLAC-2017-DDAS
2022-03-27 04:52:39 XXX AbbyWinters.22.03.26.Catalina.A.Deeply.Inserting.Fingers.XXX.1080p.MP4-WRB
2022-03-27 04:55:30 XXX AbbyWinters.22.03.26.Catalina.A.Deeply.Inserting.Fingers.XXX.2160p.MP4-WRB
2022-03-27 04:56:10 TV-HD NBA.2022.03.26.Brooklyn.Nets.vs.Miami.Heat.1080p.WEB.H264-SPLASH
2022-03-27 04:56:51 TV-X264 NBA.2022.03.26.Brooklyn.Nets.vs.Miami.Heat.720p.WEB.H264-SPLASH
2022-03-27 04:57:45 TV-HD NBA.2022.03.26.Milwaukee.Bucks.vs.Memphis.Grizzlies.1080p.WEB.H264-SPLASH
2022-03-27 04:58:28 TV-X264 NBA.2022.03.26.Milwaukee.Bucks.vs.Memphis.Grizzlies.720p.WEB.H264-SPLASH
2022-03-27 04:59:29 TV-HD NBA.2022.03.26.Chicago.Bulls.vs.Cleveland.Cavaliers.1080p.WEB.H264-SPLASH
2022-03-27 05:00:16 TV-X264 NBA.2022.03.26.Chicago.Bulls.vs.Cleveland.Cavaliers.720p.WEB.H264-SPLASH
2022-03-27 05:00:31 MP3 Nora_En_Pure_-_Purified_292-SAT-03-26-2022-TALiON
2022-03-27 05:00:59 MP3 Vice_-_Vice_Airwaves-SAT-03-26-2022-TALiON
2022-03-27 05:01:27 TV-HD NBA.2022.03.26.Indiana.Pacers.vs.Toronto.Raptors.1080p.WEB.H264-SPLASH
2022-03-27 05:02:05 XXX WankItNow.22.03.27.Alicia.Katz.The.Hotel.Guest.XXX.1080p.MP4-WRB
2022-03-27 05:02:18 TV-X264 NBA.2022.03.26.Indiana.Pacers.vs.Toronto.Raptors.720p.WEB.H264-SPLASH
2022-03-27 05:02:54 MP3 Franky_Rizardo-Flow_443-SAT-27-03-2022-1KING
2022-03-27 05:02:59 XXX WankItNow.22.03.27.Grace.Sort.You.Out.XXX.1080p.MP4-WRB
2022-03-27 05:16:06 XXX TeamSkeetXKateKoss.22.03.26.Kate.Koss.The.Purple.Room.XXX.1080p.MP4-WRB
2022-03-27 05:16:58 XXX SexMex.22.03.27.Angie.Miller.Seducing.The.Chemistry.Teacher.XXX.1080p.MP4-WRB
2022-03-27 05:19:34 XXX SexMex.22.03.27.Angie.Miller.Seducing.The.Chemistry.Teacher.XXX.2160p.MP4-WRB
2022-03-27 05:25:35 XXX MyPervyFamily.22.02.26.Madison.Lust.My.Step-Mom.Removes.My.Condom.XXX.1080p.MP4-WRB
2022-03-27 05:28:08 XXX MyPervyFamily.22.02.26.Madison.Lust.My.Step-Mom.Removes.My.Condom.XXX.2160p.MP4-WRB
2022-03-27 05:32:51 XXX FilthyBlowjobs.22.02.28.Annabel.Redd.XXX.1080p.MP4-WRB
2022-03-27 05:34:08 XXX FilthyBlowjobs.22.02.28.Annabel.Redd.XXX.2160p.MP4-WRB
2022-03-27 05:37:38 XXX ALSScan.22.03.26.Reese.Robbins.Sexy.Spectacle.XXX.2160p.MP4-WRB
2022-03-27 05:40:28 XXX NewSensations.22.03.26.Sera.Ryder.XXX.2160p.MP4-WRB
2022-03-27 05:43:40 XXX BBCPie.22.03.26.April.Valentino.Ping.Pong.Creampies.XXX.2160p.MP4-WRB
2022-03-27 05:47:27 XXX PornMegaLoad.22.03.26.River.Lynn.Afternoon.Delight.XXX.2160p.MP4-WRB
2022-03-27 05:51:39 XXX BigTitCreamPie.22.03.26.Safira.Yakkuza.XXX.2160p.MP4-WRB
2022-03-27 05:55:37 XXX HookupHotshot.22.03.26.Allie.Addison.Returns.XXX.2160p.MP4-WRB
2022-03-27 05:59:36 MP3 Olivier_Weiter-Weiter_Radio-SAT-27-03-2022-1KING
2022-03-27 06:00:06 XXX GirlCum.22.03.26.Angel.Gostosa.Dominating.Orgasm.XXX.2160p.MP4-WRB
2022-03-27 06:01:00 TV-HD-NORD Date.Mig.I.Et.Doegn.S01E08.DANiSH.720p.WEB.h264-HYGGE
2022-03-27 06:01:35 TV-HD-NORD Date.Mig.I.Et.Doegn.S01E08.DANiSH.1080p.WEB.h264-HYGGE
2022-03-27 06:03:25 TV-X264 Shenmue.the.Animation.S01E08.1080p.WEB.H264-SENPAI
2022-03-27 06:03:36 XXX EvilAngel.22.03.27.Violet.Starr.And.Jane.Wilde.XXX.1080p.MP4-WRB
2022-03-27 06:06:14 XXX BangBros18.22.03.27.Kira.Perez.XXX.1080p.MP4-WRB
2022-03-27 06:09:41 TV-X265 Billions.S06E10.2160p.WEB.H265-GLHF
2022-03-27 06:10:54 TV-HD NBA.2022.03.26.Oklahoma.City.Thunder.vs.Denver.Nuggets.1080p.WEB.H264-SPLASH
2022-03-27 06:11:34 TV-X264 NBA.2022.03.26.Oklahoma.City.Thunder.vs.Denver.Nuggets.720p.WEB.H264-SPLASH
2022-03-27 06:11:37 XXX ATKGirlfriends.22.03.27.Compilation.XXX.1080p.MP4-WRB
2022-03-27 06:13:49 XXX ATKGirlfriends.22.03.27.Compilation.XXX.2160p.MP4-WRB
2022-03-27 06:16:55 XXX JapanHDV.22.03.27.Eri.Makino.XXX.1080p.MP4-WRB
2022-03-27 06:18:31 XXX StayHomePOV.22.03.27.Alice.Visby.My.Turn.XXX.1080p.MP4-WRB
2022-03-27 06:19:26 TV-X264 Super.Pumped.The.Battle.for.Uber.S01E05.iNTERNAL.1080p.WEB.H264-GLHF
2022-03-27 06:21:43 MP3 Matt_Fischery-Plattenleger-SAT-03-27-2022-PTC
2022-03-27 06:23:00 TV-X264 Billions.S06E10.iNTERNAL.1080p.WEB.H264-GLHF
2022-03-27 06:25:02 XXX Milfty.22.03.27.Kenzie.Love.Making.It.Better.XXX.1080p.MP4-WRB
2022-03-27 06:29:30 TV-X265 CSI.Vegas.S01E01.2160p.WEB.H265-GLHF
2022-03-27 06:29:57 XXX Private.22.03.26.Silvia.Soprano.Anal.Massage.XXX.2160p.MP4-WRB
2022-03-27 06:30:19 TV-X265 CSI.Vegas.S01E02.2160p.WEB.H265-GLHF
2022-03-27 06:31:05 TV-X265 CSI.Vegas.S01E03.2160p.WEB.H265-GLHF
2022-03-27 06:31:55 TV-X265 CSI.Vegas.S01E04.2160p.WEB.H265-GLHF
2022-03-27 06:32:48 TV-X265 CSI.Vegas.S01E05.2160p.WEB.H265-GLHF
2022-03-27 06:33:34 TV-X265 CSI.Vegas.S01E06.2160p.WEB.H265-GLHF
2022-03-27 06:34:05 TV-HD-NORD LazyTown.S03E01.DANiSH.1080p.WEB.H264-DKiDS
2022-03-27 06:34:25 TV-X265 CSI.Vegas.S01E07.2160p.WEB.H265-GLHF
2022-03-27 06:34:37 MP3 VA-Bangers_Vol._6-(TERM209)-WEB-2022-PTC
2022-03-27 06:35:10 XXX PornWorld.22.03.27.Savannah.Bond.XXX.2160p.MP4-WRB
2022-03-27 06:35:11 TV-X265 CSI.Vegas.S01E08.2160p.WEB.H265-GLHF
2022-03-27 06:36:17 TV-HD-NORD LazyTown.S03E03.DANiSH.1080p.WEB.H264-DKiDS
2022-03-27 06:36:31 TV-X265 CSI.Vegas.S01E09.2160p.WEB.H265-GLHF
2022-03-27 06:37:17 TV-X265 CSI.Vegas.S01E10.2160p.WEB.H265-GLHF
2022-03-27 06:38:41 TV-HD-NORD LazyTown.S03E04.DANiSH.1080p.WEB.H264-DKiDS
2022-03-27 06:40:40 TV-HD-NORD LazyTown.S03E05.DANiSH.1080p.WEB.H264-DKiDS
2022-03-27 06:40:55 TV-HD NBA.2022.03.26.Houston.Rockets.vs.Portland.Trail.Blazers.1080p.WEB.H264-SPLASH
2022-03-27 06:41:37 TV-X264 NBA.2022.03.26.Houston.Rockets.vs.Portland.Trail.Blazers.720p.WEB.H264-SPLASH
2022-03-27 06:42:38 MP3 Impulse_Riders--Fire_and_Flames-(BKR036)-SINGLE-WEB-2022-OMA_INT
2022-03-27 06:43:05 TV-HD-NORD LazyTown.S03E06.DANiSH.1080p.WEB.H264-DKiDS
2022-03-27 06:44:10 MP3 Snipes_and_Murf_feat._Darryl_Gracie--What_Is_Love-(CR229)-WEB-2022-OMA_INT
2022-03-27 06:45:11 MP3 Rob_IYF_and_Al_Storm--Kick_Biatch-(PANDA016)-WEB-2022-OMA_INT
2022-03-27 06:45:12 TV-HD-NORD LazyTown.S03E07.DANiSH.1080p.WEB.H264-DKiDS
2022-03-27 06:45:54 MP3 Alaguan--The_Alaguan_EP-(247HC255)-WEB-2022-OMA_INT
2022-03-27 06:46:56 MP3 Eufeion--The_Eufeion_EP-(247HC256)-WEB-2022-OMA_INT
2022-03-27 06:47:38 TV-HD-NORD LazyTown.S03E08.DANiSH.1080p.WEB.H264-DKiDS
2022-03-27 06:49:44 TV-HD-NORD LazyTown.S03E09.DANiSH.1080p.WEB.H264-DKiDS
2022-03-27 06:49:57 MP3 Rob_IYF_and_Al_Storm_feat._Whizzkid--Blow_The_House_Down-(PANDA033)-SINGLE-WEB-2022-OMA
2022-03-27 06:51:47 TV-HD-NORD LazyTown.S03E10.DANiSH.1080p.WEB.H264-DKiDS
2022-03-27 06:53:31 XXX GrandMams.22.03.26.Lilie.M.Sixty.Years.Old.And.Still.Wet.XXX.1080p.MP4-WRB
2022-03-27 06:53:44 TV-HD-NORD LazyTown.S03E11.DANiSH.1080p.WEB.H264-DKiDS
2022-03-27 06:55:12 XXX ClubCastings.22.03.26.Minnie.Z.And.Anna.K.Innocent.And.Wild.Looking.For.A.Job.XXX.1080p.MP4-WRB
2022-03-27 06:55:24 MP3 Div_Eadie_and_Gary_McF_feat._Robbie_Hutton--Leave_Me-(JH335)-SINGLE-WEB-2022-OMA_INT
2022-03-27 06:55:53 TV-HD-NORD LazyTown.S03E12.DANiSH.1080p.WEB.H264-DKiDS
2022-03-27 06:56:42 XXX LittleAsians.22.03.27.Kimmy.Kim.And.Alona.Bloom.Rich.Little.Asians.XXX.1080p.MP4-WRB
2022-03-27 06:57:52 TV-HD-NORD LazyTown.S03E13.DANiSH.1080p.WEB.H264-DKiDS
2022-03-27 06:58:03 XXX ClubSweethearts.22.03.27.Alice.Reign.Queen.Of.Hearts.XXX.1080p.MP4-WRB
2022-03-27 07:00:04 XXX GrandParentsX.22.03.27.Anna.K.And.Melissa.B.Maid.Learning.Sex.From.Landlords.XXX.1080p.MP4-WRB
2022-03-27 07:02:03 TV-X265 Power.Book.IV.Force.S01E08.2160p.WEB.H265-GGEZ
2022-03-27 07:03:06 MP3 VA-Audio_Addict_100_(LP_Sampler)-(ADDICT100S)-WEB-2021-OMA
2022-03-27 07:03:30 TV-HD-NORD LazyTown.S03E02.DANiSH.1080p.WEB.H264-DKiDS
2022-03-27 07:03:32 MP3 VA-Audio_Addict_100_(LP_Sampler_2)-(ADDICT100V2S)-WEB-2021-OMA
2022-03-27 07:03:59 MP3 VA-Audio_Addict_100_LP_(Volume_1)-(ADDICT100)-WEB-2021-OMA
2022-03-27 07:07:32 MP3 VA-Audio_Addict_100_LP_(Volume_2)-(ADDICT100V2)-WEB-2021-OMA
2022-03-27 07:07:49 XXX GirlsOutWest.22.03.27.Daiquiri.Rose.And.Nicole.G.Hot.Mess.XXX.1080p.MP4-WRB
2022-03-27 07:08:09 MP3 Jam_Thieves--Outbreak_EP-(ADDICT085)-WEB-2020-OMA
2022-03-27 07:08:37 MP3 Xav--Dubplate_Fever_EP-(ADDICT084)-WEB-2020-OMA
2022-03-27 07:09:03 MP3 Bruk--Error_EP-(ADDICT083)-WEB-2020-OMA
2022-03-27 07:09:24 XXX GirlsOutWest.22.03.27.Daiquiri.Rose.And.Nicole.G.Hot.Mess.XXX.2160p.MP4-WRB
2022-03-27 07:09:30 MP3 JAK_(UK)--Back_Around_EP-(ADDICT082)-WEB-2020-OMA
2022-03-27 07:09:57 MP3 J_Select--Damaged_Humans_EP-(ADDICT081)-WEB-2020-OMA
2022-03-27 07:10:24 MP3 VA-New_Addictions_EP_Vol_1-(ADDICT077)-WEB-2020-OMA
2022-03-27 07:10:51 MP3 VA-New_Addictions_EP_Vol_2-(ADDICT078)-WEB-2020-OMA
2022-03-27 07:11:10 XXX PervMom.22.03.27.Aila.Donovan.Deep.In.The.Role.XXX.1080p.MP4-WRB
2022-03-27 07:11:18 MP3 Euphonique--True_EP_(Remixes)-(ADDICT062R)-WEB-2020-OMA
2022-03-27 07:11:59 EBOOK Il.Corriere.Della.Sera.03.27.2022.iTALiAN.RETAiL.eBook-DiVER
2022-03-27 07:12:30 MP3 DJ_Hybrid--Takeover_EP_Part_2-(ADDICT070)-WEB-2019-OMA
2022-03-27 07:12:56 MP3 DJ_Hybrid--Takeover_EP_Part_3-(ADDICT075)-WEB-2019-OMA
2022-03-27 07:13:23 MP3 Kamoh--Meddling_Kids_EP-(ADDICT073)-WEB-2019-OMA
2022-03-27 07:14:03 MP3 Sikka--Fearsome_EP-(ADDICT067)-WEB-2019-OMA
2022-03-27 07:14:28 MP3 Octo_Pi--Mumble_EP-(ADDICT066)-WEB-2019-OMA
2022-03-27 07:14:48 X264-SD-IT Il.Potere.Del.Cane.2021.iTALiAN.WEB.h264-ENCRyPTED
2022-03-27 07:15:58 MP3 DJ_Hybrid--Rebound_EP-(ADDICT004)-WEB-2013-OMA
2022-03-27 07:16:24 MP3 DJ_Hybrid--Rebound_EP_Remixes-(ADDICT004R)-WEB-2013-OMA
2022-03-27 07:16:51 MP3 T.H.D--Complex-(ADDICT005)-WEB-2013-OMA
2022-03-27 07:17:17 MP3 DJ_Hybrid--Set_The_Bass_-_Toxic_Jungle-(ADDICT009)-WEB-2014-OMA
2022-03-27 07:17:50 MP3 VA-Straight_Outta_Coventry_EP-(ADDICT012)-WEB-2014-OMA
2022-03-27 07:18:20 MP3 Kumarachi_and_Agro_and_Barbican--The_Audio_Addiction_EP_Volume_2-(ADDICT014)-WEB-2014-OMA
2022-03-27 07:18:50 MP3 Agro--My_Technique_EP-(ADDICT017)-WEB-2015-OMA
2022-03-27 07:19:17 MP3 Kumarachi--Badman_Ting_-_Sahara-(ADDICT018)-WEB-2015-OMA
2022-03-27 07:19:43 MP3 Bassface_Sascha_and_Feindsoul--All_You_Need_To_Know_-_Retrograde-(ADDICT027)-WEB-2015-OMA
2022-03-27 07:20:56 MP3 Bassface_Sascha_and_Feindsoul--Reach_-_Jungle_Love-(ADDICT029)-WEB-2016-OMA
2022-03-27 07:21:53 MP3 Deviation--Exertion_EP-(ADDICT034)-WEB-2016-OMA
2022-03-27 07:22:19 MP3 Swerve--Demons_(Remixes)-(ADDICT035)-WEB-2016-OMA
2022-03-27 07:22:50 MP3 VA-Ravey_Misbehavey_EP-(ADDICT036)-WEB-2016-OMA
2022-03-27 07:23:32 MP3 Stranjah_and_Tyr_Kohout--Black_Panther_-_Vicissitude-(ADDICT041)-WEB-2017-OMA
2022-03-27 07:23:58 MP3 LJHigh--Other_Side_Of_Town_EP-(ADDICT042)-WEB-2017-OMA
2022-03-27 07:24:25 MP3 RMS_and_Dcision--Live_The_Life_EP_Part_1-(ADDICT043)-WEB-2017-OMA
2022-03-27 07:24:52 MP3 RMS_and_Dcision--Live_The_Life_EP_Part_2-(ADDICT043-2)-WEB-2017-OMA
2022-03-27 07:25:19 MP3 Tyr_Kohout--Wasted_EP-(ADDICT044)-WEB-2017-OMA
2022-03-27 07:25:47 MP3 RMS--Tributaries_EP-(ADDICT048)-WEB-2017-OMA
2022-03-27 07:26:13 MP3 Swerve--Massive_and_Crew_EP-(ADDICT050)-WEB-2017-OMA
2022-03-27 07:26:40 MP3 Rob_Blaze--Under_Pressure_EP-(ADDICT051)-WEB-2017-OMA
2022-03-27 07:27:07 MP3 Nectax--Midnight_EP-(ADDICT052)-WEB-2017-OMA
2022-03-27 07:27:35 MP3 Lost_Dynamics--Let_It_Roll_EP-(ADDICT054)-WEB-2018-OMA
2022-03-27 07:28:02 MP3 Tyr_Kohout--Tiwaz_EP-(ADDICT057)-WEB-2018-OMA
2022-03-27 07:28:28 MP3 Gravit-E--Life_Stream_EP-(ADDICT058)-WEB-2018-OMA
2022-03-27 07:28:29 TV-HD-NORD De.Groenneste.Fingre.S02E05.Et.Blomstrende.Kunstvaerk.DANiSH.720p.WEB.h264-HiVE
2022-03-27 07:28:34 TV-HD-NORD Kernen.2022.03.27.Fanget.I.En.Russisk.Loegn.DANiSH.720p.WEB.h264-HiVE
2022-03-27 07:28:39 TV-HD-NORD Sommerdahl.S03E04.Nordens.Cannes.Del.2.DANiSH.720p.WEB.h264-HiVE
2022-03-27 07:28:43 TV-HD-NORD Minkavlerne.S03E01.Hva.Fanden.Sker.Der.DANiSH.720p.WEB.h264-HiVE
2022-03-27 07:28:55 MP3 DJ_Hybrid--Love_The_Vibe_(Remixes)-(ADDICT060)-WEB-2018-OMA
2022-03-27 07:29:22 MP3 RMS--My_Generation_EP-(ADDICT063)-WEB-2018-OMA
2022-03-27 07:32:27 MP3 VA-5_Years_Of_Audio_Addict_Records-(ADDICT023)-WEB-2015-OMA
2022-03-27 07:32:59 MP3 VA-Audio_Addict_Anthems_2016-(ADDICTLP001)-WEB-2016-OMA
2022-03-27 07:33:27 MP3 VA-Audio_Addict_Drum_N_Bass_Annual_2017-(ADDICTLP002)-WEB-2017-OMA
2022-03-27 07:33:54 MP3 VA-Audio_Addict_Drum_N_Bass_Annual_2018-(ADDICTLP004)-WEB-2018-OMA
2022-03-27 07:35:22 MP3 DJ_Hybrid--Mixed_Origins_LP-(ADDICT026)-WEB-2015-OMA_INT
2022-03-27 07:35:50 MP3 D-Audi--All_That_You_Are_(Remixes)-(ADDICT031)-WEB-2016-OMA_INT
2022-03-27 07:36:16 MP3 DJ_Hybrid--Darker_Days_EP-(ADDICT032)-WEB-2016-OMA_INT
2022-03-27 07:36:42 MP3 Kumarachi--Murderer_-_Under_My_Skin-(ADDICT037)-WEB-2016-OMA_INT
2022-03-27 07:37:09 MP3 Kumarachi--4am_Where_Are_You_-_Shifting_Sands-(ADDICT038)-WEB-2016-OMA_INT
2022-03-27 07:37:36 MP3 Kumarachi--Flash_Back_LP-(ADDICT039)-WEB-2016-OMA_INT
2022-03-27 07:38:03 MP3 DJ_Hybrid_feat._Haribo--Raised_In_The_Jungle_(Remixes)-(ADDICT053)-WEB-2018-OMA_INT
2022-03-27 07:38:46 MP3 Damageman--Signed_Off_EP-(ADDICT068)-WEB-2019-OMA_INT
2022-03-27 07:39:13 MP3 Kumarachi_and_RMS_and_Veak--Hardcore_Vibes_EP-(ADDICT069)-WEB-2019-OMA_INT
2022-03-27 07:40:18 MP3 Retrograde--Ladies_Jam_(VIP)-(ADDICTFREE001)-SINGLE-WEB-2021-OMA_INT
2022-03-27 07:40:45 MP3 OZONE--Just_Fine-(ADDICTFREE002)-SINGLE-WEB-2021-OMA_INT
2022-03-27 07:41:13 MP3 Realist--Sound_Check-(ADDICTFREE003)-SINGLE-WEB-2021-OMA_INT
2022-03-27 07:41:39 MP3 G-Class_x_Fusta--Informa_(Dub)-(ADDICTFREE004)-SINGLE-WEB-2022-OMA_INT
2022-03-27 07:42:00 EBOOK La.Gazzetta.Dello.Sport.03.27.2022.iTALiAN.RETAiL.eBook-DiVER
2022-03-27 07:47:29 XXX MyLifeInMiami.22.03.09.Reyna.DeLaCruz.Sextape.XXX.1080p.MP4-WRB
2022-03-27 07:49:36 XXX MyLifeInMiami.22.03.09.Reyna.DeLaCruz.Sextape.XXX.2160p.MP4-WRB
2022-03-27 07:49:42 MP3 Bruk--Volcano-SINGLE-WEB-2022-OMA_INT
2022-03-27 07:50:51 MP3 Swerve--Demons_-_Let_It_Off-(RNR001)-WEB-2016-OMA
2022-03-27 07:52:23 MP3 Luke_EP--Wildstyle_-_Sump_Ting-(RNR002)-WEB-2016-OMA
2022-03-27 07:56:29 XXX MrBigFatDick.22.03.11.Mimi.Cica.Multiple.Squirt.Orgasms.XXX.1080p.MP4-WRB
2022-03-27 07:59:33 XXX MrBigFatDick.22.03.11.Mimi.Cica.Multiple.Squirt.Orgasms.XXX.2160p.MP4-WRB
2022-03-27 08:03:22 TV-X264 The.Outpost.S03E01.German.DL.1080p.BluRay.x264-AWARDS
2022-03-27 08:03:24 TV-HD-NORD 71.Grader.Nord.Team.S01E14.NORWEGiAN.720p.WEB.h264-LUSEKOFTA
2022-03-27 08:03:36 TV-X264 The.Outpost.S03E01.German.DL.720p.BluRay.x264-AWARDS
2022-03-27 08:03:38 MDVDR Magnus.Rosen.Tillsammans.Med.Hvilakvartetten.2006.PROMO.PAL.MDVDR-RUiL
2022-03-27 08:03:54 TV-SD-DE The.Outpost.S03E01.German.DL.BDRip.x264-AWARDS
2022-03-27 08:04:00 TV-HD-NORD 71.Grader.Nord.Team.S01E14.NORWEGiAN.1080p.WEB.h264-LUSEKOFTA
2022-03-27 08:06:13 XXX MyLifeInMiami.22.03.16.Michelle.Anderson.Takes.Two.XXX.1080p.MP4-WRB
2022-03-27 08:06:24 MDVDR Magnus.Rosen.From.Heavy.Metal.To.Symphony.Orchestra.2009.PROMO.PAL.MDVDR-RUiL
2022-03-27 08:08:26 XXX MyLifeInMiami.22.03.16.Michelle.Anderson.Takes.Two.XXX.2160p.MP4-WRB
2022-03-27 08:10:03 TV-HD Wie.im.Himmel.REMASTERED.2004.German.1080p.BluRay.x264-GMA
2022-03-27 08:10:49 TV-X264 Wie.im.Himmel.REMASTERED.2004.German.720p.BluRay.x264-GMA
2022-03-27 08:11:36 X264-SD-DE Wie.im.Himmel.REMASTERED.German.2004.AC3.BDRiP.x264-GMA
2022-03-27 08:15:32 XXX PegasProductions.22.03.15.AJ.You.Fuck.Better.Than.Your.Brother.XXX.1080p.MP4-WRB
2022-03-27 08:17:36 TV-X264 Billions.S06E10.1080p.WEB.h264-GOSSIP
2022-03-27 08:17:59 XXX Philavise.22.03.16.Quinn.Waters.Up.Close.And.Personal.XXX.1080p.MP4-WRB
2022-03-27 08:18:00 TV-X264 Billions.S06E10.720p.WEB.h264-GOSSIP
2022-03-27 08:18:25 TV-X264 From.S01E08.720p.WEB.h264-GOSSIP
2022-03-27 08:18:50 TV-X264 From.S01E08.1080p.WEB.h264-GOSSIP
2022-03-27 08:19:15 TV-X264 Outlander.S06E04.1080p.WEB.h264-GOSSIP
2022-03-27 08:19:41 TV-X264 Outlander.S06E04.720p.WEB.h264-GOSSIP
2022-03-27 08:20:06 TV-HD Shining.Vale.S01E05.INTERNAL.1080p.WEB.h264-GOSSIP
2022-03-27 08:20:31 TV-X264 Shining.Vale.S01E05.INTERNAL.720p.WEB.h264-GOSSIP
2022-03-27 08:21:01 MP3 Ultra_Music_Festival_2022_-_Illenium_Live_(Miami)-SAT-03-26-2022-TALiON
2022-03-27 08:21:03 XXX Philavise.22.03.16.Quinn.Waters.Up.Close.And.Personal.XXX.2160p.MP4-WRB
2022-03-27 08:22:02 MP3 Ultra_Music_Festival_2022_-_Madeon_Live_(Miami)-SAT-03-26-2022-TALiON
2022-03-27 08:28:29 XXX DorcelClub.22.02.14.Penelope.Cross.XXX.2160p.MP4-NBQ
2022-03-27 08:28:43 MP3 Cornelius_SA_-_The_Anjunadeep_Editon_392-SAT-03-26-2022-TALiON
2022-03-27 08:31:15 TV-X264 Critter.Fixers.Country.Vets.S03E01.Vet.for.a.Day.720p.HDTV.x264-CRiMSON
2022-03-27 08:31:20 MP3 Diplo_-_Records_on_Records-SAT-03-26-2022-TALiON
2022-03-27 08:31:30 XXX Hunt4K.E51.Zuzu.Sweet.XXX.1080p.MP4-NBQ
2022-03-27 08:32:49 TV-SD Critter.Fixers.Country.Vets.S03E01.Vet.for.a.Day.HDTV.x264-CRiMSON
2022-03-27 08:33:41 XXX Swallowed.22.03.24.Hazel.Moore.XXX.1080p.MP4-NBQ
2022-03-27 08:36:45 XXX TrueAnal.22.03.26.Rebel.Rhyder.XXX.1080p.MP4-NBQ
2022-03-27 08:38:29 TV-X264 Critter.Fixers.Country.Vets.S03E02.Moms.and.Babies.720p.HDTV.x264-CRiMSON
2022-03-27 08:39:02 TV-SD Critter.Fixers.Country.Vets.S03E02.Moms.and.Babies.HDTV.x264-CRiMSON
2022-03-27 08:40:01 XXX Vixen.22.03.25.Freya.Mayer.And.Sonya.Blaze.XXX.1080p.MP4-NBQ
2022-03-27 08:43:02 XXX WoodmanCastingX.22.03.06.Charlotte.Jeez.Casting.Hard.XXX.1080p.MP4-NBQ
2022-03-27 08:44:47 XXX NetGirl.22.03.23.Molly.XXX.2160p.MP4-NBQ
2022-03-27 08:46:14 MP3 Ultra_Music_Festival_2022_-_Mija_b2b_GG_Magree_Live_(Miami)-SAT-03-26-2022-TALiON
2022-03-27 08:46:37 XXX AnalVids.21.03.28.Rebecca.Sharon.And.Lady.Gang.GIO1751.XXX.1080p.MP4-NBQ
2022-03-27 08:51:09 XXX AnalVids.21.03.28.Rebecca.Sharon.And.Lady.Gang.GIO1751.XXX.2160p.MP4-NBQ
2022-03-27 08:59:01 MP3 7xvethegenius-7xve_Is_Love-WEB-2019-KNOWN
2022-03-27 09:01:45 MP3 7xvethegenius-Self_7xve-WEB-2020-KNOWN
2022-03-27 09:02:46 XXX NubileFilms.22.03.27.Rebecca.Volpetti.My.New.Lover.XXX.1080p.MP4-WRB
2022-03-27 09:03:37 MP3 King_Shi-Old_Records_in_a_Vacuum-WEB-2021-KNOWN
2022-03-27 09:03:51 XXX MetArt.22.03.27.Sienna.Interview.With.Sienna.XXX.1080p.MP4-WRB
2022-03-27 09:04:01 TV-X264 The.Walking.Dead.S11E15.1080p.WEB.h264-GOSSIP
2022-03-27 09:05:08 TV-X264 Killing.Eve.S04E06.1080p.WEB.h264-GOSSIP
2022-03-27 09:05:13 XXX SexArt.22.03.27.Noa.Tevez.Deception.XXX.1080p.MP4-WRB
2022-03-27 09:05:14 X264-HD-DE Wie.im.Himmel.REMASTERED.2004.German.DL.1080p.BluRay.AVC-SAViOURHD
2022-03-27 09:05:27 MP3 King_Shi-Red-WEB-2021-KNOWN
2022-03-27 09:06:39 XXX RawCouples.22.03.27.Mencia.Francis.XXX.1080p.MP4-WRB
2022-03-27 09:07:19 MP3 MOREE-Lost_Beats_Vol_1-WEB-2016-KNOWN
2022-03-27 09:08:00 TV-X264 Killing.Eve.S04E06.720p.WEB.h264-GOSSIP
2022-03-27 09:09:19 MP3 MOREE-Lost_Beats_Vol_2-WEB-2019-KNOWN
2022-03-27 09:10:01 TV-X264 Platzspitzbaby.Meine.Mutter.ihre.Drogen.und.ich.2020.German.720p.BluRay.x264-GMA
2022-03-27 09:10:02 XXX MetArt.22.03.27.Sienna.Interview.With.Sienna.XXX.2160p.MP4-WRB
2022-03-27 09:10:19 TV-X264 Super.Pumped.The.Battle.for.Uber.S01E05.720p.WEB.h264-KOGi
2022-03-27 09:10:34 TV-X264 Super.Pumped.The.Battle.for.Uber.S01E05.1080p.WEB.h264-KOGi
2022-03-27 09:10:47 TV-HD Platzspitzbaby.Meine.Mutter.ihre.Drogen.und.ich.2020.German.DL.1080p.BluRay.x264-GMA
2022-03-27 09:11:38 X264-SD-DE Platzspitzbaby.Meine.Mutter.ihre.Drogen.und.ich.German.2020.AC3.BDRiP.x264-GMA
2022-03-27 09:12:05 MP3 MOREE-Lost_Beats_Vol_3-WEB-2019-KNOWN
2022-03-27 09:12:15 XXX Anilos.22.03.27.Zlata.Charm.Slippery.When.Wet.XXX.1080p.MP4-WRB
2022-03-27 09:13:16 XXX Nubiles.22.03.27.Sheriss.Set.The.Mood.XXX.1080p.MP4-WRB
2022-03-27 09:14:30 MP3 MOREE-Lost_Beats_Vol_4-WEB-2019-KNOWN
2022-03-27 09:14:59 XXX Nubiles.22.03.27.Sofie.Skye.Naughty.Fun.XXX.1080p.MP4-WRB
2022-03-27 09:16:31 MP3 MOREE-Pachakutec-WEB-2022-KNOWN
2022-03-27 09:17:24 XXX RawCouples.22.03.27.Mencia.Francis.XXX.2160p.MP4-WRB
2022-03-27 09:18:17 MP3 MOREE-Sidestorys-WEB-2021-KNOWN
2022-03-27 09:20:09 TV-X264 The.Walking.Dead.S11E15.720p.WEB.h264-KOGi
2022-03-27 09:20:18 MP3 MOREE-Twenty_Seven-WEB-2020-KNOWN
2022-03-27 09:20:25 ABOOKS Und_Auf_Erden_Stille-Staffel_2-4CD-Audiobook-DE-2022-VOiCE
2022-03-27 09:20:42 XXX NubileFilms.22.03.27.Rebecca.Volpetti.My.New.Lover.XXX.2160p.MP4-WRB
2022-03-27 09:22:07 MP3 Mr._Moods_and_Darkside-Strange-SINGLE-WEB-2013-KNOWN
2022-03-27 09:23:43 ABOOKS Jules_Verne-F30_Der_Schatz_Der_Verdammten-Audiobook-DE-2022-VOiCE
2022-03-27 09:24:04 MP3 Pigeondust-Beat_and_Reality-SINGLE-WEB-2022-KNOWN
2022-03-27 09:25:49 MP3 Sick_Rat-Sick_Rat_and_Friends_Vol_2-WEB-2017-KNOWN
2022-03-27 09:26:29 XXX CuckoldSessions.22.03.27.Jackie.Hoff.XXX.1080p.MP4-WRB
2022-03-27 09:26:53 ABOOKS Moriarty-F05_Gefaehrliches_Erbe-Audiobook-DE-2022-VOiCE
2022-03-27 09:27:53 MP3 Tough_Crowd-Tough_Crowd-WEB-2018-KNOWN
2022-03-27 09:28:28 XXX WatchingMyDaughterGoBlack.22.03.27.Ginger.Grey.XXX.1080p.MP4-WRB
2022-03-27 09:30:10 ABOOKS Oscar_Wilde_Und_Mycroft_Holmes-F37_Das_Herz_Der_See-Audiobook-DE-2022-VOiCE
2022-03-27 09:37:12 MP3 Llingo_Apt-BEATS_for_these_RAPPERS_to_HATE_on-WEB-2021-UVU_INT
2022-03-27 09:46:55 XXX-IMAGESET MetArtX.com_22.03.27.Kinsley.Undressing.Room.XXX.IMAGESET-FuGLi
2022-03-27 09:51:10 MP3 Ultra_Music_Festival_2022_-_Mykris_Live_(Miami)-SAT-03-26-2022-TALiON
2022-03-27 09:54:33 BLURAY-FULL Sa.som.i.himmelen.2004.REMASTERED.DUAL.COMPLETE.BLURAY-SAViOURHD
2022-03-27 09:56:41 X264-HD-NORD The.Wonderful.Spring.Of.Mickey.Mouse.2022.NORWEGiAN.720p.WEB.h264-BARNEFiLM
2022-03-27 09:58:10 MP3 Aluna_-_Noir_Fever_Radio_019-REPACK-SAT-03-27-2022-TALiON
2022-03-27 09:59:40 X264-HD-NORD The.Wonderful.Winter.Of.Mickey.Mouse.2022.NORWEGiAN.720p.WEB.h264-BARNEFiLM
2022-03-27 09:59:41 MP3 Stonebridge_-_BPM_Mix-SAT-03-27-2022-TALiON
2022-03-27 10:02:39 X264-HD-NORD The.Wonderful.Spring.Of.Mickey.Mouse.2022.NORWEGiAN.1080p.WEB.h264-BARNEFiLM
2022-03-27 10:06:56 TV-X264 Supercars.Championship.2022.Race.4.NED.Whisky.Tasmania.SuperSprint.720p.WEB.H264-ASOOT
2022-03-27 10:07:39 X264-HD-NORD The.Wonderful.Winter.Of.Mickey.Mouse.2022.NORWEGiAN.1080p.WEB.h264-BARNEFiLM
2022-03-27 10:07:57 TV-X264 Supercars.Championship.2022.Race.5.NED.Whisky.Tasmania.SuperSprint.720p.WEB.H264-ASOOT
2022-03-27 10:16:11 TV-HD-DE Cash.fuer.Chrom.S03E08.GERMAN.DOKU.720p.WEB.h264-GHDP
2022-03-27 10:16:41 TV-HD-DE Cash.fuer.Chrom.S03E08.GERMAN.DOKU.1080p.WEB.h264-GHDP
2022-03-27 10:17:11 TV-HD-DE Outback.Car.Hunters.S01E04.GERMAN.DOKU.720p.WEB.h264-GHDP
2022-03-27 10:17:43 TV-HD-DE Outback.Car.Hunters.S01E04.GERMAN.DOKU.1080p.WEB.h264-GHDP
2022-03-27 10:38:46 TV-HD 90.Day.Fiance.Before.the.90.Days.S05E15.Cold.and.Calculated.1080p.WEB.h264-B2B
2022-03-27 10:39:25 TV-X264 Gold.Rush.S12E24.Buckets.Full.of.Gold.720p.WEB.h264-B2B
2022-03-27 10:39:59 TV-HD Gold.Rush.S12E24.Buckets.Full.of.Gold.1080p.WEB.h264-B2B
2022-03-27 10:43:04 TV-X264 NHL.2022.03.25.Pittsburgh.Penguins.vs.New.York.Rangers.720p.WEB.h264-SPORTSNET
2022-03-27 10:46:10 MP3 Gerrit_Wolf-Highrise_City_Soundtrack-OST-WEB-2022-I_KnoW
2022-03-27 10:47:30 TV-X264 Blowing.Up.History.S05E04.Ghosts.of.Venice.720p.WEB.h264-B2B
2022-03-27 10:48:04 TV-HD Blowing.Up.History.S05E04.Ghosts.of.Venice.1080p.WEB.h264-B2B
2022-03-27 10:52:08 MP3 Ultra_Music_Festival_2022_-_Tommie_Sunshine_Live_(Miami)-SAT-03-26-2022-TALiON
2022-03-27 10:53:21 XXX TonightsGirlfriend.20.04.03.Brooklyn.Gray.XXX.VR180.2048p.MP4-VACCiNE
2022-03-27 10:58:05 XXX TonightsGirlfriend.20.03.27.Cherie.DeVille.XXX.VR180.2048p.MP4-VACCiNE
2022-03-27 11:02:22 BLURAY-FULL Diabolik.2021.iTALiAN.COMPLETE.BLURAY-AKENATON
2022-03-27 11:02:23 TV-HD-NORD Tid.For.Hage.S04E01.NORWEGiAN.1080p.WEB.h264-BAKFYLLA
2022-03-27 11:02:35 X265 El.Padrino.1972.SPANiSH.MULTi.2160p.UHD.BluRay.x265-DESPACiTO
2022-03-27 11:02:44 BLURAY-FULL House.Of.Gucci.2021.MULTi.COMPLETE.UHD.BLURAY-AKENATON
2022-03-27 11:03:06 TV-HD-DE Love.Life.S02E02.GERMAN.DL.1080P.WEB.H264-WAYNE
2022-03-27 11:03:50 TV-HD-DE Shining.Vale.S01E05.GERMAN.DL.1080P.WEB.H264-WAYNE
2022-03-27 11:04:29 TV-X264 BORUTO.NARUTO.NEXT.GENERATIONS.S01E242.1080p.WEB.H264-SENPAI
2022-03-27 11:04:37 BLURAY-FULL The.Ice.Road.2021.MULTi.COMPLETE.BLURAY-AKENATON
2022-03-27 11:05:08 TV-HD-NORD Tid.For.Hage.S04E01.NORWEGiAN.720p.WEB.h264-BAKFYLLA
2022-03-27 11:09:00 TV-HD Delirium.1979.1080P.BLURAY.X264-WATCHABLE
2022-03-27 11:10:37 TV-HD Delirium.1979.720P.BLURAY.X264-WATCHABLE
2022-03-27 11:12:11 X264-SD Delirium.1979.BDRIP.X264-WATCHABLE
2022-03-27 11:12:44 BLURAY-FULL Delirium.1979.COMPLETE.BLURAY-HYPNOKROETE
2022-03-27 11:13:44 TV-X264 UFC.Fight.Night.205.Blaydes.vs.Daukaus.Prelims.720p.WEB.h264-VERUM
2022-03-27 11:19:06 TV-HD UFC.Fight.Night.205.Blaydes.vs.Daukaus.Prelims.1080p.WEB.h264-VERUM
2022-03-27 11:19:25 MP3 Dave_Gahan_and_Soulsavers-Salle_Pleyel_(Paris)-DVBS-2021-JUST
2022-03-27 11:19:44 MP3 IMAscore_Pres_Maxipark_By_Oliver_Schaffer_-_Magic_Lights_(Soundtrack)-WEB-2022-ZzZz
2022-03-27 11:24:59 MP3 Berenice_-_Alleine-SINGLE-WEB-DE-2019-ZzZz
2022-03-27 11:26:05 MP3 Masters_of_Hardcore_2022_-_Furyan_Live_(s-Hertogenbosch)-STREAM-03-26-2022-TALiON_INT
2022-03-27 11:26:24 MP3 Berenice_-_Cant_Let_You_Go-SINGLE-WEB-2021-ZzZz
2022-03-27 11:27:05 MP3 Masters_of_Hardcore_2022_-_Never_Surrender_Live_(s-Hertogenbosch)-STREAM-03-26-2022-TALiON_INT
2022-03-27 11:27:32 MP3 Berenice_-_Du_Bist_As_ned-SINGLE-WEB-DE-2019-ZzZz
2022-03-27 11:28:04 MP3 Masters_of_Hardcore_2022_-_Broken_Minds_Live_(s-Hertogenbosch)-STREAM-03-26-2022-TALiON_INT
2022-03-27 11:29:05 MP3 Masters_of_Hardcore_2022_-_Korsakoff_b2b_Re-Style_Live_(s-Hertogenbosch)-STREAM-03-26-2022-TALiON_INT
2022-03-27 11:30:06 ANIME Masters_of_Hardcore_2022_-_AniMe_Live_(s-Hertogenbosch)-STREAM-03-27-2022-TALiON_INT
2022-03-27 11:30:09 MP3 Berenice_-_Jackpotfrau-SINGLE-WEB-DE-2020-ZzZz
2022-03-27 11:31:05 MP3 Masters_of_Hardcore_2022_-_D-Fence_Live_(s-Hertogenbosch)-STREAM-03-27-2022-TALiON_INT
2022-03-27 11:32:05 MP3 Masters_of_Hardcore_2022_-_Nosferatu_b2b_Tha_Playah_Live_(s-Hertogenbosch)-STREAM-03-27-2022-TALiON_INT
2022-03-27 11:33:05 MP3 Masters_of_Hardcore_2022_-_Evil_Activities_b2b_Mad_Dog_Live_(s-Hertogenbosch)-STREAM-03-27-2022-TALiON_INT
2022-03-27 11:34:05 MP3 Masters_of_Hardcore_2022_-_Outblast_Live_(s-Hertogenbosch)-STREAM-03-27-2022-TALiON_INT
2022-03-27 11:35:04 MP3 Masters_of_Hardcore_2022_-_The_Magnus_Opus_Show_Live_(s-Hertogenbosch)-STREAM-03-27-2022-TALiON_INT
2022-03-27 11:36:06 MP3 Masters_of_Hardcore_2022_-_Miss_K8_Live_(s-Hertogenbosch)-STREAM-03-27-2022-TALiON_INT
2022-03-27 11:37:06 MP3 Masters_of_Hardcore_2022_-_Angerfist_Live_(s-Hertogenbosch)-STREAM-03-27-2022-TALiON_INT
2022-03-27 11:38:06 MP3 Masters_of_Hardcore_2022_-_Paul_Elstak_Live_(s-Hertogenbosch)-STREAM-03-27-2022-TALiON_INT
2022-03-27 11:39:06 MP3 Masters_of_Hardcore_2022_-_Deadly_Guns_Live_(s-Hertogenbosch)-STREAM-03-27-2022-TALiON_INT
2022-03-27 11:39:54 GAMES Expedition.Zero.PROPER-I_KnoW
2022-03-27 11:40:05 MP3 Masters_of_Hardcore_2022_-_N-Vitral_Live_(s-Hertogenbosch)-STREAM-03-27-2022-TALiON_INT
2022-03-27 11:44:16 TV-X264 NHL.2022.03.25.Philadelphia.Flyers.vs.Colorado.Avalanche.720p.WEB.h264-SPORTSNET
2022-03-27 11:53:33 TV-HD-NORD Formula1.2022.Saudiarabiens.Grand.Prix.Kval.SWEDiSH.720p.WEB.H264-ALLURE
2022-03-27 11:53:42 TV-X264 NHL.2022.03.26.New.York.Islanders.vs.Boston.Bruins.720p.WEB.h264-SPORTSNET
2022-03-27 11:57:46 ABOOKS Charlotta_Borelius_-_Bamse_Och_Vulkanoen-AUDiOBOOK-WEB-SE-2022-CRAViNGS_iNT
2022-03-27 12:02:08 X264-HD-DE Platzspitzbaby.Meine.Mutter.ihre.Drogen.und.ich.2020.German.DL.1080p.BluRay.AVC-SAViOURHD
2022-03-27 12:02:11 TV-X264 Sisi.2021.S01E02.German.1080p.BluRay.x264-PL3X
2022-03-27 12:03:26 TV-X264 Sisi.2021.S01E02.German.720p.BluRay.x264-PL3X
2022-03-27 12:04:13 TV-SD-DE Sisi.2021.S01E02.German.BDRiP.x264-PL3X
2022-03-27 12:05:59 TV-X264 Sisi.2021.S01E03.German.1080p.BluRay.x264-PL3X
2022-03-27 12:07:08 TV-X264 Sisi.2021.S01E03.German.720p.BluRay.x264-PL3X
2022-03-27 12:07:55 TV-SD-DE Sisi.2021.S01E03.German.BDRiP.x264-PL3X
2022-03-27 12:09:21 MP3 Bad_Conscience-Cruise_Control-WEB-2004-RAGEMP3
2022-03-27 12:09:30 MP3 Billy_BA-That_Damn_Good-WEB-2005-RAGEMP3
2022-03-27 12:09:37 MP3 Big_Kalvin_And_Mr._Cain-Raw_Tunes-WEB-2006-RAGEMP3
2022-03-27 12:09:40 TV-X264 Sisi.2021.S01E04.German.1080p.BluRay.x264-PL3X
2022-03-27 12:09:45 MP3 Cballa-Blacc_Hitla-WEB-2006-RAGEMP3
2022-03-27 12:09:54 MP3 Alsace_Carcione-The_Adopted_Chyl_Of_Da_South-WEB-2007-RAGEMP3
2022-03-27 12:10:33 MP3 BigYak-Gwuap_Muzik-WEB-2007-RAGEMP3
2022-03-27 12:10:43 MP3 BowBoa-Carolina_King_Vol._1-WEB-2007-RAGEMP3
2022-03-27 12:10:48 TV-X264 Sisi.2021.S01E04.German.720p.BluRay.x264-PL3X
2022-03-27 12:10:53 MP3 Boy_Dirrt-Intro_To_A_Villiain-WEB-2007-RAGEMP3
2022-03-27 12:11:00 MP3 ATX-Hussle_Wit_A_Purpose-WEB-2009-RAGEMP3
2022-03-27 12:11:10 MP3 Yung_Bundle-They_All_Knock-EP-WEB-2009-RAGEMP3
2022-03-27 12:11:21 MP3 2_Major_Twinz-Double_Barrel-WEB-2011-RAGEMP3
2022-03-27 12:11:29 MP3 Arte_Vsop-Blessed_Wit_Da_Curse_(Cursed_Edition)-WEB-2013-RAGEMP3
2022-03-27 12:11:35 TV-SD-DE Sisi.2021.S01E04.German.BDRiP.x264-PL3X
2022-03-27 12:11:37 MP3 Black_Water-Tha_Black_Reign_Ova_Georgia-WEB-2013-RAGEMP3
2022-03-27 12:12:26 MP3 Tha_Grinda-Tha_Real_Is_Back-WEB-2013-RAGEMP3
2022-03-27 12:12:35 MP3 2_Major_Twinz-Legends_Of_The_Gulf_Coast-WEB-2014-RAGEMP3
2022-03-27 12:13:35 TV-X264 Sisi.2021.S01E05.German.1080p.BluRay.x264-PL3X
2022-03-27 12:14:51 TV-X264 Sisi.2021.S01E05.German.720p.BluRay.x264-PL3X
2022-03-27 12:15:37 TV-SD-DE Sisi.2021.S01E05.German.BDRiP.x264-PL3X
2022-03-27 12:17:12 TV-X264 Sisi.2021.S01E06.German.1080p.BluRay.x264-PL3X
2022-03-27 12:18:23 TV-X264 Sisi.2021.S01E06.German.720p.BluRay.x264-PL3X
2022-03-27 12:18:54 TV-HD-DE Power.Book.IV.Force.S01E08.GERMAN.DL.1080p.WEB.h264-FENDT
2022-03-27 12:19:19 TV-SD-DE Sisi.2021.S01E06.German.BDRiP.x264-PL3X
2022-03-27 12:20:50 EBOOK UDEMY.The.Key.Stages.of.Coaching.BOOKWARE-iLEARN
2022-03-27 12:22:49 EBOOK UDEMY.Microsoft.SQL.Server.for.Beginners.Crash.Course.BOOKWARE-iLEARN
2022-03-27 12:23:33 APPS UDEMY.5.Decision.Making.Techniques.for.Success.BOOKWARE-iLEARN
2022-03-27 12:23:44 MP3 RichyMuzic-Million_Dollar_Baby-WEB-2018-RAGEMP3
2022-03-27 12:30:14 TV-X264 Der.Teppich.von.Bayeux.-.Ein.gestickter.Mythos.GERMAN.DOKU.720p.HDTV.x264-Pumuck
2022-03-27 12:32:07 TV-SD-DE Der.Teppich.von.Bayeux.-.Ein.gestickter.Mythos.GERMAN.DOKU.WS.HDTVRip.x264-Pumuck
2022-03-27 12:34:17 TV-X264 Shanghai.1937.-.Einleitung.zum.Zweiten.Weltkrieg.GERMAN.DL.DOKU.720p.HDTV.x264-Pumuck
2022-03-27 12:34:33 MP3 RichyMuzic-Living_My_Best_Life-WEB-2019-RAGEMP3
2022-03-27 12:37:01 MP3 Yung_Bundle_And_Tony_Rashad-Impulsive_-_EP-WEB-2019-RAGEMP3
2022-03-27 12:37:06 TV-SD-DE Shanghai.1937.-.Einleitung.zum.Zweiten.Weltkrieg.GERMAN.DOKU.WS.HDTVRip.x264-Pumuck
2022-03-27 12:39:23 MP3 RichyMuzic-UnderRated-WEB-2019-RAGEMP3
2022-03-27 12:43:24 BLURAY-FULL-DE Platzspitzbaby.Meine.Mutter.ihre.Drogen.und.ich.2020.GERMAN.DUAL.COMPLETE.BLURAY-SAViOURHD
2022-03-27 12:44:35 MP3 Tha_Grinda-Jackin_4_Beats_Grind(Ed)-WEB-2019-RAGEMP3
2022-03-27 12:46:36 MP3 Tha_Grinda-Please_Say_Tha_Grinda_(Grinded)-WEB-2019-RAGEMP3
2022-03-27 12:49:39 MP3 RichyMuzic-Dying_Alive-EP-WEB-2020-RAGEMP3
2022-03-27 12:51:55 MP3 Tha_Grinda-Tha_Real_Is_Back_Grinded-WEB-2020-RAGEMP3
2022-03-27 12:54:08 TV-X264 Hargila.-.Der.Storch.und.die.Frauen.GERMAN.DOKU.720p.HDTV.x264-Pumuck
2022-03-27 12:55:42 X265 Me.And.Earl.And.The.Dying.Girl.2015.2160p.WEB.H265-SLOT
2022-03-27 12:56:10 TV-SD-DE Hargila.-.Der.Storch.und.die.Frauen.GERMAN.DOKU.WS.HDTVRip.x264-Pumuck
2022-03-27 12:56:24 TV-X264 NHL.2022.03.26.Toronto.Maple.Leafs.vs.Montreal.Canadiens.720p.WEB.h264-SPORTSNET
2022-03-27 12:57:38 MP3 RichyMuzic-Unky_Money_Loop-EP-WEB-2020-RAGEMP3
2022-03-27 12:58:08 TV-X264 Sardinien.-.Arche.aus.Stein.GERMAN.DOKU.720p.HDTV.x264-Pumuck
2022-03-27 12:58:44 MP3 RichyMuzic-Unky_Money_Loop_Deluxe-EP-WEB-2020-RAGEMP3
2022-03-27 13:00:07 TV-SD-DE Sardinien.-.Arche.aus.Stein.GERMAN.DOKU.WS.HDTVRip.x264-Pumuck
2022-03-27 13:01:10 MP3 Cybek-Chaos-(AWT105)-WEB-2022-PTC
2022-03-27 13:01:11 MP3 Gius-Follow_Your_Dreams-(PLTL091)-WEB-2022-AFO
2022-03-27 13:01:35 X265 Me.And.Earl.And.The.Dying.Girl.2015.HDR.2160p.WEB.H265-SLOT
2022-03-27 13:01:37 MP3 Matias_Delongaro-La_Pacha-(FA172)-WEB-2022-AFO
2022-03-27 13:01:50 MP3 Jardin-Rufus-(AVANTI6310)-WEB-2022-AFO
2022-03-27 13:02:07 TV-X264 Wilde.Kanaren.GERMAN.DOKU.720p.HDTV.x264-Pumuck
2022-03-27 13:02:22 MP3 Cristian_Villagra-Live_in_Armony_Pt._2-(EST405)-WEB-2022-AFO
2022-03-27 13:02:42 MP3 Prox_and_NG_Rezonance-Future_Sound_EP_Vol_5-(FSOE596A)-WEB-2022-AFO
2022-03-27 13:03:05 MP3 FiveP-Auspice-(FREQ2212)-WEB-2022-PTC
2022-03-27 13:03:08 MP3 After_Sunrise-On_the_Road-(MYC1104)-WEB-2022-AFO
2022-03-27 13:03:52 MP3 Yung_Bundle-Trials_And_Tribulations-WEB-2020-RAGEMP3
2022-03-27 13:03:59 MP3 Andy_Woldman_and_Jaskyne-Soft_Universe-(AVI024)-WEB-2022-AFO
2022-03-27 13:04:10 TV-SD-DE Wilde.Kanaren.GERMAN.DOKU.WS.HDTVRip.x264-Pumuck
2022-03-27 13:04:46 MP3 Jickow-Rituel_Chamanique-(ASR388)-WEB-2022-AFO
2022-03-27 13:05:07 MP3 NatrX-Let_Me_Go-(TAROAS060)-SINGLE-WEB-2022-AFO
2022-03-27 13:05:12 MP3 VA_-_Future_Sound_EP_Vol._5-(FSOE596A)-WEB-2022-L4M_INT
2022-03-27 13:05:20 MP3 Gazel-Of_Liminal_Colours-(SAI038)-WEB-2022-PTC
2022-03-27 13:05:46 MP3 Liquidized_Elements-Arashiyama-(ENTRM228)-SINGLE-WEB-2022-AFO
2022-03-27 13:05:49 MP3 RichyMuzic-No-Luck-WEB-2020-RAGEMP3
2022-03-27 13:06:01 MP3 Alec_Araujo-Point_Of_Decision-(CH322)-WEB-2022-AFO
2022-03-27 13:06:23 MP3 Joe_Fares-PG-(NHW119)-WEB-2022-AFO
2022-03-27 13:07:08 TV-X264 Peter.Rabbit.S01E01.1080p.WEBRip.x264-SKYFiRE
2022-03-27 13:07:15 MP3 Armonia.-Breath-(PVM396)-WEB-2022-AFO
2022-03-27 13:07:42 TV-X264 Peter.Rabbit.S01E01.720p.WEBRip.x264-SKYFiRE
2022-03-27 13:08:03 MP3 The_EM23-Dreaming-(PVM397)-WEB-2022-AFO
2022-03-27 13:08:17 TV-X264 Peter.Rabbit.S01E02.1080p.WEBRip.x264-SKYFiRE
2022-03-27 13:08:42 MP3 Hoyaa-Roana-(VRS139)-SINGLE-WEB-2022-AFO
2022-03-27 13:08:51 TV-X264 Peter.Rabbit.S01E02.720p.WEBRip.x264-SKYFiRE
2022-03-27 13:09:05 MP3 Denis_Efremov-Vortex-(DMAX711)-SINGLE-WEB-2022-AFO
2022-03-27 13:09:17 MP3 CJ_Tha_Gov_And_BP_Untamed-Street_Talk-WEB-2022-RAGEMP3
2022-03-27 13:09:23 TV-X264 Peter.Rabbit.S01E03.1080p.WEBRip.x264-SKYFiRE
2022-03-27 13:09:51 MP3 Guy2bezbar-COCO_JOJO-(Reedition)-WEB-FR-2022-GUESTS
2022-03-27 13:09:58 TV-X264 Peter.Rabbit.S01E03.720p.WEBRip.x264-SKYFiRE
2022-03-27 13:10:16 TV-X264 NHL.2022.03.26.Florida.Panthers.vs.Ottawa.Senators.720p.WEB.h264-SPORTSNET
2022-03-27 13:10:23 MP3 Tatio_and_Joyline_Snow-Always-(KR040)-SINGLE-WEB-2022-AFO
2022-03-27 13:10:32 TV-X264 Peter.Rabbit.S01E04.1080p.WEBRip.x264-SKYFiRE
2022-03-27 13:10:51 MP3 Max_Tresher-Overload-(DFR039)-WEB-2022-PTC
2022-03-27 13:11:06 TV-X264 Peter.Rabbit.S01E04.720p.WEBRip.x264-SKYFiRE
2022-03-27 13:11:13 MP3 Norberto_Lusso-Arctic_Breath_EP-(ELEK453)-WEB-2022-PTC
2022-03-27 13:11:37 MP3 Valpy_and_Origin_Riddim-Exit_EP-(GPLUS051)-WEB-2022-PTC
2022-03-27 13:11:40 TV-X264 Peter.Rabbit.S01E05.1080p.WEBRip.x264-SKYFiRE
2022-03-27 13:12:11 MP3 Oovation-Perception-(JOOF438)-WEB-2022-AFO
2022-03-27 13:12:14 TV-X264 Peter.Rabbit.S01E05.720p.WEBRip.x264-SKYFiRE
2022-03-27 13:12:27 MP3 Databass_(DE)-Signs-(ECT250)-WEB-2022-AFO
2022-03-27 13:12:44 MP3 Antonifree-Hexamax-(PVM399L)-WEB-2022-AFO
2022-03-27 13:12:48 TV-X264 Peter.Rabbit.S01E06.1080p.WEBRip.x264-SKYFiRE
2022-03-27 13:13:14 MP3 AndreCapde-Fox_Gossip-(INC215)-SINGLE-WEB-2022-AFO
2022-03-27 13:13:22 TV-X264 Peter.Rabbit.S01E06.720p.WEBRip.x264-SKYFiRE
2022-03-27 13:13:28 MP3 Souley-TYPE_993-WEB-FR-2022-GUESTS
2022-03-27 13:13:37 MP3 Enrey-Lonely-(ETC390)-WEB-2022-AFO
2022-03-27 13:13:56 TV-X264 Peter.Rabbit.S01E07.1080p.WEBRip.x264-SKYFiRE
2022-03-27 13:14:30 TV-X264 Peter.Rabbit.S01E07.720p.WEBRip.x264-SKYFiRE
2022-03-27 13:15:04 TV-X264 Peter.Rabbit.S01E08.1080p.WEBRip.x264-SKYFiRE
2022-03-27 13:15:39 TV-X264 Peter.Rabbit.S01E08.720p.WEBRip.x264-SKYFiRE
2022-03-27 13:16:13 MP3 Itro-Wide_Awake-(LIQ142)-WEB-2022-PTC
2022-03-27 13:16:13 TV-X264 Peter.Rabbit.S01E09.1080p.WEBRip.x264-SKYFiRE
2022-03-27 13:16:31 MP3 Viewer-Free_Yourself-(SDE334)-WEB-2022-PTC
2022-03-27 13:16:47 TV-X264 Peter.Rabbit.S01E09.720p.WEBRip.x264-SKYFiRE
2022-03-27 13:17:15 MP3 Jay_Scott-Ses_Plus_Grands_Succes-WEB-FR-2021-GUESTS
2022-03-27 13:17:21 TV-X264 Peter.Rabbit.S01E11.1080p.WEBRip.x264-SKYFiRE
2022-03-27 13:17:55 TV-X264 Peter.Rabbit.S01E11.720p.WEBRip.x264-SKYFiRE
2022-03-27 13:18:05 MP3 CJ_Tha_Gov_And_G_Phatz-Lone_Star_Paper_Chasers-WEB-2022-RAGEMP3
2022-03-27 13:18:29 TV-X264 Peter.Rabbit.S01E12.1080p.WEBRip.x264-SKYFiRE
2022-03-27 13:19:02 TV-X264 Peter.Rabbit.S01E12.720p.WEBRip.x264-SKYFiRE
2022-03-27 13:19:37 TV-X264 Peter.Rabbit.S01E13.1080p.WEBRip.x264-SKYFiRE
2022-03-27 13:20:10 TV-X264 Peter.Rabbit.S01E13.720p.WEBRip.x264-SKYFiRE
2022-03-27 13:20:44 TV-X264 Peter.Rabbit.S01E14.1080p.WEBRip.x264-SKYFiRE
2022-03-27 13:21:18 TV-X264 Peter.Rabbit.S01E14.720p.WEBRip.x264-SKYFiRE
2022-03-27 13:21:52 TV-X264 Peter.Rabbit.S01E16.1080p.WEBRip.x264-SKYFiRE
2022-03-27 13:21:53 MP3 Teddy_Killerz--Critical_Damage-(EATBRAIN136)-WEB-2022-OMA
2022-03-27 13:22:26 TV-X264 Peter.Rabbit.S01E16.720p.WEBRip.x264-SKYFiRE
2022-03-27 13:22:56 X265 Mary.Shelleys.Frankenstein.1994.2160p.UHD.BluRay.x265-GUHZER
2022-03-27 13:23:00 TV-X264 Peter.Rabbit.S01E17.1080p.WEBRip.x264-SKYFiRE
2022-03-27 13:23:22 MP3 Profuze--Apocalypse_EP-(NFWE022)-WEB-2022-OMA
2022-03-27 13:23:32 MP3 Lil_Noid-Waste_No_Barz-WEB-2022-RAGEMP3
2022-03-27 13:23:35 TV-X264 Peter.Rabbit.S01E17.720p.WEBRip.x264-SKYFiRE
2022-03-27 13:23:55 MP3 Baker-Secrets-(BITESDNB031)-WEB-2022-PTC
2022-03-27 13:24:04 MP3 Falcko-Black_Code_Tome_2-WEB-FR-2022-GUESTS
2022-03-27 13:24:08 TV-X264 Peter.Rabbit.S01E18.1080p.WEBRip.x264-SKYFiRE
2022-03-27 13:24:10 TV-X264 Re.E858.Schottergaerten.im.Visier.-.Wenn.Kies.und.Co.die.Natur.verdraengen.GERMAN.DOKU.720p.HDTV.x264-Pumuck
2022-03-27 13:24:14 MP3 Pruf-California_Dreams-(TONRECORDS056)-WEB-2022-PTC
2022-03-27 13:24:41 TV-X264 Peter.Rabbit.S01E18.720p.WEBRip.x264-SKYFiRE
2022-03-27 13:25:08 MP3 Step_By_Step_ID_-_Nananana_(You_and_Me)-(3616845797516)-SINGLE-WEB-2022-ZzZz
2022-03-27 13:25:16 TV-X264 Peter.Rabbit.S01E19.1080p.WEBRip.x264-SKYFiRE
2022-03-27 13:25:50 MP3 Mage-Lifetime_(Remixes)-(KINC162)-WEB-2022-PTC
2022-03-27 13:25:51 TV-X264 Peter.Rabbit.S01E19.720p.WEBRip.x264-SKYFiRE
2022-03-27 13:26:07 TV-SD-DE Re.E858.Schottergaerten.im.Visier.-.Wenn.Kies.und.Co.die.Natur.verdraengen.GERMAN.DOKU.WS.HDTVRip.x264-Pumuck
2022-03-27 13:26:25 TV-X264 Peter.Rabbit.S01E20.1080p.WEBRip.x264-SKYFiRE
2022-03-27 13:26:59 TV-X264 Peter.Rabbit.S01E20.720p.WEBRip.x264-SKYFiRE
2022-03-27 13:27:33 TV-X264 Peter.Rabbit.S01E21.1080p.WEBRip.x264-SKYFiRE
2022-03-27 13:27:53 MP3 CPTL_PNSHMNT-Artifact_EP-(HRD101)-WEB-2022-PTC
2022-03-27 13:28:07 TV-X264 Peter.Rabbit.S01E21.720p.WEBRip.x264-SKYFiRE
2022-03-27 13:28:07 TV-X264 Re.E859.Erzfeinde.im.Kosovo.-.Albaner.und.Serben.streiten.um.Trepca.Mine.GERMAN.DOKU.720p.HDTV.x264-Pumuck
2022-03-27 13:28:08 MP3 DUBLA-PROJECT-Danger-(DOR070)-SINGLE-WEB-2022-PTC
2022-03-27 13:28:41 TV-X264 Peter.Rabbit.S01E22.1080p.WEBRip.x264-SKYFiRE
2022-03-27 13:29:14 TV-X264 Peter.Rabbit.S01E22.720p.WEBRip.x264-SKYFiRE
2022-03-27 13:29:49 TV-X264 Peter.Rabbit.S01E23.1080p.WEBRip.x264-SKYFiRE
2022-03-27 13:30:12 TV-SD-DE Re.E859.Erzfeinde.im.Kosovo.-.Albaner.und.Serben.streiten.um.Trepca.Mine.GERMAN.DOKU.WS.HDTVRip.x264-Pumuck
2022-03-27 13:30:22 TV-X264 Peter.Rabbit.S01E23.720p.WEBRip.x264-SKYFiRE
2022-03-27 13:30:36 MP3 VA_-_Best_Summer_Hits_2022-2023-(GRVV1530)-WEB-2022-ZzZz
2022-03-27 13:30:57 TV-X264 Peter.Rabbit.S01E24.1080p.WEBRip.x264-SKYFiRE
2022-03-27 13:31:30 TV-X264 Peter.Rabbit.S01E24.720p.WEBRip.x264-SKYFiRE
2022-03-27 13:32:04 TV-X264 Peter.Rabbit.S01E25.1080p.WEBRip.x264-SKYFiRE
2022-03-27 13:32:39 TV-X264 Peter.Rabbit.S01E25.720p.WEBRip.x264-SKYFiRE
2022-03-27 13:33:13 TV-X264 Peter.Rabbit.S01E26.1080p.WEBRip.x264-SKYFiRE
2022-03-27 13:33:46 TV-X264 Peter.Rabbit.S01E26.720p.WEBRip.x264-SKYFiRE
2022-03-27 13:34:19 MP3 PeetGBeatz_-_Pump_It_Up-(5059950817423)-SINGLE-WEB-2022-ZzZz
2022-03-27 13:34:21 TV-X264 Peter.Rabbit.S01E27.1080p.WEBRip.x264-SKYFiRE
2022-03-27 13:34:23 MP3 Jay_Scott-Rap_Queb_Vol_1-WEB-FR-2022-GUESTS
2022-03-27 13:34:54 TV-X264 Peter.Rabbit.S01E27.720p.WEBRip.x264-SKYFiRE
2022-03-27 13:35:28 TV-X264 Peter.Rabbit.S01E28.1080p.WEBRip.x264-SKYFiRE
2022-03-27 13:36:01 TV-X264 Peter.Rabbit.S01E28.720p.WEBRip.x264-SKYFiRE
2022-03-27 13:36:36 TV-X264 Peter.Rabbit.S01E29.1080p.WEBRip.x264-SKYFiRE
2022-03-27 13:37:10 TV-X264 Peter.Rabbit.S01E29.720p.WEBRip.x264-SKYFiRE
2022-03-27 13:37:44 TV-X264 Peter.Rabbit.S01E30.1080p.WEBRip.x264-SKYFiRE
2022-03-27 13:37:58 MP3 Chain_Clax_-_Pluto-(3616845648573)-SINGLE-WEB-2022-ZzZz
2022-03-27 13:38:03 TV-X264 Captain.Tsubasa.2018.E47.RERip.FRENCH.720p.BluRay.x264-KAZETV
2022-03-27 13:38:18 TV-X264 Peter.Rabbit.S01E30.720p.WEBRip.x264-SKYFiRE
2022-03-27 13:38:35 TV-HD Captain.Tsubasa.2018.E47.RERip.MULTi.1080p.BluRay.x264-KAZETV
2022-03-27 13:38:51 TV-X264 Peter.Rabbit.S01E31.1080p.WEBRip.x264-SKYFiRE
2022-03-27 13:39:26 TV-X264 Peter.Rabbit.S01E31.720p.WEBRip.x264-SKYFiRE
2022-03-27 13:39:37 TV-X264 Captain.Tsubasa.2018.E48.RERip.FRENCH.720p.BluRay.x264-KAZETV
2022-03-27 13:39:59 TV-X264 Peter.Rabbit.S01E32.1080p.WEBRip.x264-SKYFiRE
2022-03-27 13:40:11 TV-HD Captain.Tsubasa.2018.E48.RERip.MULTi.1080p.BluRay.x264-KAZETV
2022-03-27 13:40:34 TV-X264 Peter.Rabbit.S01E32.720p.WEBRip.x264-SKYFiRE
2022-03-27 13:41:07 TV-X264 Peter.Rabbit.S01E33.1080p.WEBRip.x264-SKYFiRE
2022-03-27 13:41:13 TV-X264 Captain.Tsubasa.2018.E49.RERip.FRENCH.720p.BluRay.x264-KAZETV
2022-03-27 13:41:35 MP3 Matt_Felix_and_Gaijim_-_Naughty_People-(CAT608475)-SINGLE-WEB-2022-ZzZz
2022-03-27 13:41:41 TV-X264 Peter.Rabbit.S01E33.720p.WEBRip.x264-SKYFiRE
2022-03-27 13:41:44 TV-HD Captain.Tsubasa.2018.E49.RERip.MULTi.1080p.BluRay.x264-KAZETV
2022-03-27 13:42:09 TV-X264 Re.E860.Angst.vor.Russlands.Panzern.-.Moldawien.und.der.Krieg.in.der.Ukraine.GERMAN.DOKU.720p.HDTV.x264-Pumuck
2022-03-27 13:42:15 TV-X264 Peter.Rabbit.S01E34.1080p.WEBRip.x264-SKYFiRE
2022-03-27 13:42:30 TV-SD-DE Re.E860.Angst.vor.Russlands.Panzern.-.Moldawien.und.der.Krieg.in.der.Ukraine.GERMAN.DOKU.WS.HDTVRip.x264-Pumuck
2022-03-27 13:42:47 TV-X264 Captain.Tsubasa.2018.E50.RERip.FRENCH.720p.BluRay.x264-KAZETV
2022-03-27 13:42:49 TV-X264 Peter.Rabbit.S01E34.720p.WEBRip.x264-SKYFiRE
2022-03-27 13:43:01 X265 Me.And.Earl.And.The.Dying.Girl.2015.MULTI.2160p.WEB.H265-LOST
2022-03-27 13:43:19 TV-HD Captain.Tsubasa.2018.E50.RERip.MULTi.1080p.BluRay.x264-KAZETV
2022-03-27 13:43:23 TV-X264 Peter.Rabbit.S01E35.1080p.WEBRip.x264-SKYFiRE
2022-03-27 13:43:29 TV-HD Only.Fools.and.Horses.S04.Special.To.Hull.and.Back.1080p.BluRay.x264-CARVED
2022-03-27 13:43:56 TV-X264 Peter.Rabbit.S01E35.720p.WEBRip.x264-SKYFiRE
2022-03-27 13:44:20 TV-X264 Re.E861.Ein.Haus.aus.Muell.-.Bauen.fuer.eine.saubere.Zukunft.GERMAN.DOKU.720p.HDTV.x264-Pumuck
2022-03-27 13:44:24 MP3 Gorbunoff_-_Only_Love-(YA739)-SINGLE-WEB-2022-ZzZz
2022-03-27 13:44:24 TV-X264 Captain.Tsubasa.2018.E51.RERip.FRENCH.720p.BluRay.x264-KAZETV
2022-03-27 13:44:30 TV-X264 Peter.Rabbit.S01E36.1080p.WEBRip.x264-SKYFiRE
2022-03-27 13:45:05 TV-X264 Peter.Rabbit.S01E36.720p.WEBRip.x264-SKYFiRE
2022-03-27 13:45:13 TV-HD Captain.Tsubasa.2018.E51.RERip.MULTi.1080p.BluRay.x264-KAZETV
2022-03-27 13:45:38 TV-X264 Peter.Rabbit.S01E37.1080p.WEBRip.x264-SKYFiRE
2022-03-27 13:46:04 TV-HD Only.Fools.and.Horses.S05.Special.A.Royal.Flush.1080p.BluRay.x264-CARVED
2022-03-27 13:46:06 TV-SD-DE Re.E861.Ein.Haus.aus.Muell.-.Bauen.fuer.eine.saubere.Zukunft.GERMAN.DOKU.WS.HDTVRip.x264-Pumuck
2022-03-27 13:46:12 TV-X264 Peter.Rabbit.S01E37.720p.WEBRip.x264-SKYFiRE
2022-03-27 13:46:46 TV-X264 Peter.Rabbit.S01E38.1080p.WEBRip.x264-SKYFiRE
2022-03-27 13:47:20 TV-X264 Peter.Rabbit.S01E38.720p.WEBRip.x264-SKYFiRE
2022-03-27 13:47:25 MP3 Eric_Tyrell_-_Cruise_To_Vegas_(The_Remixes)-(3616844724117)-WEB-2022-ZzZz
2022-03-27 13:47:34 TV-HD Captain.Tsubasa.2018.E52.FiNAL.RERip.MULTi.1080p.BluRay.x264-KAZETV
2022-03-27 13:47:37 TV-SD-FR Captain.Tsubasa.2018.VOL08.RERip.FiNAL.MULTi.BDRip.x264-KAZETV
2022-03-27 13:47:47 TV-X264 Captain.Tsubasa.2018.E52.FiNAL.RERip.FRENCH.720p.BluRay.x264-KAZETV
2022-03-27 13:47:53 TV-X264 Peter.Rabbit.S01E39.1080p.WEBRip.x264-SKYFiRE
2022-03-27 13:48:19 MP3 Ultra_Music_Festival_2022_-_Carl_Cox_Live_(Miami)-SAT-03-26-2022-TALiON
2022-03-27 13:48:28 TV-X264 Peter.Rabbit.S01E39.720p.WEBRip.x264-SKYFiRE
2022-03-27 13:49:01 TV-X264 Peter.Rabbit.S01E40.1080p.WEBRip.x264-SKYFiRE
2022-03-27 13:49:34 TV-X264 Peter.Rabbit.S01E40.720p.WEBRip.x264-SKYFiRE
2022-03-27 13:50:08 MP3 Miditech_-_Falcon-(USPRRC015)-SINGLE-WEB-2022-ZzZz
2022-03-27 13:50:08 TV-X264 Peter.Rabbit.S01E41.1080p.WEBRip.x264-SKYFiRE
2022-03-27 13:50:42 TV-X264 Peter.Rabbit.S01E41.720p.WEBRip.x264-SKYFiRE
2022-03-27 13:50:53 X264 wrong.episode.muxed_get.rerip
2022-03-27 13:51:16 TV-X264 Peter.Rabbit.S01E42.1080p.WEBRip.x264-SKYFiRE
2022-03-27 13:51:50 TV-X264 Peter.Rabbit.S01E42.720p.WEBRip.x264-SKYFiRE
2022-03-27 13:52:23 TV-X264 Peter.Rabbit.S01E43.1080p.WEBRip.x264-SKYFiRE
2022-03-27 13:52:57 TV-X264 Peter.Rabbit.S01E43.720p.WEBRip.x264-SKYFiRE
2022-03-27 13:53:22 MP3 B0R0_x_KMX_-_Fallin_In_Love-(NETWORK002)-WEB-2022-ZzZz
2022-03-27 13:53:30 TV-X264 Peter.Rabbit.S01E44.1080p.WEBRip.x264-SKYFiRE
2022-03-27 13:53:56 TV-HD Only.Fools.and.Horses.S05.Special.A.Royal.Flush.WRITERS.CUT.1080p.BluRay.x264-CARVED
2022-03-27 13:54:04 TV-X264 Peter.Rabbit.S01E44.720p.WEBRip.x264-SKYFiRE
2022-03-27 13:54:38 TV-X264 Peter.Rabbit.S01E45.1080p.WEBRip.x264-SKYFiRE
2022-03-27 13:55:12 TV-X264 Peter.Rabbit.S01E45.720p.WEBRip.x264-SKYFiRE
2022-03-27 13:55:15 MP3 Punch_Arogunz-Naechste_Frage-SINGLE-WEB-DE-2022-wAx
2022-03-27 13:55:18 MP3 Nicole_Moudaber_and_Dubfire_and_Paco_Osuna-In_the_MOOD_413-SAT-03-27-2022-PTC
2022-03-27 13:55:42 MP3 Terrence_Dixon-Other_Dimensions_LP-(30DEXOLP001)-WEB-2022-PTC
2022-03-27 13:55:45 TV-X264 Peter.Rabbit.S01E46.1080p.WEBRip.x264-SKYFiRE
2022-03-27 13:56:20 TV-X264 Peter.Rabbit.S01E46.720p.WEBRip.x264-SKYFiRE
2022-03-27 13:56:44 MP3 Micky_Stardust_-_I_Was_Born_To_Do_This-(5059950818581)-SINGLE-WEB-2022-ZzZz
2022-03-27 13:56:53 TV-X264 Peter.Rabbit.S01E47.1080p.WEBRip.x264-SKYFiRE
2022-03-27 13:56:57 TV-HD Only.Fools.and.Horses.S05.Special.Dates.1080p.BluRay.x264-CARVED
2022-03-27 13:57:28 TV-X264 Peter.Rabbit.S01E47.720p.WEBRip.x264-SKYFiRE
2022-03-27 13:58:37 MP3 Andrew_Spencer_and_Daniel_Slam_-_No_Soul-(LNGS0542R)-WEB-2010-MARiBOR
2022-03-27 13:58:38 MP3 Mike_De_Ville_vs._L.A._Calling_-_Pump_It_Up-WEB-2012-MARiBOR
2022-03-27 13:58:38 MP3 Leyla_-_My_Only_Confession-(LNGS0087R)-WEB-2009-MARiBOR
2022-03-27 13:59:21 MP3 Tiffany_D_-_Undeniable-(LNGS0052R)-WEB-2009-MARiBOR
2022-03-27 14:00:12 MP3 Vladimir_Shkrobtak_-_Yeah-(3616845797981)-SINGLE-WEB-2022-ZzZz
2022-03-27 14:00:18 X265 Me.And.Earl.And.The.Dying.Girl.2015.MULTI.HDR.2160p.WEB.H265-LOST
2022-03-27 14:00:47 TV-HD Only.Fools.and.Horses.S05.Special.The.Frogs.Legacy.1080p.BluRay.x264-CARVED
2022-03-27 14:02:28 MP3 Ozric_Tentacles-Travelling_The_Great_Circle-7CD-BOXSET-2022-agw
2022-03-27 14:02:47 TV-HD Only.Fools.and.Horses.S05.Special.The.Jolly.Boys.Outing.1080p.BluRay.x264-CARVED
2022-03-27 14:02:56 MP3 Ozric_Tentacles-Travelling_The_Great_Circle-DVD-2022-agw
2022-03-27 14:03:10 MP3 Ozric_Tentacles-Space_For_The_Earth_(The_Tour_That_Didnt_Happen_Edition)-2CD-2021-agw
2022-03-27 14:03:20 MP3 VA_-_The_Dome_Vol.100-2CD-2021-NOiCE
2022-03-27 14:05:47 MP3 Ultra_Music_Festival_2022_-_Pendelum_Live_(Miami)-SAT-03-26-2022-TALiON
2022-03-27 14:05:51 TV-X264 Only.Fools.and.Horses.S05.Special.The.Jolly.Boys.Outing.720p.BluRay.x264-CARVED
2022-03-27 14:06:26 TV-X264 Only.Fools.and.Horses.S05.Special.The.Frogs.Legacy.720p.BluRay.x264-CARVED
2022-03-27 14:06:47 TV-SD Survivor.AU.S09E21.WEB.H264-DARKFLiX
2022-03-27 14:06:51 MP3 VA-9_Years_3rd_Avenue-(3AV060LP)-WEB-2022-AFO
2022-03-27 14:07:15 TV-X264 Only.Fools.and.Horses.S05.Special.Dates.720p.BluRay.x264-CARVED
2022-03-27 14:07:58 TV-X264 Only.Fools.and.Horses.S04.Special.To.Hull.and.Back.720p.BluRay.x264-CARVED
2022-03-27 14:09:21 TV-X264 Only.Fools.and.Horses.S05.Special.A.Royal.Flush.720p.BluRay.x264-CARVED
2022-03-27 14:10:04 TV-X264 Only.Fools.and.Horses.S05.Special.A.Royal.Flush.WRITERS.CUT.720p.BluRay.x264-CARVED
2022-03-27 14:13:06 TV-HD-PL Seal.Team.S04E06.POLiSH.1080p.WEB.H264-CHOPiN
2022-03-27 14:15:17 TV-SDRIP Only.Fools.and.Horses.S04.Special.To.Hull.and.Back.RESTORED.BDRip.x264-CARVED
2022-03-27 14:15:33 TV-HD-PL Seal.Team.S04E06.POLiSH.720p.WEB.H264-CHOPiN
2022-03-27 14:15:53 TV-SDRIP Only.Fools.and.Horses.S05.Special.A.Royal.Flush.RESTORED.BDRip.x264-CARVED
2022-03-27 14:16:21 TV-SDRIP Only.Fools.and.Horses.S05.Special.A.Royal.Flush.WRITERS.CUT.BDRip.x264-CARVED
2022-03-27 14:16:52 TV-HD-PL Seal.Team.S04E07.POLiSH.1080p.WEB.H264-CHOPiN
2022-03-27 14:17:02 TV-SDRIP Only.Fools.and.Horses.S05.Special.The.Jolly.Boys.Outing.RESTORED.BDRip.x264-CARVED
2022-03-27 14:17:29 TV-SDRIP Only.Fools.and.Horses.S05.Special.Dates.RESTORED.BDRip.x264-CARVED
2022-03-27 14:17:51 TV-SDRIP Only.Fools.and.Horses.S05.Special.The.Frogs.Legacy.RESTORED.BDRip.x264-CARVED
2022-03-27 14:18:03 TV-HD-PL Seal.Team.S04E07.POLiSH.720p.WEB.H264-CHOPiN
2022-03-27 14:20:03 BLURAY-FULL Only.Fools.and.Horses.The.80s.Specials.D01.COMPLETE.BLURAY-WARLOCK
2022-03-27 14:20:16 FLAC VA-The_Dome_Vol.100-2CD-FLAC-2021-NBFLAC
2022-03-27 14:21:14 TV-HD-PL Seal.Team.S04E08.POLiSH.1080p.WEB.H264-CHOPiN
2022-03-27 14:21:39 BLURAY-FULL Only.Fools.and.Horses.The.80s.Specials.D02.COMPLETE.BLURAY-WARLOCK
2022-03-27 14:22:42 TV-HD-PL Seal.Team.S04E08.POLiSH.720p.WEB.H264-CHOPiN
2022-03-27 14:22:50 BLURAY-FULL Only.Fools.and.Horses.The.80s.Specials.D03.COMPLETE.BLURAY-WARLOCK
2022-03-27 14:25:42 TV-HD-PL Seal.Team.S04E09.POLiSH.1080p.WEB.H264-CHOPiN
2022-03-27 14:27:09 TV-HD-PL Seal.Team.S04E09.POLiSH.720p.WEB.H264-CHOPiN
2022-03-27 14:27:24 MP3 Coin_-_Uncanny_Valley-WEB-2022-X570
2022-03-27 14:27:25 MP3 Nanee_-_Tausend_Farben-WEB-DE-2022-X570
2022-03-27 14:27:25 TV-SD-FR Shining.Vale.S01E05.FRENCH.WEB.H264-AVON
2022-03-27 14:27:29 MP3 Nimo_-_MOONBOY-WEB-DE-2022-X570
2022-03-27 14:28:52 TV-HD-PL Seal.Team.S04E10.POLiSH.1080p.WEB.H264-CHOPiN
2022-03-27 14:29:36 TV-HD-FR Shining.Vale.S01E05.FRENCH.720p.WEB.H264-AVON
2022-03-27 14:30:15 TV-SD-FR Power.Book.IV.Force.S01E08.FRENCH.WEB.H264-AVON
2022-03-27 14:30:18 TV-HD-PL Seal.Team.S04E10.POLiSH.720p.WEB.H264-CHOPiN
2022-03-27 14:30:31 TV-HD-FR Power.Book.IV.Force.S01E08.FRENCH.720p.WEB.H264-AVON
2022-03-27 14:30:36 TV-X264 NHL.2022.03.26.Tampa.Bay.Lightning.vs.Detroit.Red.Wings.720p.WEB.h264-SPORTSNET
2022-03-27 14:32:11 TV-HD-PL Seal.Team.S04E11.POLiSH.1080p.WEB.H264-CHOPiN
2022-03-27 14:33:39 X264-SD-IT Agente.Speciale.Ruby.2022.iTALiAN.WEB.h264-ENCRyPTED
2022-03-27 14:34:54 TV-HD-PL Seal.Team.S04E11.POLiSH.720p.WEB.H264-CHOPiN
2022-03-27 14:35:46 TV-HD-PL Seal.Team.S04E12.POLiSH.1080p.WEB.H264-CHOPiN
2022-03-27 14:37:23 BLURAY-FULL The.Godfather.Bonus.Disc.2022.COMPLETE.BLURAY-FULLSiZE
2022-03-27 14:37:59 TV-HD-PL Seal.Team.S04E12.POLiSH.720p.WEB.H264-CHOPiN
2022-03-27 14:42:53 TV-HD-NORD LazyTown.S04E01.DANiSH.1080p.WEB.H264-DKiDS
2022-03-27 14:44:08 TV-HD-NORD LazyTown.S04E03.DANiSH.1080p.WEB.H264-DKiDS
2022-03-27 14:45:13 TV-HD-NORD LazyTown.S04E04.DANiSH.1080p.WEB.H264-DKiDS
2022-03-27 14:45:30 TV-HD-PL Seal.Team.S04E13.POLiSH.1080p.WEB.H264-CHOPiN
2022-03-27 14:46:11 TV-HD-DE F1.2022.Grosser.Preis.von.Saudi.Arabien.3.Freies.Training.in.Dschidda.German.HLG.2160p.UHDTV.HEVC-F1ANA
2022-03-27 14:46:49 TV-HD-NORD LazyTown.S04E05.DANiSH.1080p.WEB.H264-DKiDS
2022-03-27 14:48:24 TV-SD Die.Pfefferkoerner.S18E11.Vertauscht.GERMAN.HDTV.x264-FieTe
2022-03-27 14:48:42 MP3 Ultra_Music_Festival_2022_-_KSHMR_Live_(Miami)-SAT-03-26-2022-TALiON
2022-03-27 14:48:42 TV-HD-NORD LazyTown.S04E06.DANiSH.1080p.WEB.H264-DKiDS
2022-03-27 14:48:43 TV-X264 Die.Pfefferkoerner.S18E11.Vertauscht.GERMAN.720p.HDTV.x264-FieTe
2022-03-27 14:49:28 TV-HD-PL Seal.Team.S04E13.POLiSH.720p.WEB.H264-CHOPiN
2022-03-27 14:50:35 TV-HD-NORD LazyTown.S04E07.DANiSH.1080p.WEB.H264-DKiDS
2022-03-27 14:51:34 TV-HD-PL Seal.Team.S04E14.POLiSH.1080p.WEB.H264-CHOPiN
2022-03-27 14:52:44 TV-HD-NORD LazyTown.S04E08.DANiSH.1080p.WEB.H264-DKiDS
2022-03-27 14:53:42 TV-HD-PL Seal.Team.S04E14.POLiSH.720p.WEB.H264-CHOPiN
2022-03-27 14:54:45 TV-HD-NORD LazyTown.S04E09.DANiSH.1080p.WEB.H264-DKiDS
2022-03-27 14:54:49 TV-HD-PL Seal.Team.S04E15.POLiSH.1080p.WEB.H264-CHOPiN
2022-03-27 14:56:18 TV-HD-PL Seal.Team.S04E15.POLiSH.720p.WEB.H264-CHOPiN
2022-03-27 14:56:41 TV-HD-NORD LazyTown.S04E10.DANiSH.1080p.WEB.H264-DKiDS
2022-03-27 14:57:17 TV-HD-PL Seal.Team.S04E16.POLiSH.1080p.WEB.H264-CHOPiN
2022-03-27 14:58:42 TV-HD-NORD LazyTown.S04E11.DANiSH.1080p.WEB.H264-DKiDS
2022-03-27 14:59:06 TV-HD-PL Seal.Team.S04E16.POLiSH.720p.WEB.H264-CHOPiN
2022-03-27 14:59:34 BLURAY-FULL The.Godfather.Part.III.1990.REMASTERED.MULTi.COMPLETE.BLURAY-FULLSiZE
2022-03-27 15:00:40 TV-HD-NORD LazyTown.S04E12.DANiSH.1080p.WEB.H264-DKiDS
2022-03-27 15:02:26 MP3 Max_Giesinger_-_Vier-DE-2021-NOiCE
2022-03-27 15:02:41 TV-HD-NORD LazyTown.S04E13.DANiSH.1080p.WEB.H264-DKiDS
2022-03-27 15:03:22 FLAC Dub_Deuce_Mafia-Cant_Knock_Da_Hustle-REPACK-CD-FLAC-2003-RAGEFLAC
2022-03-27 15:03:39 FLAC DJ_Fire_And_J_Blaque-Dark_Rituals-CDR-FLAC-2010-RAGEFLAC
2022-03-27 15:03:56 FLAC VA-Dru_Down_Lee_Majors_And_Rahmean-Crack_Muzic_Vol._1-CD-FLAC-200X-RAGEFLAC
2022-03-27 15:04:15 FLAC VA-Dru_Down_Lee_Majors_And_Rahmean-Crack_Muzic_Vol._2-CD-FLAC-200X-RAGEFLAC
2022-03-27 15:04:27 FLAC VA-Hollow_Tip_Presents_Crime_And_Poverty-CD-FLAC-2010-RAGEFLAC
2022-03-27 15:04:35 MP3 Busy_Signal-Watch_Gyal-WEB-2022-JAH
2022-03-27 15:04:46 MP3 Dj_Eyedol-Bouyon_Kings_Mixtape-SINGLE-WEB-FR-2022-JAH
2022-03-27 15:04:55 MP3 Future_Fambo-Bobby_Shmurda_Dance-SINGLE-WEB-2022-JAH
2022-03-27 15:05:05 MP3 Trns-Mr_Zanana-WEB-FR-2022-JAH
2022-03-27 15:05:19 MP3 VA-Authentic_Jab_Riddim-WEB-2022-JAH
2022-03-27 15:05:51 MP3 VA-The_Ordinary_Man_Riddim-WEB-2022-JAH
2022-03-27 15:07:28 MP3 Bad_Boy_Timz-One_in_Town-SINGLE-WEB-2022-AZF
2022-03-27 15:07:32 TV-HD-NORD LazyTown.S04E02.DANiSH.1080p.WEB.H264-DKiDS
2022-03-27 15:07:48 MP3 Bracket-Out_There-SINGLE-WEB-2022-AZF
2022-03-27 15:07:57 MP3 Lyphik-FA7-WEB-FR-2022-AZF
2022-03-27 15:08:06 MP3 NSG-Headliner-WEB-2021-AZF
2022-03-27 15:08:15 MP3 Rema-Rave_and_Roses-WEB-2022-AZF
2022-03-27 15:08:24 MP3 Saina_Manotte-Toujou_dibout-SINGLE-WEB-FR-2022-AZF
2022-03-27 15:08:35 MP3 Tatane-Jadore-SINGLE-WEB-FR-2022-AZF
2022-03-27 15:08:49 MP3 Tekno-Jinja-WEB-2022-AZF
2022-03-27 15:09:23 MP3 Tory_Lanez-CAP-SINGLE-WEB-2022-AZF
2022-03-27 15:13:35 XXX-IMAGESET SexArt.com_22.03.27.Noa.Tevez.Deception.XXX.IMAGESET-FuGLi
2022-03-27 15:17:54 MP3 Dast-Icon_Vibration-ANA086-WEB-2022-WAV
2022-03-27 15:18:25 MP3 Joaquin_Ruiz-Moons_EP-R3D048-WEB-2022-WAV
2022-03-27 15:18:55 MP3 Klotz-Planetarium_EP-STD260-WEB-2022-WAV
2022-03-27 15:19:26 MP3 MAL_HOMBRE-Orbit_Of_Elnath-IAR304-WEB-2022-WAV
2022-03-27 15:23:37 MP3 Avishai_Cohen-Cross_My_Palm_With_Silver-WEB-2017-TERSE_INT
2022-03-27 15:28:19 MP3 Avishai_Cohen-Seven-WEB-2008-TERSE_INT
2022-03-27 15:29:40 MP3 Avishai_Cohen-The_Trumpet_Player-WEB-2002-TERSE_INT
2022-03-27 15:31:04 MP3 Blind_Boy_Fuller-A_Crying_Shame-WEB-2019-TERSE
2022-03-27 15:32:49 MP3 Blind_Boy_Fuller-Bull_City_Blues-WEB-2021-TERSE
2022-03-27 15:33:04 MP3 Marry_-_Wir_Feiern_Den_DJ_(Cloud_Seven_and_DJ_Restlezz_Remix)-WEB-DE-2022-MARiBOR
2022-03-27 15:34:16 MP3 Blind_Boy_Fuller-Careless_Love-WEB-2019-TERSE
2022-03-27 15:35:26 MP3 Blind_Boy_Fuller-Greatest_Hits_1935-1938_(Remastered_Version)_(Doxy_Collection)-WEB-2018-TERSE
2022-03-27 15:37:01 MP3 Blind_Boy_Fuller-His_Greatest_Tracks-WEB-2018-TERSE
2022-03-27 15:38:20 MP3 Blind_Boy_Fuller-Homesick_Blues-WEB-2021-TERSE
2022-03-27 15:39:56 MP3 Blind_Boy_Fuller-Instinctively_the_Blues_-_Blind_Boy_Fuller-WEB-2020-TERSE
2022-03-27 15:50:28 MP3 Ultra_Music_Festival_2022_-_Slushii_Live_(Miami)-SAT-03-26-2022-TALiON
2022-03-27 15:52:36 FLAC Admiral_Freebee-The_Gardener-(19439903742)-CD-FLAC-2021-WRE
2022-03-27 15:53:38 FLAC Arbeid_Adelt-Slik-(EXCEL96446)-NL-CD-FLAC-2015-WRE
2022-03-27 15:54:39 FLAC Autumns_Child-Zenith-(PJM12784)-CD-FLAC-2022-WRE
2022-03-27 15:55:40 FLAC Blue_System-Hello_America-(262_842)-CD-FLAC-1992-WRE
2022-03-27 15:55:50 FLAC MCJ_and_Cool_G-So_Listen-CD-FLAC-1990-CALiFLAC
2022-03-27 15:56:43 FLAC Danko_Jones-Power_Trio-CD-FLAC-2021-WRE
2022-03-27 15:57:43 FLAC Diablo-When_All_The_Rivers_Are_Silent-(OMN22679)-CD-FLAC-2022-WRE
2022-03-27 15:59:05 FLAC Disastrous_Murmur-The_Best_Of-(MB_11565)-CD-FLAC-2022-WRE
2022-03-27 15:59:58 MP3 Blind_Boy_Fuller-Jivin_Woman_Blues-WEB-2019-TERSE
2022-03-27 16:01:08 MP3 Blind_Boy_Fuller-Lonesome-WEB-2021-TERSE
2022-03-27 16:01:08 FLAC Heaven_17-Endless-(CDV_2383)-CD-FLAC-1986-WRE
2022-03-27 16:01:20 FLAC Girish_and_The_Chronicles-Hail_To_The_Heroes-(FR_CD_1191)-CD-FLAC-2022-WRE
2022-03-27 16:01:23 TV-X264 Requiem.of.the.Rose.King.S01E12.1080p.WEB.H264-SUGOI
2022-03-27 16:01:30 MP3 Alexander_Johansson_And_Mattias_Fridell-Mottodub-MOTTO20-WEB-2022-WAV
2022-03-27 16:02:01 MP3 Crime_And_LAU.TASTIC-False_Space-DM328-WEB-2022-WAV
2022-03-27 16:02:10 FLAC Matthias_Reim-Verdammt_Ich_Lieb_Dich-(552_399-2)-DE-CD-FLAC-2001-WRE
2022-03-27 16:02:34 MP3 Hioll-Protocol_Gamma-HIOLL001DIGI-SINGLE-WEB-2022-WAV
2022-03-27 16:02:59 MP3 Blind_Boy_Fuller-Numero_Uno_Blues-WEB-2020-TERSE
2022-03-27 16:03:05 MP3 Hi_Dude-Addictive-DMR195-WEB-2022-WAV
2022-03-27 16:03:11 FLAC Once_Human-Scar_Weaver-(0214615EMU)-CD-FLAC-2022-WRE
2022-03-27 16:03:36 MP3 Rob_Hes_And_Naji_Arun-New_Horizons-PRST070-WEB-2022-WAV
2022-03-27 16:03:49 TV-X264 UFC.Fight.Night.205.Blaydes.vs.Daukaus.720p.HDTV.x264-VERUM
2022-03-27 16:04:34 FLAC Sacred_Oath-Return_Of_The_Dragon-(WHD280)-CD-FLAC-2021-WRE
2022-03-27 16:05:35 FLAC Take_That-Everything_Changes-(74321_169262)-CD-FLAC-1993-WRE
2022-03-27 16:05:55 X264-HD Curly.Sue.1991.1080p.WEB.h264-NOMA
2022-03-27 16:06:37 FLAC VA-Acid_House_Fever_Vol.1-(CDP_588-7_91953_2)-CD-FLAC-1988-WRE
2022-03-27 16:06:51 MP3 LeVirya_and_Broey.-Where_the_Crawfish_Sing-EP-WEB-2020-KNOWN
2022-03-27 16:06:53 X264-HD Curly.Sue.1991.720p.WEB.h264-NOMA
2022-03-27 16:07:12 MP3 Blind_Boy_Fuller-Precious_Lord-WEB-2020-TERSE
2022-03-27 16:07:38 FLAC VA-Best_96_Nothin_But_The_Best_Dance_Hits-(AVTCD-95028)-CD-FLAC-1996-WRE
2022-03-27 16:08:41 FLAC VA-Best_98_Nothin_But_The_Best_Dance_Hits-(AVTCD-95152)-CD-FLAC-1998-WRE
2022-03-27 16:08:53 MP3 LeVirya_and_The_Hidden-Quiet_Earth-EP-WEB-2022-KNOWN
2022-03-27 16:09:41 TV-X264 UFC.Fight.Night.205.Blaydes.vs.Daukaus.1080p.HDTV.x264-VERUM
2022-03-27 16:09:43 FLAC William_The_Conqueror-Maverick_Thinker-(BRC6)-CD-FLAC-2021-WRE
2022-03-27 16:10:16 MP3 Balrog-The_Moment_EP-HYDRO129-WEB-2022-WAV
2022-03-27 16:10:37 MP3 Blind_Boy_Fuller-Stingy_Mama-WEB-2019-TERSE
2022-03-27 16:10:45 FLAC VA-100Percent_Hits_The_Best_Of_2009-(5186560732)-2CD-FLAC-2009-WRE
2022-03-27 16:11:38 MP3 LeVirya_x_Padma_Purana_x_Elleodin-Blue_Hour-EP-WEB-2017-KNOWN
2022-03-27 16:11:48 MP3 Bukka_White-Parchman_Farm-WEB-1970-TERSE
2022-03-27 16:12:20 FLAC VA-Blazin_The_Afterparty_2__Mixed_By_DJ_Nino_Brown-(5321627)-2CD-FLAC-2009-WRE
2022-03-27 16:13:55 FLAC VA-Cool_Summer_The_Definitive_Chilled_Out_Soundtrack-(LOLLICD1)-2CD-FLAC-2003-WRE
2022-03-27 16:15:04 MP3 Bukka_White-The_Complete_Bukka_White-WEB-1994-TERSE_INT
2022-03-27 16:16:00 MP3 LeVirya-Midnight_Moon-EP-WEB-2017-KNOWN
2022-03-27 16:16:43 FLAC VA-Damn_Best_Of_2009-(CLDM2009073)-3CD-FLAC-2009-WRE
2022-03-27 16:17:51 MP3 Bukka_White-The_Sonet_Blues_Story-WEB-2005-TERSE
2022-03-27 16:19:12 FLAC Axe-The_Albums_1979-1983-(CLO_2769)-BOXSET-4CD-FLAC-2022-WRE
2022-03-27 16:21:36 FLAC Wim_De_Craene-Integraal-(0602547024107)-BOXSET-8CD-FLAC-2015-WRE
2022-03-27 16:24:30 FLAC Die_3._Generation-Leb-(74321_75343_2)-CDM-FLAC-2000-WRE
2022-03-27 16:25:15 FLAC O.R.G.A.N.-To_The_World-(567_019-2)-CDM-FLAC-1998-WRE
2022-03-27 16:26:02 FLAC Squrl-EP_260-(SBR-179)-CDEP-FLAC-2017-WRE
2022-03-27 16:26:47 FLAC Trance_Opera-Conquest_Of_Paradise__Dance_Mixes-(DST_1290-8)-CDM-FLAC-1994-WRE
2022-03-27 16:28:04 MP3 Damne-New_Era-WL01-WEB-2022-WAV
2022-03-27 16:30:57 TV-X264 Rusted.Armors.S01E12.1080p.WEB.H264-SENPAI
2022-03-27 16:31:26 TV-X264 Futsal.Boys.S01E12.1080p.WEB.H264-SUGOI
2022-03-27 16:33:41 MP3 James_Morrison-A_to_Z_of_Jazz-WEB-2014-TERSE
2022-03-27 16:34:14 TV-SD-DE Seirei.Gensouki.Spirit.Chronicles.E01.Erinnerungen.an.ein.frueheres.Leben.German.ANiME.WEBRiP.X264-MRW
2022-03-27 16:35:11 TV-SD-DE Seirei.Gensouki.Spirit.Chronicles.E02.Koenigliche.Universitaet.German.ANiME.WEBRiP.X264-MRW
2022-03-27 16:36:05 TV-SD-DE Seirei.Gensouki.Spirit.Chronicles.E03.Koenigreich.der.Luegen.German.ANiME.WEBRiP.X264-MRW
2022-03-27 16:36:58 TV-SD-DE Seirei.Gensouki.Spirit.Chronicles.E04.Die.Auftragsmoerderin.German.ANiME.WEBRiP.X264-MRW
2022-03-27 16:37:51 TV-SD-DE Seirei.Gensouki.Spirit.Chronicles.E05.Der.Wald.der.Geister.German.ANiME.WEBRiP.X264-MRW
2022-03-27 16:38:06 MP3 James_Morrison-Chermoula-WEB-2014-TERSE
2022-03-27 16:38:43 TV-SD-DE Seirei.Gensouki.Spirit.Chronicles.E06.Die.Nacht.des.Festivals.German.ANiME.WEBRiP.X264-MRW
2022-03-27 16:39:37 TV-SD-DE Seirei.Gensouki.Spirit.Chronicles.E07.Ort.des.Versprechens.German.ANiME.WEBRiP.X264-MRW
2022-03-27 16:40:30 TV-SD-DE Seirei.Gensouki.Spirit.Chronicles.E08.Koenigliche.Genealogie.German.ANiME.WEBRiP.X264-MRW
2022-03-27 16:41:21 TV-SD-DE Seirei.Gensouki.Spirit.Chronicles.E09.Verschiedene.Entscheidungen.German.ANiME.WEBRiP.X264-MRW
2022-03-27 16:42:14 TV-SD-DE Seirei.Gensouki.Spirit.Chronicles.E10.Erwachen.des.Geistes.German.ANiME.WEBRiP.X264-MRW
2022-03-27 16:43:07 TV-SD-DE Seirei.Gensouki.Spirit.Chronicles.E11.Die.silberne.Braut.German.ANiME.WEBRiP.X264-MRW
2022-03-27 16:43:58 TV-SD-DE Seirei.Gensouki.Spirit.Chronicles.E12.Schicksalhafte.Wiedervereinigung.German.ANiME.WEBRiP.X264-MRW
2022-03-27 16:46:19 TV-HD Becoming.You.S01E01.DV.2160p.WEB.h265-NOMA
2022-03-27 16:46:20 MP3 James_Morrison-James_Morrison_Gospel_Collection_Vol._1-WEB-2006-TERSE
2022-03-27 16:47:11 TV-HD-DE Seirei.Gensouki.Spirit.Chronicles.E01.Erinnerungen.an.ein.frueheres.Leben.German.ANiME.720P.WEBRiP.X264-MRW
2022-03-27 16:48:14 MP3 James_Morrison-Live_At_The_Sydney_Opera_House_(Live)-WEB-2015-TERSE
2022-03-27 16:48:14 TV-HD-DE Seirei.Gensouki.Spirit.Chronicles.E02.Koenigliche.Universitaet.German.ANiME.720P.WEBRiP.X264-MRW
2022-03-27 16:49:13 TV-HD-DE Seirei.Gensouki.Spirit.Chronicles.E03.Koenigreich.der.Luegen.German.ANiME.720P.WEBRiP.X264-MRW
2022-03-27 16:50:16 TV-HD-DE Seirei.Gensouki.Spirit.Chronicles.E04.Die.Auftragsmoerderin.German.ANiME.720P.WEBRiP.X264-MRW
2022-03-27 16:51:18 TV-HD-DE Seirei.Gensouki.Spirit.Chronicles.E05.Der.Wald.der.Geister.German.ANiME.720P.WEBRiP.X264-MRW
2022-03-27 16:51:53 TV-HD Becoming.You.S01E02.DV.2160p.WEB.h265-NOMA
2022-03-27 16:52:20 TV-HD-DE Seirei.Gensouki.Spirit.Chronicles.E06.Die.Nacht.des.Festivals.German.ANiME.720P.WEBRiP.X264-MRW
2022-03-27 16:53:24 TV-HD-DE Seirei.Gensouki.Spirit.Chronicles.E07.Ort.des.Versprechens.German.ANiME.720P.WEBRiP.X264-MRW
2022-03-27 16:54:26 TV-HD-DE Seirei.Gensouki.Spirit.Chronicles.E08.Koenigliche.Genealogie.German.ANiME.720P.WEBRiP.X264-MRW
2022-03-27 16:54:35 MP3 James_Morrison-Manner_Dangerous-WEB-2009-TERSE
2022-03-27 16:55:27 TV-HD-DE Seirei.Gensouki.Spirit.Chronicles.E09.Verschiedene.Entscheidungen.German.ANiME.720P.WEBRiP.X264-MRW
2022-03-27 16:56:27 MP3 Ultra_Music_Festival_2022_-_Whethan_Live_(Miami)-SAT-03-26-2022-TALiON
2022-03-27 16:56:30 TV-HD-DE Seirei.Gensouki.Spirit.Chronicles.E10.Erwachen.des.Geistes.German.ANiME.720P.WEBRiP.X264-MRW
2022-03-27 16:57:27 TV-HD Becoming.You.S01E03.DV.2160p.WEB.h265-NOMA
2022-03-27 16:57:32 TV-HD-DE Seirei.Gensouki.Spirit.Chronicles.E11.Die.silberne.Braut.German.ANiME.720P.WEBRiP.X264-MRW
2022-03-27 16:58:34 TV-HD-DE Seirei.Gensouki.Spirit.Chronicles.E12.Schicksalhafte.Wiedervereinigung.German.ANiME.720P.WEBRiP.X264-MRW
2022-03-27 17:00:10 TV-HD-DE Seirei.Gensouki.Spirit.Chronicles.E01.Erinnerungen.an.ein.frueheres.Leben.German.ANiME.1080P.WebHD.H264-MRW
2022-03-27 17:02:44 TV-HD-DE Seirei.Gensouki.Spirit.Chronicles.E02.Koenigliche.Universitaet.German.ANiME.1080P.WebHD.H264-MRW
2022-03-27 17:03:05 TV-HD Becoming.You.S01E04.DV.2160p.WEB.h265-NOMA
2022-03-27 17:05:15 TV-HD-DE Seirei.Gensouki.Spirit.Chronicles.E03.Koenigreich.der.Luegen.German.ANiME.1080P.WebHD.H264-MRW
2022-03-27 17:07:48 TV-HD-DE Seirei.Gensouki.Spirit.Chronicles.E04.Die.Auftragsmoerderin.German.ANiME.1080P.WebHD.H264-MRW
2022-03-27 17:08:45 TV-HD Becoming.You.S01E05.DV.2160p.WEB.h265-NOMA
2022-03-27 17:10:18 TV-HD-DE Seirei.Gensouki.Spirit.Chronicles.E05.Der.Wald.der.Geister.German.ANiME.1080P.WebHD.H264-MRW
2022-03-27 17:12:53 TV-HD-DE Seirei.Gensouki.Spirit.Chronicles.E06.Die.Nacht.des.Festivals.German.ANiME.1080P.WebHD.H264-MRW
2022-03-27 17:13:04 TV-X264 Formula2.2022.Saudi.Arabian.Grand.Prix.Race.Two.1080p.AHDTV.x264-DARKSPORT
2022-03-27 17:14:25 TV-HD Becoming.You.S01E06.DV.2160p.WEB.h265-NOMA
2022-03-27 17:15:23 TV-HD-DE Seirei.Gensouki.Spirit.Chronicles.E07.Ort.des.Versprechens.German.ANiME.1080P.WebHD.H264-MRW
2022-03-27 17:15:29 MP3 Jay-Z-Hey_Papi-VLS-2000-GCP
2022-03-27 17:17:01 MP3 Kloon--Venom-(HKR0006)-WEB-2022-OMA
2022-03-27 17:17:56 TV-HD-DE Seirei.Gensouki.Spirit.Chronicles.E08.Koenigliche.Genealogie.German.ANiME.1080P.WebHD.H264-MRW
2022-03-27 17:18:37 MP3 Sethrow_and_Kinn--Falling_Down-(DNZF1205)-SINGLE-WEB-2022-OMA
2022-03-27 17:19:10 APPS No.Longer.Home.v1.3.1-rG
2022-03-27 17:19:53 TV-HD Tiny.World.S01E01.DV.2160p.WEB.h265-NOMA
2022-03-27 17:20:03 MP3 Snipes_and_Murf--RunAway-(CR230)-WEB-2022-OMA
2022-03-27 17:20:28 TV-HD-DE Seirei.Gensouki.Spirit.Chronicles.E09.Verschiedene.Entscheidungen.German.ANiME.1080P.WebHD.H264-MRW
2022-03-27 17:23:02 TV-HD-DE Seirei.Gensouki.Spirit.Chronicles.E10.Erwachen.des.Geistes.German.ANiME.1080P.WebHD.H264-MRW
2022-03-27 17:23:14 MP3 Kenshi_Kamaro--Flying_Molotovs-(SSDIGI073)-WEB-2021-BABAS
2022-03-27 17:23:39 MP3 Msolnusic--Muntras_Of_Sound-(LFR022)-WEB-2021-BABAS
2022-03-27 17:25:22 TV-HD Tiny.World.S01E02.DV.2160p.WEB.h265-NOMA
2022-03-27 17:25:33 TV-HD-DE Seirei.Gensouki.Spirit.Chronicles.E11.Die.silberne.Braut.German.ANiME.1080P.WebHD.H264-MRW
2022-03-27 17:26:46 MP3 J.P_Velardi_x_Luis_Del_Vecchio--Dyn-(FA087)-WEB-2021-BABAS
2022-03-27 17:27:12 MP3 Partenaire--Birds_Of_Prey-(SRN015)-WEB-2021-BABAS
2022-03-27 17:28:05 TV-HD-DE Seirei.Gensouki.Spirit.Chronicles.E12.Schicksalhafte.Wiedervereinigung.German.ANiME.1080P.WebHD.H264-MRW
2022-03-27 17:30:51 TV-HD Tiny.World.S01E03.DV.2160p.WEB.h265-NOMA
2022-03-27 17:32:09 MP3 David_Rodigan--BBC_Radio_1Xtra-DVBS-03-27-2022-OMA
2022-03-27 17:32:17 MP3 King_Dream_Chorus_and_Holiday_Crew-King_Holiday-VLS-1986-GCP
2022-03-27 17:32:47 GAMES No_Longer_Home_v1.3.1-Razor1911
2022-03-27 17:34:39 TV-X264 NCIS.Los.Angeles.S13E05.FRENCH.720p.HDTV.x264-OBSTACLE
2022-03-27 17:35:24 0DAY Felt.Tip.Sound.Studio.v4.10.1.MacOS-BTCR
2022-03-27 17:35:37 MP3 James_Morrison-On_The_Edge-WEB-2015-TERSE_INT
2022-03-27 17:36:09 MP3 Scope--Corrode-(SPV003)-WEB-2019-BABAS
2022-03-27 17:36:20 TV-HD Tiny.World.S01E04.DV.2160p.WEB.h265-NOMA
2022-03-27 17:36:23 MP3 James_Morrison-Postcards_From_Downunder-WEB-2008-TERSE
2022-03-27 17:36:36 MP3 Scope--Intrinsic_Factor-(SPV001)-WEB-2018-BABAS_INT
2022-03-27 17:37:01 MP3 Scope--Palimpsest-WEB-2021-BABAS
2022-03-27 17:37:27 MP3 Xanexx--Colliding_Particle-WEB-2019-BABAS
2022-03-27 17:37:53 MP3 Xanexx--Morph-WEB-2020-BABAS
2022-03-27 17:37:58 TV-HD-IT Gli.Ultimi.Giorni.Di.Tolomeo.Grey.S01E04.iTALiAN.720p.WEB.H264-NTROPiC
2022-03-27 17:38:18 MP3 Xanexx--Poem_Of_Light-WEB-2018-BABAS
2022-03-27 17:38:20 MP3 James_Morrison-Quartet-WEB-2009-TERSE
2022-03-27 17:38:23 X265 El.Padrino.Parte.II.1974.SPANiSH.MULTi.2160p.UHD.BluRay.x265-DESPACiTO
2022-03-27 17:40:19 MP3 James_Morrison-Snappy_Too-WEB-2012-TERSE
2022-03-27 17:41:33 MP3 James_Morrison-Snappy_Doo-WEB-2015-TERSE
2022-03-27 17:41:39 BLURAY-FULL The.Godfather.Part.II.1974.REMASTERED.MULTi.COMPLETE.BLURAY-FULLSiZE
2022-03-27 17:41:51 TV-HD Tiny.World.S01E05.DV.2160p.WEB.h265-NOMA
2022-03-27 17:42:57 X264-HD Attention.Attention.2021.DIRFIX.1080p.WEB.H264-KDOC
2022-03-27 17:44:25 MP3 James_Morrison-Threes_Company-WEB-2010-TERSE
2022-03-27 17:45:52 MP3 James_Morrison-Two_The_Max-WEB-2015-TERSE
2022-03-27 17:47:07 TV-HD-IT Gli.Ultimi.Giorni.Di.Tolomeo.Grey.S01E04.iTALiAN.1080p.WEB.H264-NTROPiC
2022-03-27 17:47:20 MP3 Keith_Lockhart-My_Favorite_Things_A_Richard_Rodgers_Celebration-WEB-2002-TERSE
2022-03-27 17:47:21 TV-HD Tiny.World.S01E06.DV.2160p.WEB.h265-NOMA
2022-03-27 17:49:12 MP3 Koko_Taylor-Old_School-WEB-2009-TERSE_INT
2022-03-27 17:52:33 MP3 Heinrich_Dressel--Lurking_Underwater__The_Styx_Swamp-(DS03)-WEB-2022-BABAS
2022-03-27 17:52:52 TV-HD Tiny.World.S02E01.DV.2160p.WEB.h265-NOMA
2022-03-27 17:54:13 MP3 Heinrich_Dressel--Ward_XVIII-(DS02)-WEB-2022-BABAS
2022-03-27 17:54:23 MP3 Memphis_Minnie-Columbia_Original_Masters-WEB-2008-TERSE
2022-03-27 17:56:19 MP3 Craig_Charles--BBC_Radio_6_Funk_and_Soul_Show-DVBS-03-26-2022-OMA
2022-03-27 17:57:36 MP3 Memphis_Minnie-Hoodoo_Lady_(1933-1937)-WEB-1991-TERSE_INT
2022-03-27 17:58:21 TV-HD Tiny.World.S02E02.DV.2160p.WEB.h265-NOMA
2022-03-27 17:59:20 MP3 Memphis_Minnie-Queen_Of_The_Blues-WEB-1997-TERSE_INT
2022-03-27 17:59:38 MP3 Gilles_Peterson--BBC_Radio_6_Music-DVBS-03-26-2022-OMA
2022-03-27 18:01:00 MP3 Regina_Carter-Ella_Accentuate_the_Positive-WEB-2017-TERSE_INT
2022-03-27 18:01:04 MP3 Sindh--Komo-(LLESS027)-WEB-2022-BABAS
2022-03-27 18:02:16 MP3 Regina_Carter-Ill_Be_Seeing_You_A_Sentimental_Journey-WEB-2006-TERSE_INT
2022-03-27 18:02:25 MP3 Jamz_Supernova--BBC_Radio_6_Music-DVBS-03-26-2022-OMA
2022-03-27 18:03:13 TV-HD-IT Gli.Ultimi.Giorni.Di.Tolomeo.Grey.S01E04.iTALiAN.HDR.2160p.WEB.H265-NTROPiC
2022-03-27 18:03:42 BLURAY-FULL The.Godfather.1972.REMASTERED.MULTi.COMPLETE.BLURAY-FULLSiZE
2022-03-27 18:03:44 MP3 Regina_Carter-Motor_City_Moments-WEB-2000-TERSE_INT
2022-03-27 18:03:51 TV-HD Tiny.World.S02E03.DV.2160p.WEB.h265-NOMA
2022-03-27 18:05:18 MP3 Regina_Carter-Reverse_Thread-WEB-2014-TERSE_INT
2022-03-27 18:06:24 MP3 Fana_Hues--Flora_And_Fana-WEB-2022-OMA
2022-03-27 18:06:51 MP3 Regina_Carter-Something_For_Grace-WEB-2010-TERSE_INT
2022-03-27 18:10:33 TV-HD Tiny.World.S02E04.DV.2160p.WEB.h265-NOMA
2022-03-27 18:16:02 TV-HD Tiny.World.S02E05.DV.2160p.WEB.h265-NOMA
2022-03-27 18:16:29 TV-X264 Paddington.Bear.1989.S01E01.1080p.WEB.h264-SKYFiRE
2022-03-27 18:17:02 TV-X264 Paddington.Bear.1989.S01E01.720p.WEB.h264-SKYFiRE
2022-03-27 18:17:36 TV-X264 Paddington.Bear.1989.S01E02.1080p.WEB.h264-SKYFiRE
2022-03-27 18:18:09 TV-X264 Paddington.Bear.1989.S01E03.1080p.WEB.h264-SKYFiRE
2022-03-27 18:18:40 TV-X264 Killing.Eve.S04E05.720p.WEB.h264-GOSSIP
2022-03-27 18:18:44 TV-X264 Paddington.Bear.1989.S01E03.720p.WEB.h264-SKYFiRE
2022-03-27 18:18:46 TV-X264 The.Walking.Dead.S11E14.720p.WEB.h264-GOSSIP
2022-03-27 18:18:52 TV-X264 The.Walking.Dead.S11E13.720p.WEB.h264-GOSSIP
2022-03-27 18:19:05 MP3 Claptone_-_Clapcast_348-CABLE-03-26-2022-TALiON
2022-03-27 18:19:17 TV-X264 Paddington.Bear.1989.S01E04.1080p.WEB.h264-SKYFiRE
2022-03-27 18:19:51 TV-X264 Paddington.Bear.1989.S01E04.720p.WEB.h264-SKYFiRE
2022-03-27 18:20:05 MP3 Don_Diablo_-_Hexagon_Radio_373-CABLE-03-26-2022-TALiON
2022-03-27 18:20:25 TV-X264 Paddington.Bear.1989.S01E05.1080p.WEB.h264-SKYFiRE
2022-03-27 18:20:47 X264-SD-DE Ab.In.Die.Ewigkeit.1981.REMASTERED.GERMAN.DL.BDRIP.X264-WATCHABLE
2022-03-27 18:21:00 TV-X264 Paddington.Bear.1989.S01E05.720p.WEB.h264-SKYFiRE
2022-03-27 18:21:06 MP3 Alok_-_The_Controversia-CABLE-03-26-2022-TALiON
2022-03-27 18:21:27 TV-HD Tiny.World.S02E06.DV.2160p.WEB.h265-NOMA
2022-03-27 18:21:33 TV-X264 Paddington.Bear.1989.S01E06.1080p.WEB.h264-SKYFiRE
2022-03-27 18:22:05 MP3 Fedde_Le_Grand_-_Darklight_Sessions_500-CABLE-03-26-2022-TALiON
2022-03-27 18:22:09 TV-X264 Paddington.Bear.1989.S01E06.720p.WEB.h264-SKYFiRE
2022-03-27 18:22:23 TV-X264 NCIS.Los.Angeles.S13E06.FRENCH.720p.HDTV.x264-OBSTACLE
2022-03-27 18:22:43 TV-X264 Paddington.Bear.1989.S01E07.1080p.WEB.h264-SKYFiRE
2022-03-27 18:23:04 MP3 Martin_Garrix_-_The_Martin_Garrix_Radio_Show_394-CABLE-03-26-2022-TALiON
2022-03-27 18:23:16 TV-X264 Paddington.Bear.1989.S01E07.720p.WEB.h264-SKYFiRE
2022-03-27 18:23:38 TV-HD Ab.In.Die.Ewigkeit.1981.GERMAN.DL.720P.BLURAY.X264-WATCHABLE
2022-03-27 18:23:51 TV-X264 Paddington.Bear.1989.S01E08.1080p.WEB.h264-SKYFiRE
2022-03-27 18:24:04 MP3 Afrojack_-_Jacked_Radio_544-CABLE-03-27-2022-TALiON
2022-03-27 18:24:24 TV-X264 Paddington.Bear.1989.S01E08.720p.WEB.h264-SKYFiRE
2022-03-27 18:24:59 TV-X264 Paddington.Bear.1989.S01E09.1080p.WEB.h264-SKYFiRE
2022-03-27 18:25:32 TV-X264 Paddington.Bear.1989.S01E09.720p.WEB.h264-SKYFiRE
2022-03-27 18:25:33 MP3 Thorsteinn_Einarsson_-_Einarsson-WEB-2022-X570
2022-03-27 18:25:51 MP3 Ultra_Music_Festival_2022_-_Jauz_b2b_NGHTMRE_Live_(Miami)-SAT-03-26-2022-TALiON
2022-03-27 18:26:05 TV-X264 Paddington.Bear.1989.S01E10.1080p.WEB.h264-SKYFiRE
2022-03-27 18:26:39 TV-X264 Paddington.Bear.1989.S01E10.720p.WEB.h264-SKYFiRE
2022-03-27 18:26:42 TV-HD Ab.In.Die.Ewigkeit.1981.GERMAN.DL.1080P.BLURAY.X264-WATCHABLE
2022-03-27 18:26:56 TV-HD Earth.at.Night.in.Color.S01E01.DV.2160p.WEB.h265-NOMA
2022-03-27 18:27:14 TV-X264 Paddington.Bear.1989.S01E11.1080p.WEB.h264-SKYFiRE
2022-03-27 18:27:47 TV-X264 Paddington.Bear.1989.S01E11.720p.WEB.h264-SKYFiRE
2022-03-27 18:28:21 TV-X264 Paddington.Bear.1989.S01E12.1080p.WEB.h264-SKYFiRE
2022-03-27 18:28:55 TV-X264 Paddington.Bear.1989.S01E12.720p.WEB.h264-SKYFiRE
2022-03-27 18:29:27 TV-HD-FR Hudson.and.Rex.S03E12.FRENCH.720p.WEB.H264-FREAMON
2022-03-27 18:29:28 TV-X264 Paddington.Bear.1989.S01E13.1080p.WEB.h264-SKYFiRE
2022-03-27 18:30:01 TV-X264 Paddington.Bear.1989.S01E13.720p.WEB.h264-SKYFiRE
2022-03-27 18:30:15 TV-SD-FR Hudson.and.Rex.S03E12.FRENCH.WEB.H264-FREAMON
2022-03-27 18:32:19 TV-HD Earth.at.Night.in.Color.S01E02.DV.2160p.WEB.h265-NOMA
2022-03-27 18:37:46 TV-HD Earth.at.Night.in.Color.S01E03.DV.2160p.WEB.h265-NOMA
2022-03-27 18:43:11 TV-HD Earth.at.Night.in.Color.S01E04.DV.2160p.WEB.h265-NOMA
2022-03-27 18:45:08 TV-HD-DE Shining.Vale.S01E05.German.DL.720p.WEB.h264-WvF
2022-03-27 18:46:03 TV-HD-DE Love.Life.S02E02.German.DL.720p.WEB.h264-WvF
2022-03-27 18:46:50 TV-HD-DE Power.Book.IV.Force.S01E08.German.DL.720p.WEB.h264-WvF
2022-03-27 18:48:02 TV-HD-DE Clarice.Starling.Das.Erwachen.der.Laemmer.S01E06.German.1080p.WEB.x264-WvF
2022-03-27 18:48:37 TV-HD Earth.at.Night.in.Color.S01E05.DV.2160p.WEB.h265-NOMA
2022-03-27 18:48:49 TV-HD-DE Clarice.Starling.Das.Erwachen.der.Laemmer.S01E07.German.1080p.WEB.x264-WvF
2022-03-27 18:49:40 TV-HD-DE Camps.for.Future.S01E05.German.1080p.WEB.x264-WvF
2022-03-27 18:50:25 TV-HD-DE Camps.for.Future.S01E06.German.1080p.WEB.x264-WvF
2022-03-27 18:51:26 TV-HD-DE WeCrashed.S01E04.German.DL.HDR.2160p.WEB.h265-W4K
2022-03-27 18:52:13 TV-HD-DE Pachinko.Ein.einfaches.Leben.S01E02.German.DL.HDR.2160p.WEB.h265-W4K
2022-03-27 18:53:09 TV-HD-DE Love.Life.S02E02.German.DUBBED.DL.2160p.WEB.h265-W4K
2022-03-27 18:53:55 TV-HD-DE Power.Book.IV.Force.S01E08.German.DUBBED.DL.2160p.WEB.h265-W4K
2022-03-27 18:54:07 TV-HD Earth.at.Night.in.Color.S01E06.DV.2160p.WEB.h265-NOMA
2022-03-27 18:59:34 TV-HD Earth.at.Night.in.Color.S02E01.DV.2160p.WEB.h265-NOMA
2022-03-27 19:05:22 TV-HD Earth.at.Night.in.Color.S02E02.DV.2160p.WEB.h265-NOMA
2022-03-27 19:10:47 TV-HD Earth.at.Night.in.Color.S02E03.DV.2160p.WEB.h265-NOMA
2022-03-27 19:11:37 MDVDR Ozric.Tentacles.Travelling.The.Great.Circle.2022.NTSC.DiRFiX.BONUS.DVD9.MDVDR-agw
2022-03-27 19:12:55 ABOOKS Faith-The_Van_Helsing_Chronicles_-_Folge_62_Vogelscheuchen_Im_Blutrausch-AUDIOBOOK-WEB-DE-2022-KIDDXX
2022-03-27 19:14:18 X264-HD-DE Kinsey.Die.Wahrheit.ueber.Sex.2004.GERMAN.DL.720p.WEB.H264-ETM
2022-03-27 19:15:23 ABOOKS Kuesten-Krimi_-_Folge_9_Schattenstrand_Teil_2-AUDIOBOOK-WEB-DE-2022-KIDDXX
2022-03-27 19:16:19 TV-HD Earth.at.Night.in.Color.S02E04.DV.2160p.WEB.h265-NOMA
2022-03-27 19:19:46 TV-X264 Kinsey.2004.720p.WEB.H264-RUSTED
2022-03-27 19:21:43 TV-HD Earth.at.Night.in.Color.S02E05.DV.2160p.WEB.h265-NOMA
2022-03-27 19:25:09 TV-HD-DE Camps.for.Future.S01E05.GERMAN.720P.WEB.X264-WAYNE
2022-03-27 19:25:23 TV-X264 NHL.2022.03.26.Carolina.Hurricanes.vs.St.Louis.Blues.720p.WEB.h264-SPORTSNET
2022-03-27 19:25:52 TV-HD-DE Camps.for.Future.S01E06.GERMAN.720P.WEB.X264-WAYNE
2022-03-27 19:27:15 TV-X265 Earth.at.Night.in.Color.S02E06.DV.2160p.WEB.h265-NOMA
2022-03-27 19:28:00 TV-X264 800.Meters.S01E01.1080p.WEB.h264-KOGi
2022-03-27 19:28:42 TV-X264 800.Meters.S01E01.720p.WEB.h264-KOGi
2022-03-27 19:29:27 TV-X264 800.Meters.S01E02.1080p.WEB.h264-KOGi
2022-03-27 19:29:58 TV-X264 Formule1.2022.GP02.Saoedi-Arabie.Kwalificatie.DUTCH.1080p.HDTV.x264-DTOD
2022-03-27 19:30:10 TV-X264 800.Meters.S01E02.720p.WEB.h264-KOGi
2022-03-27 19:30:49 TV-X264 800.Meters.S01E03.1080p.WEB.h264-KOGi
2022-03-27 19:31:28 TV-X264 800.Meters.S01E03.720p.WEB.h264-KOGi
2022-03-27 19:32:11 TV-X264 Somebody.Feed.Phil.S02E01.1080p.WEB.h264-NOMA
2022-03-27 19:32:40 TV-HD Dreamer.2005.1080p.BluRay.x264-VETO
2022-03-27 19:32:53 TV-X264 Somebody.Feed.Phil.S02E01.720p.WEB.h264-NOMA
2022-03-27 19:33:38 MP3 Majestic-Kiss-DAB-03-25-2022-z0ne
2022-03-27 19:33:43 TV-X264 Somebody.Feed.Phil.S02E02.1080p.WEB.h264-NOMA
2022-03-27 19:34:23 TV-HD-DE Die.Welt.in.den.Farben.der.Nacht.S02E01.GERMAN.DL.DOKU.1080P.WEB.H264-WAYNE
2022-03-27 19:34:25 TV-X264 Dreamer.2005.720p.BluRay.x264-VETO
2022-03-27 19:34:30 TV-X264 Somebody.Feed.Phil.S02E02.720p.WEB.h264-NOMA
2022-03-27 19:35:05 TV-HD-DE Die.Welt.in.den.Farben.der.Nacht.S02E01.GERMAN.DL.DOKU.720P.WEB.H264-WAYNE
2022-03-27 19:35:14 TV-X264 Somebody.Feed.Phil.S02E03.1080p.WEB.h264-NOMA
2022-03-27 19:35:41 TV-HD-FR Sasaki.to.Miyano.E12.FiNAL.SUBFRENCH.1080p.WEB.H264-AMB3R
2022-03-27 19:35:49 TV-HD-DE Die.Welt.in.den.Farben.der.Nacht.S02E02.GERMAN.DL.DOKU.1080P.WEB.H264-WAYNE
2022-03-27 19:35:52 BLURAY-FULL Dreamer.2005.COMPLETE.BLURAY-BDA
2022-03-27 19:35:53 TV-X264 Somebody.Feed.Phil.S02E03.720p.WEB.h264-NOMA
2022-03-27 19:36:32 TV-HD-DE Die.Welt.in.den.Farben.der.Nacht.S02E02.GERMAN.DL.DOKU.720P.WEB.H264-WAYNE
2022-03-27 19:36:39 TV-X264 Somebody.Feed.Phil.S02E04.1080p.WEB.h264-NOMA
2022-03-27 19:37:07 MP3 Dan_Rivens_-_Knockout-SINGLE-WEB-2022-ZzZz
2022-03-27 19:37:16 TV-HD-DE Die.Welt.in.den.Farben.der.Nacht.S02E03.GERMAN.DL.DOKU.1080P.WEB.H264-WAYNE
2022-03-27 19:37:31 TV-X264 Somebody.Feed.Phil.S02E04.720p.WEB.h264-NOMA
2022-03-27 19:38:00 TV-HD-DE Die.Welt.in.den.Farben.der.Nacht.S02E03.GERMAN.DL.DOKU.720P.WEB.H264-WAYNE
2022-03-27 19:38:17 BLURAY-FULL Happy.Birthday.To.Me.1981.MULTI.COMPLETE.BLURAY-HYPNOKROETE
2022-03-27 19:38:17 TV-X264 Somebody.Feed.Phil.S02E05.1080p.WEB.h264-NOMA
2022-03-27 19:38:44 TV-HD-DE Die.Welt.in.den.Farben.der.Nacht.S02E04.GERMAN.DL.DOKU.1080P.WEB.H264-WAYNE
2022-03-27 19:38:58 TV-X264 Somebody.Feed.Phil.S02E05.720p.WEB.h264-NOMA
2022-03-27 19:39:10 GAMES X4_Foundations_Tides_of_Avarice_Linux-Razor1911
2022-03-27 19:39:29 TV-HD-DE Die.Welt.in.den.Farben.der.Nacht.S02E04.GERMAN.DL.DOKU.720P.WEB.H264-WAYNE
2022-03-27 19:39:57 TV-X264 Somebody.Feed.Phil.S02E06.1080p.WEB.h264-NOMA
2022-03-27 19:40:14 TV-HD-DE Die.Welt.in.den.Farben.der.Nacht.S02E05.GERMAN.DL.DOKU.1080P.WEB.H264-WAYNE
2022-03-27 19:40:43 TV-X264 Somebody.Feed.Phil.S02E06.720p.WEB.h264-NOMA
2022-03-27 19:40:55 TV-HD-DE Die.Welt.in.den.Farben.der.Nacht.S02E05.GERMAN.DL.DOKU.720P.WEB.H264-WAYNE
2022-03-27 19:41:28 TV-X264 Mad.Love.1995.720p.WEB.H264-RUSTED
2022-03-27 19:41:30 TV-X264 The.Great.Robbery.of.Brazils.Central.Bank.S01E01.1080p.WEB.h264-KOGi
2022-03-27 19:41:39 TV-HD-DE Die.Welt.in.den.Farben.der.Nacht.S02E06.GERMAN.DL.DOKU.1080P.WEB.H264-WAYNE
2022-03-27 19:42:10 TV-X264 The.Great.Robbery.of.Brazils.Central.Bank.S01E01.720p.WEB.h264-KOGi
2022-03-27 19:42:19 TV-HD-DE Die.Welt.in.den.Farben.der.Nacht.S02E06.GERMAN.DL.DOKU.720P.WEB.H264-WAYNE
2022-03-27 19:42:55 TV-X264 The.Great.Robbery.of.Brazils.Central.Bank.S01E02.1080p.WEB.h264-KOGi
2022-03-27 19:43:34 TV-X264 The.Great.Robbery.of.Brazils.Central.Bank.S01E02.720p.WEB.h264-KOGi
2022-03-27 19:44:10 TV-X264 Strange.Magic.2015.720p.WEB.H264-RUSTED
2022-03-27 19:44:17 TV-X264 The.Great.Robbery.of.Brazils.Central.Bank.S01E03.1080p.WEB.h264-KOGi
2022-03-27 19:44:57 TV-X264 The.Great.Robbery.of.Brazils.Central.Bank.S01E03.720p.WEB.h264-KOGi
2022-03-27 19:49:45 TV-HD The.Walking.Dead.S11E15.PROPER.1080p.WEB.h264-KOGi
2022-03-27 19:55:04 MP3 Ultra_Music_Festival_2022_-_John_Summit_Live_(Miami)-SAT-03-26-2022-TALiON
2022-03-27 19:55:21 ANIME How.Heavy.Are.the.Dumbbells.You.Lift.E05.Was.machst.du.beim.Sportfest.German.2019.ANiME.DL.1080p.BluRay.x264-STARS
2022-03-27 19:55:50 ANIME How.Heavy.Are.the.Dumbbells.You.Lift.E05.Was.machst.du.beim.Sportfest.German.2019.ANiME.DL.720p.BluRay.x264-STARS
2022-03-27 19:56:19 TV-SD-DE How.Heavy.Are.the.Dumbbells.You.Lift.E05.Was.machst.du.beim.Sportfest.German.2019.ANiME.DL.BDRiP.x264-STARS
2022-03-27 19:56:47 ANIME How.Heavy.Are.the.Dumbbells.You.Lift.E06.Lust.auf.eine.neue.Rivalin.German.2019.ANiME.DL.1080p.BluRay.x264-STARS
2022-03-27 19:57:14 ANIME How.Heavy.Are.the.Dumbbells.You.Lift.E06.Lust.auf.eine.neue.Rivalin.German.2019.ANiME.DL.720p.BluRay.x264-STARS
2022-03-27 19:57:25 MP3 Pitilim_-_Flow-(29TRANCE00067)-WEB-2022-ZzZz
2022-03-27 19:57:42 TV-SD-DE How.Heavy.Are.the.Dumbbells.You.Lift.E06.Lust.auf.eine.neue.Rivalin.German.2019.ANiME.DL.BDRiP.x264-STARS
2022-03-27 19:58:11 ANIME How.Heavy.Are.the.Dumbbells.You.Lift.E07.Willst.du.Idol.werden.German.2019.ANiME.DL.1080p.BluRay.x264-STARS
2022-03-27 19:58:39 ANIME How.Heavy.Are.the.Dumbbells.You.Lift.E07.Willst.du.Idol.werden.German.2019.ANiME.DL.720p.BluRay.x264-STARS
2022-03-27 19:59:06 TV-SD-DE How.Heavy.Are.the.Dumbbells.You.Lift.E07.Willst.du.Idol.werden.German.2019.ANiME.DL.BDRiP.x264-STARS
2022-03-27 19:59:33 ANIME How.Heavy.Are.the.Dumbbells.You.Lift.E08.Was.wenn.wir.uns.verlaufen.German.2019.ANiME.DL.1080p.BluRay.x264-STARS
2022-03-27 20:00:00 ANIME How.Heavy.Are.the.Dumbbells.You.Lift.E08.Was.wenn.wir.uns.verlaufen.German.2019.ANiME.DL.720p.BluRay.x264-STARS
2022-03-27 20:00:27 TV-SD-DE How.Heavy.Are.the.Dumbbells.You.Lift.E08.Was.wenn.wir.uns.verlaufen.German.2019.ANiME.DL.BDRiP.x264-STARS
2022-03-27 20:00:44 MP3 Adam_Ferrer_-_Atmosphere-(MDG011)-WEB-2022-ZzZz
2022-03-27 20:00:55 ANIME How.Heavy.Are.the.Dumbbells.You.Lift.E09.Schon.mal.einen.Gott.gesehen.German.2019.ANiME.DL.1080p.BluRay.x264-STARS
2022-03-27 20:01:22 ANIME How.Heavy.Are.the.Dumbbells.You.Lift.E09.Schon.mal.einen.Gott.gesehen.German.2019.ANiME.DL.720p.BluRay.x264-STARS
2022-03-27 20:01:50 TV-SD-DE How.Heavy.Are.the.Dumbbells.You.Lift.E09.Schon.mal.einen.Gott.gesehen.German.2019.ANiME.DL.BDRiP.x264-STARS
2022-03-27 20:02:17 ANIME How.Heavy.Are.the.Dumbbells.You.Lift.E10.Magst.du.Weihnachten.German.2019.ANiME.DL.1080p.BluRay.x264-STARS
2022-03-27 20:02:44 ANIME How.Heavy.Are.the.Dumbbells.You.Lift.E10.Magst.du.Weihnachten.German.2019.ANiME.DL.720p.BluRay.x264-STARS
2022-03-27 20:03:12 TV-SD-DE How.Heavy.Are.the.Dumbbells.You.Lift.E10.Magst.du.Weihnachten.German.2019.ANiME.DL.BDRiP.x264-STARS
2022-03-27 20:03:39 ANIME How.Heavy.Are.the.Dumbbells.You.Lift.E11.Was.machst.du.an.Silvester.German.2019.ANiME.DL.1080p.BluRay.x264-STARS
2022-03-27 20:03:44 MP3 Kyothough_-_Cumulonimbus_(Kyoko)-(RRRNEW109)-WEB-2022-ZzZz
2022-03-27 20:04:06 ANIME How.Heavy.Are.the.Dumbbells.You.Lift.E11.Was.machst.du.an.Silvester.German.2019.ANiME.DL.720p.BluRay.x264-STARS
2022-03-27 20:04:33 TV-SD-DE How.Heavy.Are.the.Dumbbells.You.Lift.E11.Was.machst.du.an.Silvester.German.2019.ANiME.DL.BDRiP.x264-STARS
2022-03-27 20:05:01 ANIME How.Heavy.Are.the.Dumbbells.You.Lift.E12.Wie.schwer.ist.deine.Langhantel.German.2019.ANiME.DL.1080p.BluRay.x264-STARS
2022-03-27 20:05:28 ANIME How.Heavy.Are.the.Dumbbells.You.Lift.E12.Wie.schwer.ist.deine.Langhantel.German.2019.ANiME.DL.720p.BluRay.x264-STARS
2022-03-27 20:05:55 TV-SD-DE How.Heavy.Are.the.Dumbbells.You.Lift.E12.Wie.schwer.ist.deine.Langhantel.German.2019.ANiME.DL.BDRiP.x264-STARS
2022-03-27 20:07:09 TV-HD-DE Familie.Fox.Die.Geheimnishueter.S01E01.GERMAN.720p.WEB.H264-RWP
2022-03-27 20:07:37 TV-HD-DE Familie.Fox.Die.Geheimnishueter.S01E01.GERMAN.1080p.WEB.H264-RWP
2022-03-27 20:08:03 MP3 Archer-Desire-EP-WEB-2017-KNOWN
2022-03-27 20:08:09 TV-HD-DE Familie.Fox.Die.Geheimnishueter.S02E01.GERMAN.720p.WEB.H264-RWP
2022-03-27 20:08:40 TV-HD-DE Familie.Fox.Die.Geheimnishueter.S02E01.GERMAN.1080p.WEB.H264-RWP
2022-03-27 20:08:44 MP3 Lasthour_-_Simple_Future-(57321)-SINGLE-WEB-2022-ZzZz
2022-03-27 20:08:59 ANIME How.Heavy.Are.the.Dumbbells.You.Lift.BONUS1.Die.Gnadenlose.Trainingsstunde.Teil.1.German.2019.ANiME.DL.1080p.BluRay.x264-STARS
2022-03-27 20:09:34 ANIME How.Heavy.Are.the.Dumbbells.You.Lift.BONUS1.Die.Gnadenlose.Trainingsstunde.Teil.1.German.2019.ANiME.DL.720p.BluRay.x264-STARS
2022-03-27 20:10:05 X264-SD-DE How.Heavy.Are.the.Dumbbells.You.Lift.BONUS1.Die.Gnadenlose.Trainingsstunde.Teil.1.German.2019.ANiME.DL.BDRiP.x264-STARS
2022-03-27 20:10:34 ANIME How.Heavy.Are.the.Dumbbells.You.Lift.BONUS2.Die.Gnadenlose.Trainingsstunde.Teil.2.German.2019.ANiME.DL.1080p.BluRay.x264-STARS
2022-03-27 20:10:47 MP3 Fdluxx-Half_Awake-(ABR074)-WEB-2020-KNOWN
2022-03-27 20:11:03 ANIME How.Heavy.Are.the.Dumbbells.You.Lift.BONUS2.Die.Gnadenlose.Trainingsstunde.Teil.2.German.2019.ANiME.DL.720p.BluRay.x264-STARS
2022-03-27 20:11:32 X264-SD-DE How.Heavy.Are.the.Dumbbells.You.Lift.BONUS2.Die.Gnadenlose.Trainingsstunde.Teil.2.German.2019.ANiME.DL.BDRiP.x264-STARS
2022-03-27 20:12:04 MP3 Twinspin_-_P.L.U.R._(2022_Vocal_Mix)-(5059950784961)-SINGLE-WEB-2022-ZzZz
2022-03-27 20:12:28 ANIME Harukana.Receive.E07.Wir.sind.doch.laengst.Freunde.German.2018.ANiME.DL.1080p.BluRay.x264-STARS
2022-03-27 20:12:56 ANIME Harukana.Receive.E07.Wir.sind.doch.laengst.Freunde.German.2018.ANiME.DL.720p.BluRay.x264-STARS
2022-03-27 20:13:24 TV-SD-DE Harukana.Receive.E07.Wir.sind.doch.laengst.Freunde.German.2018.ANiME.DL.BDRiP.x264-STARS
2022-03-27 20:13:47 MP3 Inf_and_Niceandfuzzy-Book_of_Travels-(ABR080)-WEB-2021-KNOWN
2022-03-27 20:13:51 ANIME Harukana.Receive.E08.Ich.werde.unser.versprechen.halten.German.2018.ANiME.DL.1080p.BluRay.x264-STARS
2022-03-27 20:14:17 ANIME Harukana.Receive.E08.Ich.werde.unser.versprechen.halten.German.2018.ANiME.DL.720p.BluRay.x264-STARS
2022-03-27 20:14:45 TV-SD-DE Harukana.Receive.E08.Ich.werde.unser.versprechen.halten.German.2018.ANiME.DL.BDRiP.x264-STARS
2022-03-27 20:14:59 TV-X264 NWSL.2022.03.25.Chicago.Red.Stars.vs.Kansas.City.Current.720p.WEB.h264-ULTRAS
2022-03-27 20:15:12 ANIME Harukana.Receive.E09.Das.sind.meine.Gefuehle.German.2018.ANiME.DL.1080p.BluRay.x264-STARS
2022-03-27 20:15:35 MP3 VA-Hip-Hop_No_Words-WEB-2019-KNOWN
2022-03-27 20:15:36 MP3 Micky_Stardust_-_Trance_For_Lovers-(5059950818611)-SINGLE-WEB-2022-ZzZz
2022-03-27 20:15:40 ANIME Harukana.Receive.E09.Das.sind.meine.Gefuehle.German.2018.ANiME.DL.720p.BluRay.x264-STARS
2022-03-27 20:16:06 TV-SD-DE Harukana.Receive.E09.Das.sind.meine.Gefuehle.German.2018.ANiME.DL.BDRiP.x264-STARS
2022-03-27 20:16:20 TV-X264 NWSL.2022.03.25.Racing.Louisville.FC.vs.Houston.Dash.720p.WEB.h264-ULTRAS
2022-03-27 20:16:33 ANIME Harukana.Receive.E10.Genau.dagegen.wollte.ich.antreten.German.2018.ANiME.DL.1080p.BluRay.x264-STARS
2022-03-27 20:17:00 ANIME Harukana.Receive.E10.Genau.dagegen.wollte.ich.antreten.German.2018.ANiME.DL.720p.BluRay.x264-STARS
2022-03-27 20:17:17 TV-X264 NWSL.2022.03.25.Washington.Spirit.vs.NJ-NY.Gotham.FC.720p.WEB.h264-ULTRAS
2022-03-27 20:17:27 TV-SD-DE Harukana.Receive.E10.Genau.dagegen.wollte.ich.antreten.German.2018.ANiME.DL.BDRiP.x264-STARS
2022-03-27 20:17:54 ANIME Harukana.Receive.E11.Ab.jetzt.wird.es.ein.offener.Schlagabtausch.German.2018.ANiME.DL.1080p.BluRay.x264-STARS
2022-03-27 20:18:16 TV-X264 NWSL.2022.03.26.Angel.City.FC.vs.OL.Reign.720p.WEB.h264-ULTRAS
2022-03-27 20:18:21 ANIME Harukana.Receive.E11.Ab.jetzt.wird.es.ein.offener.Schlagabtausch.German.2018.ANiME.DL.720p.BluRay.x264-STARS
2022-03-27 20:18:29 MP3 URBAN_OWL_-_Where_You_Wanna_Go-(OWL003EP)-WEB-2022-ZzZz
2022-03-27 20:18:48 TV-SD-DE Harukana.Receive.E11.Ab.jetzt.wird.es.ein.offener.Schlagabtausch.German.2018.ANiME.DL.BDRiP.x264-STARS
2022-03-27 20:19:15 ANIME Harukana.Receive.E12.Genau.deswegen.waehlen.wir.einen.unersetzlichen.Partner.German.2018.ANiME.DL.1080p.BluRay.x264-STARS
2022-03-27 20:19:15 MBLURAY Soundstage.Presents.The.Summit.The.Manhattan.Transfer.And.Take.6.2017.1080p.MBluRay.x264-TREBLE
2022-03-27 20:19:42 ANIME Harukana.Receive.E12.Genau.deswegen.waehlen.wir.einen.unersetzlichen.Partner.German.2018.ANiME.DL.720p.BluRay.x264-STARS
2022-03-27 20:20:09 TV-SD-DE Harukana.Receive.E12.Genau.deswegen.waehlen.wir.einen.unersetzlichen.Partner.German.2018.ANiME.DL.BDRiP.x264-STARS
2022-03-27 20:20:36 TV-HD-DE One.Piece.E0910.Ein.legendaerer.Samurai.Der.Mann.den.Roger.bewunderte.German.AC3D.ANiME.DL.1080p.BluRay.REPACK.x264-STARS
2022-03-27 20:20:51 TV-X264 NWSL.2022.03.26.North.Carolina.Courage.vs.Orlando.Pride.720p.WEB.h264-ULTRAS
2022-03-27 20:21:02 TV-HD-DE One.Piece.E0910.Ein.legendaerer.Samurai.Der.Mann.den.Roger.bewunderte.German.AC3D.ANiME.DL.720p.BluRay.REPACK.x264-STARS
2022-03-27 20:21:30 TV-SD-DE One.Piece.E0910.Ein.legendaerer.Samurai.Der.Mann.den.Roger.bewunderte.German.AC3D.ANiME.DL.BDRiP.REPACK.x264-STARS
2022-03-27 20:21:58 ANIME One.Piece.E0911.Sturz.eines.Kaisers.der.Meere.Die.geheime.Ueberfalloperation.beginnt.German.AC3D.ANiME.DL.1080p.BluRay.x264-STARS
2022-03-27 20:22:07 MP3 Basscontroll_-_This_Pill_EP-(BC0026)-WEB-2022-ZzZz
2022-03-27 20:22:24 TV-X264 NWSL.2022.03.26.San.Diego.Wave.FC.vs.Portland.Thorns.FC.720p.WEB.h264-ULTRAS
2022-03-27 20:22:34 MBLURAY Soundstage.Presents.The.Summit.The.Manhattan.Transfer.And.Take.6.2017.720p.MBluRay.x264-TREBLE
2022-03-27 20:22:40 ANIME One.Piece.E0911.Sturz.eines.Kaisers.der.Meere.Die.geheime.Ueberfalloperation.beginnt.German.AC3D.ANiME.DL.720p.BluRay.x264-STARS
2022-03-27 20:23:06 TV-SD-DE One.Piece.E0911.Sturz.eines.Kaisers.der.Meere.Die.geheime.Ueberfalloperation.beginnt.German.AC3D.ANiME.DL.BDRiP.x264-STARS
2022-03-27 20:23:32 ANIME One.Piece.E0912.Der.staerkste.Mann.Shutenmaru.der.Anfuehrer.der.Diebesbande.German.AC3D.ANiME.DL.1080p.BluRay.x264-STARS
2022-03-27 20:24:00 ANIME One.Piece.E0912.Der.staerkste.Mann.Shutenmaru.der.Anfuehrer.der.Diebesbande.German.AC3D.ANiME.DL.720p.BluRay.x264-STARS
2022-03-27 20:24:28 TV-SD-DE One.Piece.E0912.Der.staerkste.Mann.Shutenmaru.der.Anfuehrer.der.Diebesbande.German.AC3D.ANiME.DL.BDRiP.x264-STARS
2022-03-27 20:24:38 TV-HD-NORD Mastarnas.Mastare.S14E03.SWEDiSH.720p.WEB.h264-NORUSH
2022-03-27 20:24:46 MP3 MJSM_-_All_Eyes_Forward-(YR1777)-SINGLE-WEB-2022-ZzZz
2022-03-27 20:24:53 ANIME One.Piece.E0913.Auf.einen.Schlag.Kaidos.lodernder.Flammenatem.German.AC3D.ANiME.DL.1080p.BluRay.x264-STARS
2022-03-27 20:24:57 TV-HD-NORD Mastarnas.Mastare.S14E03.SWEDiSH.1080p.WEB.h264-NORUSH
2022-03-27 20:25:12 MBLURAY Soundstage.Presents.The.Summit.The.Manhattan.Transfer.And.Take.6.2017.COMPLETE.MBLURAY-MIDDLE
2022-03-27 20:25:21 ANIME One.Piece.E0913.Auf.einen.Schlag.Kaidos.lodernder.Flammenatem.German.AC3D.ANiME.DL.720p.BluRay.x264-STARS
2022-03-27 20:25:47 TV-SD-DE One.Piece.E0913.Auf.einen.Schlag.Kaidos.lodernder.Flammenatem.German.AC3D.ANiME.DL.BDRiP.x264-STARS
2022-03-27 20:26:13 ANIME One.Piece.E0914.Ein.gnadenloser.Kampf.Ruffy.gegen.Kaido.German.AC3D.ANiME.DL.1080p.BluRay.x264-STARS
2022-03-27 20:26:40 ANIME One.Piece.E0914.Ein.gnadenloser.Kampf.Ruffy.gegen.Kaido.German.AC3D.ANiME.DL.720p.BluRay.x264-STARS
2022-03-27 20:27:02 XXX Anal.Models.10.XXX.DVDRip.x264-CiCXXX
2022-03-27 20:27:06 TV-SD-DE One.Piece.E0914.Ein.gnadenloser.Kampf.Ruffy.gegen.Kaido.German.AC3D.ANiME.DL.BDRiP.x264-STARS
2022-03-27 20:27:34 ANIME One.Piece.E0915.Ueberwaeltigende.Macht.Der.vernichtende.Bagua.Donnerschlag.German.AC3D.ANiME.DL.1080p.BluRay.x264-STARS
2022-03-27 20:27:58 TV-X264 NHL.2022.03.26.Vancouver.Canucks.vs.Dallas.Stars.720p.WEB.h264-SPORTSNET
2022-03-27 20:27:59 ANIME One.Piece.E0915.Ueberwaeltigende.Macht.Der.vernichtende.Bagua.Donnerschlag.German.AC3D.ANiME.DL.720p.BluRay.x264-STARS
2022-03-27 20:28:20 MP3 Criostasis_and_Space_Raven_-_Reign_Of_Fire-(FDR025)-WEB-2022-L4M
2022-03-27 20:28:29 TV-SD-DE One.Piece.E0915.Ueberwaeltigende.Macht.Der.vernichtende.Bagua.Donnerschlag.German.AC3D.ANiME.DL.BDRiP.x264-STARS
2022-03-27 20:28:33 XXX Views.2.XXX.DVDRip.x264-CiCXXX
2022-03-27 20:28:52 TV-X264 Worlds.Funniest.Animals.S02E15.1080p.WEB.h264-KOGi
2022-03-27 20:30:41 XXX True.Milf.6.XXX.DVDRip.x264-CiCXXX
2022-03-27 20:31:04 FLAC DJ_Sakin_And_Friends-Miami_The_Remixes-(Dose072r)-VINYL-FLAC-2001-STAX
2022-03-27 20:33:14 FLAC Fenyan_And_Kosmo_Kint-Da_Real_EP-(TOYT119)-VINYL-FLAC-2021-STAX
2022-03-27 20:35:18 FLAC Garfield_Fleming-Dont_Send_Me_Away_You_Got_Dat_Right-(BKD505)-VINYL-FLAC-2019-STAX
2022-03-27 20:35:37 TV-HD-DE Familie.Fox.Die.Geheimnishueter.S01E02.GERMAN.720p.WEB.H264-RWP
2022-03-27 20:35:56 TV-X264 Drag.Race.Espana.S02E01.1080p.WEB.h264-SECRETOS
2022-03-27 20:36:59 TV-X264 Drag.Race.Espana.S02E01.720p.WEB.h264-SECRETOS
2022-03-27 20:37:04 TV-HD-DE Familie.Fox.Die.Geheimnishueter.S01E03.GERMAN.720p.WEB.H264-RWP
2022-03-27 20:37:21 FLAC Grossmann_And_Spranger-Der_Abschied__Au_Revoir_Lolita-WHITELABEL-VINYL-FLAC-2002-STAX
2022-03-27 20:38:02 TV-SD Drag.Race.Espana.S02E01.WEB.h264-SECRETOS
2022-03-27 20:39:28 FLAC Jfff_Mills-The_Directors_Cut_Chapter_6-(AX084DC)-VINYL-FLAC-2019-STAX
2022-03-27 20:42:18 TV-HD-DE Familie.Fox.Die.Geheimnishueter.S01E04.GERMAN.720p.WEB.H264-RWP
2022-03-27 20:43:13 TV-HD-DE Familie.Fox.Die.Geheimnishueter.S01E05.GERMAN.720p.WEB.H264-RWP
2022-03-27 20:44:09 TV-HD-DE Familie.Fox.Die.Geheimnishueter.S01E06.GERMAN.720p.WEB.H264-RWP
2022-03-27 20:45:03 TV-HD-DE Familie.Fox.Die.Geheimnishueter.S01E07.GERMAN.720p.WEB.H264-RWP
2022-03-27 20:45:56 TV-HD-DE Familie.Fox.Die.Geheimnishueter.S01E08.GERMAN.720p.WEB.H264-RWP
2022-03-27 20:46:51 TV-HD-DE Familie.Fox.Die.Geheimnishueter.S01E09.GERMAN.720p.WEB.H264-RWP
2022-03-27 20:47:46 TV-HD-DE Familie.Fox.Die.Geheimnishueter.S01E10.GERMAN.720p.WEB.H264-RWP
2022-03-27 20:48:40 TV-HD-DE Familie.Fox.Die.Geheimnishueter.S01E11.GERMAN.720p.WEB.H264-RWP
2022-03-27 20:49:37 TV-HD-DE Familie.Fox.Die.Geheimnishueter.S01E12.GERMAN.720p.WEB.H264-RWP
2022-03-27 20:50:00 MP3 Robert_Fripp-Music_For_Quiet_Moments_10_Pastorale_(Boston_6_Nov_2007)-SINGLE-WEB-2020-ENRiCH
2022-03-27 20:50:16 MP3 Robert_Fripp-Music_For_Quiet_Moments_11_Skyscape_(Chicago_12_Oct_2005)-SINGLE-WEB-2020-ENRiCH
2022-03-27 20:50:32 MP3 Robert_Fripp-Music_For_Quiet_Moments_12_Seascape_(Chicago_12_Oct_2005)-SINGLE-WEB-2020-ENRiCH
2022-03-27 20:50:36 TV-HD-DE Familie.Fox.Die.Geheimnishueter.S01E13.GERMAN.720p.WEB.H264-RWP
2022-03-27 20:50:49 MP3 Robert_Fripp-Music_For_Quiet_Moments_13_Horizon_(Carrboro_21_Feb_2006)-SINGLE-WEB-2020-ENRiCH
2022-03-27 20:51:05 MP3 Robert_Fripp-Music_For_Quiet_Moments_14_Time_Procession_(Carrboro_21_Feb_2006)-SINGLE-WEB-2020-ENRiCH
2022-03-27 20:51:22 MP3 Robert_Fripp-Music_For_Quiet_Moments_15_Affirmation_(Atlanta_25_Feb_2006)-SINGLE-WEB-2020-ENRiCH
2022-03-27 20:51:32 TV-HD-DE Familie.Fox.Die.Geheimnishueter.S01E14.GERMAN.720p.WEB.H264-RWP
2022-03-27 20:51:38 MP3 Robert_Fripp-Music_For_Quiet_Moments_16_Aspiration_(Atlanta_25_Feb_2006)-SINGLE-WEB-2020-ENRiCH
2022-03-27 20:51:55 MP3 Robert_Fripp-Music_For_Quiet_Moments_17_Elegy_(Rome_20_Jun_2006)-SINGLE-WEB-2020-ENRiCH
2022-03-27 20:52:12 MP3 Robert_Fripp-Music_For_Quiet_Moments_18_End_Of_Time_(Barcelona_25_Jul_2009)-SINGLE-WEB-2020-ENRiCH
2022-03-27 20:52:26 TV-HD-DE Familie.Fox.Die.Geheimnishueter.S01E15.GERMAN.720p.WEB.H264-RWP
2022-03-27 20:52:28 MP3 Robert_Fripp-Music_For_Quiet_Moments_19_Evensong_(Barcelona_29_Jul_2009)-SINGLE-WEB-2020-ENRiCH
2022-03-27 20:52:45 MP3 Robert_Fripp-Music_For_Quiet_Moments_1_Pastorale_(Mendoza_3rd_Jun_2007)-SINGLE-WEB-2020-ENRiCH
2022-03-27 20:52:49 MP3 Tim_Schuldt_-_Retrospecter-2022-gEm
2022-03-27 20:53:03 MP3 Robert_Fripp-Music_For_Quiet_Moments_20_Pastorale_(Madison_10_Nov_2007)-SINGLE-WEB-2020-ENRiCH
2022-03-27 20:53:19 MP3 Robert_Fripp-Music_For_Quiet_Moments_21_Paradise_Regained_(Oslo_20_Jun_2004)-SINGLE-WEB-2020-ENRiCH
2022-03-27 20:53:24 TV-HD-DE Familie.Fox.Die.Geheimnishueter.S01E16.GERMAN.720p.WEB.H264-RWP
2022-03-27 20:53:35 MP3 Robert_Fripp-Music_For_Quiet_Moments_22_Elegy_Pt1_(Rome_20_Jun_2006)-SINGLE-WEB-2020-ENRiCH
2022-03-27 20:53:52 MP3 Robert_Fripp-Music_For_Quiet_Moments_23_Elegy_Pt2_(Rome_20_Jun_2006)-SINGLE-WEB-2020-ENRiCH
2022-03-27 20:54:08 MP3 Robert_Fripp-Music_For_Quiet_Moments_24_Elegy_Pt3_(Rome_20_Jun_2006)-SINGLE-WEB-2020-ENRiCH
2022-03-27 20:54:19 TV-HD-DE Familie.Fox.Die.Geheimnishueter.S01E17.GERMAN.720p.WEB.H264-RWP
2022-03-27 20:54:24 MP3 Robert_Fripp-Music_For_Quiet_Moments_25_Paradise_Regained_(Gothenburg_15_Jun_2004)-SINGLE-WEB-2020-ENRiCH
2022-03-27 20:54:41 MP3 Robert_Fripp-Music_For_Quiet_Moments_26_Evensong_(Haapsalu_24_Aug_2006)-SINGLE-WEB-2020-ENRiCH
2022-03-27 20:54:57 MP3 Robert_Fripp-Music_For_Quiet_Moments_27_Pastorale_(Mendoza_2_Jun_2007)-SINGLE-WEB-2020-ENRiCH
2022-03-27 20:55:15 MP3 Robert_Fripp-Music_For_Quiet_Moments_28_Time_Stands_Still_(Udine_24_Jun_2006)-SINGLE-WEB-2020-ENRiCH
2022-03-27 20:55:16 TV-HD-DE Familie.Fox.Die.Geheimnishueter.S01E18.GERMAN.720p.WEB.H264-RWP
2022-03-27 20:55:30 MP3 Robert_Fripp-Music_For_Quiet_Moments_29_A_Full_Heart_(Paris_13_Oct_2009)-SINGLE-WEB-2020-ENRiCH
2022-03-27 20:55:47 MP3 Robert_Fripp-Music_For_Quiet_Moments_2_GentleScape_(Barcelona_24_Jul_2009)-SINGLE-WEB-2020-ENRiCH
2022-03-27 20:56:04 MP3 Robert_Fripp-Music_For_Quiet_Moments_30_Strong_Quiet_I_(Brussels_14_Oct_2009)-SINGLE-WEB-2020-ENRiCH
2022-03-27 20:56:12 TV-HD-DE Familie.Fox.Die.Geheimnishueter.S01E19.GERMAN.720p.WEB.H264-RWP
2022-03-27 20:56:20 MP3 Robert_Fripp-Music_For_Quiet_Moments_31_Strong_Quiet_II_(Brussels_14_Oct_2009)-SINGLE-WEB-2020-ENRiCH
2022-03-27 20:56:37 MP3 Robert_Fripp-Music_For_Quiet_Moments_32_A_Move_Inside_I_(Asheville_28_Feb_2006)-SINGLE-WEB-2020-ENRiCH
2022-03-27 20:56:53 MP3 Robert_Fripp-Music_For_Quiet_Moments_33_A_Move_Inside_II_(Asheville_28_Feb_2006)-SINGLE-WEB-2020-ENRiCH
2022-03-27 20:57:01 MP3 Ultra_Music_Festival_2022_-_Knife_Party_Live_(Miami)-SAT-03-26-2022-TALiON
2022-03-27 20:57:09 TV-HD-DE Familie.Fox.Die.Geheimnishueter.S01E20.GERMAN.720p.WEB.H264-RWP
2022-03-27 20:57:11 MP3 Robert_Fripp-Music_For_Quiet_Moments_34_A_Move_Inside_III_(Asheville_28_Feb_2006)-SINGLE-WEB-2020-ENRiCH
2022-03-27 20:57:25 TV-HD-NORD Mastarkvalet.S04E02.SWEDiSH.720p.WEB.h264-NORUSH
2022-03-27 20:57:27 MP3 Robert_Fripp-Music_For_Quiet_Moments_35_Drifting_Gently_(Chattanooga_27_Feb_2006)-SINGLE-WEB-2020-ENRiCH
2022-03-27 20:57:33 TV-HD-NORD Mastarkvalet.S04E02.SWEDiSH.1080p.WEB.h264-NORUSH
2022-03-27 20:57:46 MP3 Robert_Fripp-Music_For_Quiet_Moments_36_Drifting_Firmly_(Chattanooga_27_Feb_2006)-SINGLE-WEB-2021-ENRiCH
2022-03-27 20:58:04 MP3 Robert_Fripp-Music_For_Quiet_Moments_37_Time_(Amsterdam_12_Oct_2009)-SINGLE-WEB-2021-ENRiCH
2022-03-27 20:58:07 TV-HD-DE Familie.Fox.Die.Geheimnishueter.S01E21.GERMAN.720p.WEB.H264-RWP
2022-03-27 20:58:14 TV-X264 A.Second.Chance.at.Love.2022.1080p.HDTV.x264-OMiCRON
2022-03-27 20:58:20 MP3 Robert_Fripp-Music_For_Quiet_Moments_38_Elegy_Pt._I_(Hannover_15_Oct_2009)-SINGLE-WEB-2021-ENRiCH
2022-03-27 20:58:36 MP3 Robert_Fripp-Music_For_Quiet_Moments_39_Elegy_Pt_II._(Hannover_15_Oct_2009)-SINGLE-WEB-2021-ENRiCH
2022-03-27 20:58:53 MP3 Robert_Fripp-Music_For_Quiet_Moments_3_Time_Stands_Still_(Pershore_2nd_June_2006)-SINGLE-WEB-2020-ENRiCH
2022-03-27 20:59:05 TV-HD-DE Familie.Fox.Die.Geheimnishueter.S01E22.GERMAN.720p.WEB.H264-RWP
2022-03-27 20:59:10 MP3 Robert_Fripp-Music_For_Quiet_Moments_40_Doubt_(Greenville_23_Feb_2006)-SINGLE-WEB-2021-ENRiCH
2022-03-27 20:59:24 TV-X264 A.Second.Chance.at.Love.2022.720p.HDTV.x264-OMiCRON
2022-03-27 20:59:27 MP3 Robert_Fripp-Music_For_Quiet_Moments_41_Consolation_(Milan_29_Jun_2006)-SINGLE-WEB-2021-ENRiCH
2022-03-27 20:59:45 MP3 Robert_Fripp-Music_For_Quiet_Moments_42_Glisten_(La_Spezia_28_Jun_2006)-SINGLE-WEB-2021-ENRiCH
2022-03-27 21:00:00 MP3 Robert_Fripp-Music_For_Quiet_Moments_43_Reflection_(La_Spezia_28_Jun_2006)-SINGLE-WEB-2021-ENRiCH
2022-03-27 21:00:03 TV-HD-DE Familie.Fox.Die.Geheimnishueter.S01E23.GERMAN.720p.WEB.H264-RWP
2022-03-27 21:00:17 TV-SD A.Second.Chance.at.Love.2022.HDTV.x264-OMiCRON
2022-03-27 21:00:17 MP3 Robert_Fripp-Music_For_Quiet_Moments_44_Shimmer_(La_Spezia_28_Jun_2006)-SINGLE-WEB-2021-ENRiCH
2022-03-27 21:00:33 MP3 Robert_Fripp-Music_For_Quiet_Moments_45_Elegy_(Paris_22_Sep_2015)-WEB-2021-ENRiCH
2022-03-27 21:00:50 MP3 Robert_Fripp-Music_For_Quiet_Moments_46_Elegy_(Nashville_1_Mar_2006)-SINGLE-WEB-2021-ENRiCH
2022-03-27 21:01:06 MP3 Robert_Fripp-Music_For_Quiet_Moments_47_Evocation_(Nashville_1_Mar_2006)-SINGLE-WEB-2021-ENRiCH
2022-03-27 21:01:23 MP3 Robert_Fripp-Music_For_Quiet_Moments_48_A_Point_In_Time_(Rome_21_Jun_2006)-SINGLE-WEB-2021-ENRiCH
2022-03-27 21:01:34 TV-HD-DE Familie.Fox.Die.Geheimnishueter.S01E24.GERMAN.720p.WEB.H264-RWP
2022-03-27 21:01:40 MP3 Robert_Fripp-Music_For_Quiet_Moments_49_Time_Calls_(Charlotte_22_Feb_2006)-SINGLE-WEB-2021-ENRiCH
2022-03-27 21:01:49 TV-SD Angie.Lost.Girls.2020.HDTV.x264-OMiCRON
2022-03-27 21:01:56 MP3 Robert_Fripp-Music_For_Quiet_Moments_4_Requiem_(Norwich_16_Jun_2006)-WEB-2020-ENRiCH
2022-03-27 21:02:13 MP3 Robert_Fripp-Music_For_Quiet_Moments_50_Time_Present_(Buenos_Aires_9_Jun_2007)-SINGLE-WEB-2021-ENRiCH
2022-03-27 21:02:29 TV-HD-DE Familie.Fox.Die.Geheimnishueter.S01E25.GERMAN.720p.WEB.H264-RWP
2022-03-27 21:02:30 MP3 Robert_Fripp-Music_For_Quiet_Moments_51_Opening_(Nashville_17_Apr_2004)-SINGLE-WEB-2021-ENRiCH
2022-03-27 21:02:45 MP3 Robert_Fripp-Music_For_Quiet_Moments_52_Time_And_Time_Again_(Mendoza_2_Jun_2007)-SINGLE-WEB-2021-ENRiCH
2022-03-27 21:03:02 MP3 Robert_Fripp-Music_For_Quiet_Moments_5_(Time_Promenade_Date_and_Venue_Unknown)-SINGLE-WEB-2020-ENRiCH
2022-03-27 21:03:19 MP3 Robert_Fripp-Music_For_Quiet_Moments_6_Seascape_(Lichtenvoorde_13_Jun_2004)-SINGLE-WEB-2020-ENRiCH
2022-03-27 21:03:24 TV-HD-DE Familie.Fox.Die.Geheimnishueter.S01E26.GERMAN.720p.WEB.H264-RWP
2022-03-27 21:03:35 MP3 Robert_Fripp-Music_For_Quiet_Moments_7_At_The_End_Of_Time_(Broad_Chalke_14_Jan_2006)-SINGLE-WEB-2020-ENRiCH
2022-03-27 21:03:52 MP3 Robert_Fripp-Music_For_Quiet_Moments_8_Evensong_(Sutton_3_Jun_2006)-SINGLE-WEB-2020-ENRiCH
2022-03-27 21:04:08 MP3 Robert_Fripp-Music_For_Quiet_Moments_9_Promenade_(Newlyn_3_Dec_2005)-SINGLE-WEB-2020-ENRiCH
2022-03-27 21:09:30 TV-X264 Earths.Great.Rivers.II.S01E01.1080p.WEBRip.x264-SKYFiRE
2022-03-27 21:09:32 MP3 Sethrow__Kinn_-_Falling_Down-(DNZF1205)-SINGLE-WEB-2022-MARiBOR
2022-03-27 21:09:33 MP3 Snipes_and_Murf_-_RunAway-(CR230)-WEB-2022-MARiBOR
2022-03-27 21:10:05 TV-X264 Earths.Great.Rivers.II.S01E01.720p.WEBRip.x264-SKYFiRE
2022-03-27 21:10:43 TV-X264 Earths.Great.Rivers.II.S01E02.1080p.WEBRip.x264-SKYFiRE
2022-03-27 21:10:48 TV-HD-DE Familie.Fox.Die.Geheimnishueter.S01E02.GERMAN.1080p.WEB.H264-RWP
2022-03-27 21:11:21 TV-X264 Earths.Great.Rivers.II.S01E02.720p.WEBRip.x264-SKYFiRE
2022-03-27 21:11:47 TV-HD-DE Familie.Fox.Die.Geheimnishueter.S01E03.GERMAN.1080p.WEB.H264-RWP
2022-03-27 21:12:47 TV-HD-DE Familie.Fox.Die.Geheimnishueter.S01E04.GERMAN.1080p.WEB.H264-RWP
2022-03-27 21:13:58 TV-HD-DE Familie.Fox.Die.Geheimnishueter.S01E05.GERMAN.1080p.WEB.H264-RWP
2022-03-27 21:14:59 TV-HD-DE Familie.Fox.Die.Geheimnishueter.S01E06.GERMAN.1080p.WEB.H264-RWP
2022-03-27 21:15:58 TV-HD-DE Familie.Fox.Die.Geheimnishueter.S01E07.GERMAN.1080p.WEB.H264-RWP
2022-03-27 21:16:58 TV-HD-DE Familie.Fox.Die.Geheimnishueter.S01E08.GERMAN.1080p.WEB.H264-RWP
2022-03-27 21:18:01 TV-HD-DE Familie.Fox.Die.Geheimnishueter.S01E09.GERMAN.1080p.WEB.H264-RWP
2022-03-27 21:19:13 TV-HD-DE Familie.Fox.Die.Geheimnishueter.S01E10.GERMAN.1080p.WEB.H264-RWP
2022-03-27 21:19:46 MP3 VA-The_Art_Of_Emceeing_Volume_1.0-WEB-2006-UVU
2022-03-27 21:20:17 TV-HD-DE Familie.Fox.Die.Geheimnishueter.S01E11.GERMAN.1080p.WEB.H264-RWP
2022-03-27 21:21:12 MP3 VA-The_Art_Of_Emceeing_Volume_2.0-WEB-2012-UVU
2022-03-27 21:21:26 TV-HD-DE Familie.Fox.Die.Geheimnishueter.S01E12.GERMAN.1080p.WEB.H264-RWP
2022-03-27 21:22:21 TV-X264 Formula1.2022.Saudi.Arabian.Grand.Prix.720p.WEB.h264-VERUM
2022-03-27 21:25:21 TV-HD Formula1.2022.Saudi.Arabian.Grand.Prix.1080p.WEB.h264-VERUM
2022-03-27 21:27:58 MP3 Groovy_D-Badder_Dan_Dem_EP-WEB-2022-z0ne
2022-03-27 21:34:31 TV-HD-DE Familie.Fox.Die.Geheimnishueter.S01E13.GERMAN.1080p.WEB.H264-RWP
2022-03-27 21:35:30 TV-HD-DE Familie.Fox.Die.Geheimnishueter.S01E14.GERMAN.1080p.WEB.H264-RWP
2022-03-27 21:36:36 TV-HD-DE Familie.Fox.Die.Geheimnishueter.S01E15.GERMAN.1080p.WEB.H264-RWP
2022-03-27 21:37:33 TV-HD-DE Familie.Fox.Die.Geheimnishueter.S01E16.GERMAN.1080p.WEB.H264-RWP
2022-03-27 21:39:15 TV-HD-DE Familie.Fox.Die.Geheimnishueter.S01E17.GERMAN.1080p.WEB.H264-RWP
2022-03-27 21:44:32 TV-HD-DE Familie.Fox.Die.Geheimnishueter.S01E18.GERMAN.1080p.WEB.H264-RWP
2022-03-27 21:45:30 TV-HD-DE Familie.Fox.Die.Geheimnishueter.S01E19.GERMAN.1080p.WEB.H264-RWP
2022-03-27 21:46:40 TV-HD-DE Familie.Fox.Die.Geheimnishueter.S01E20.GERMAN.1080p.WEB.H264-RWP
2022-03-27 21:47:52 TV-HD-DE Familie.Fox.Die.Geheimnishueter.S01E21.GERMAN.1080p.WEB.H264-RWP
2022-03-27 21:48:15 MP3 The_Selecter-Too_Much_Pressure_(Deluxe_Edition)-WEB-2021-VRG
2022-03-27 21:49:05 TV-HD-DE Familie.Fox.Die.Geheimnishueter.S01E22.GERMAN.1080p.WEB.H264-RWP
2022-03-27 21:50:09 TV-HD-DE Familie.Fox.Die.Geheimnishueter.S01E23.GERMAN.1080p.WEB.H264-RWP
2022-03-27 21:51:09 TV-HD-DE Familie.Fox.Die.Geheimnishueter.S01E24.GERMAN.1080p.WEB.H264-RWP
2022-03-27 21:51:10 MP3 Annelie_Annalie_and_X00X-Split_EP-(HTH004)-WEB-2022-KNOWN
2022-03-27 21:52:09 TV-HD-DE Familie.Fox.Die.Geheimnishueter.S01E25.GERMAN.1080p.WEB.H264-RWP
2022-03-27 21:52:52 DVDR The.Sword.and.the.Sorcerer.1982.German.DL.COMPLETE.PAL.DVDR-DVDGRP
2022-03-27 21:53:58 TV-X264 NHL.2022.03.26.Chicago.Blackhawks.vs.Vegas.Golden.Knights.720p.WEB.h264-SPORTSNET
2022-03-27 21:54:35 TV-HD-FR Close.to.Me.S01E01.FRENCH.720p.WEB.H264-FREAMON
2022-03-27 21:55:21 TV-X264 NCIS.S19E05.FRENCH.720p.HDTV.x264-OBSTACLE
2022-03-27 21:55:59 TV-X264 Tatort.E1195.Hubertys.Rache.GERMAN.720p.HDTV.x264-ACED
2022-03-27 21:57:45 MP3 DJ_Jubilee_1997_-_Eternal_Dark_(LOWBATTERY001)-WEB-2022-TR
2022-03-27 21:58:12 TV-HD-DE Familie.Fox.Die.Geheimnishueter.S01E26.GERMAN.1080p.WEB.H264-RWP
2022-03-27 21:58:18 MP3 Erased_Roots_-_On_The_Run_EP_(DBR050)-WEB-2022-TR
2022-03-27 21:58:40 ABOOKS Gabrielle_Bernstein_-_How_To_Clear_Energy_Set_Boundaries_And_Embody_Your_Intuition-AUDiOBOOK-WEB-2021-CRAViNGS_iNT
2022-03-27 21:58:50 MP3 Florian_Meindl_-_Going_Outside_EP_(FLASH291)-WEB-2022-TR
2022-03-27 21:58:55 TV-SD Tatort.E1195.Hubertys.Rache.GERMAN.HDTV.x264-ACED
2022-03-27 21:59:17 MP3 Geistform_-_Antena_(TRM004)-WEB-2022-TR
2022-03-27 21:59:43 MP3 JCow_-_WAR1204_(WAR1204)-WEB-2022-TR
2022-03-27 22:00:13 MP3 Panta_Rex_-_LP1_(NOOLTD41)-WEB-2022-TR
2022-03-27 22:00:23 APPS UDEMY.Introduction.to.Forex.Learn.to.Trade.Forex.by.Yourself.BOOKWARE-iLEARN
2022-03-27 22:00:40 MP3 Space_Dimension_Controller_-_Tiraquon_Recordings_Vol._1_(TQN003D)-WEB-2022-TR
2022-03-27 22:01:08 MP3 VA_-_Dancefloor_Dreamtronics_Volume_Two_(GZFLD007)-WEB-2022-TR
2022-03-27 22:01:48 MP3 VA_-_Grenoble_3_(RONR009)-WEB-2022-TR
2022-03-27 22:02:24 MP3 Yemi_-_Time_Is_Now_White_Vol.13_(Vibrations_EP)_(TINWHITE013)-WEB-2022-TR
2022-03-27 22:15:31 TV-X264 Formula.1.2022.Saudi.Arabian.Grand.Prix.DANiSH.720p.HDTV.x264-RCDiVX
2022-03-27 22:20:26 TV-HD-DE Familie.Fox.Die.Geheimnishueter.S02E02.GERMAN.720p.WEB.H264-RWP
2022-03-27 22:21:17 MP3 Astropilot_ft_Annihilation_Of_Self--Echoes-WEB-2022-BABAS
2022-03-27 22:21:24 TV-HD-DE Familie.Fox.Die.Geheimnishueter.S02E02.GERMAN.1080p.WEB.H264-RWP
2022-03-27 22:21:42 MP3 Pierre_Deutschmann--Slowsh-(10219069)-SINGLE-WEB-2022-BABAS
2022-03-27 22:22:36 TV-SD Formula.1.2022.Saudi.Arabian.Grand.Prix.DANiSH.HDTV.x264-RCDiVX
2022-03-27 22:25:25 TV-HD-DE Familie.Fox.Die.Geheimnishueter.S02E03.GERMAN.720p.WEB.H264-RWP
2022-03-27 22:26:26 TV-HD-DE Familie.Fox.Die.Geheimnishueter.S02E03.GERMAN.1080p.WEB.H264-RWP
2022-03-27 22:28:56 MP3 Martin_Goodwin--Hearth-(SS25)-WEB-2017-BABAS_INT
2022-03-27 22:29:30 APPS UDEMY.Make.Money.From.Home.As.a.Transcriptionist.10.Opportunities.BOOKWARE-iLEARN
2022-03-27 22:29:46 TV-X264 Dancing.With.The.Stars.AU.S19E06.1080p.HDTV.H264-CBFM
2022-03-27 22:31:49 X265 House.Of.Gucci.2021.German.DL.TrueHD.DUBBED.2160p.UHD.BluRay.x265-GSG9
2022-03-27 22:32:33 TV-HD-DE Familie.Fox.Die.Geheimnishueter.S02E04.GERMAN.720p.WEB.H264-RWP
2022-03-27 22:33:46 TV-HD-DE Familie.Fox.Die.Geheimnishueter.S02E04.GERMAN.1080p.WEB.H264-RWP
2022-03-27 22:34:44 TV-HD-DE Familie.Fox.Die.Geheimnishueter.S02E05.GERMAN.720p.WEB.H264-RWP
2022-03-27 22:34:44 TV-HD Talon.im.Kampf.gegen.das.Imperium.1982.German.DL.AC3D.1080p.BluRay.x264-GSG9
2022-03-27 22:35:49 X265 Talon.im.Kampf.gegen.das.Imperium.1982.German.DL.AC3D.2160p.UHD.BluRay.x265-GSG9
2022-03-27 22:36:51 TV-HD-DE Familie.Fox.Die.Geheimnishueter.S02E05.GERMAN.1080p.WEB.H264-RWP
2022-03-27 22:36:56 TV-X264 Talon.im.Kampf.gegen.das.Imperium.1982.German.DL.AC3D.720p.BluRay.x264-GSG9
2022-03-27 22:38:07 X264-SD-DE Talon.im.Kampf.gegen.das.Imperium.1982.REMASTERED.German.AC3D.BDRip.x264-GSG9
2022-03-27 22:38:25 TV-HD-DE Familie.Fox.Die.Geheimnishueter.S02E06.GERMAN.720p.WEB.H264-RWP
2022-03-27 22:39:50 TV-HD-DE Familie.Fox.Die.Geheimnishueter.S02E06.GERMAN.1080p.WEB.H264-RWP
2022-03-27 22:41:04 TV-HD-DE Familie.Fox.Die.Geheimnishueter.S02E07.GERMAN.720p.WEB.H264-RWP
2022-03-27 22:41:59 MP3 Kossov_x_Leandro--Against_Apathy-(KON002)-WEB-2017-BABAS
2022-03-27 22:42:06 MP3 Kossov_x_Leandro--Against_Apathy_(Remixes)-(KON007)-WEB-2018-BABAS
2022-03-27 22:42:31 MP3 Sod_Sogima_x_Radek_K--Ardour_Strach-(PGZFLUKE026)-WEB-2020-BABAS
2022-03-27 22:42:37 TV-HD-DE Familie.Fox.Die.Geheimnishueter.S02E07.GERMAN.1080p.WEB.H264-RWP
2022-03-27 22:42:45 FLAC Run_The_Jewels-Run_The_Jewels-Reissue_Deluxe_Edition-2LP-FLAC-2014-THEVOiD
2022-03-27 22:42:58 MP3 VA-Contrasts-(KON001)-WEB-2017-BABAS
2022-03-27 22:43:23 MP3 Vanta--Baryogenesis-(DFM014)-WEB-2022-BABAS
2022-03-27 22:43:49 MP3 VA-The_Sound_Of_Progrezo_Records-T_H_E_O_K_2-(PGZCO037THEOK1)-WEB-2020-BABAS
2022-03-27 22:44:00 TV-HD-DE Familie.Fox.Die.Geheimnishueter.S02E08.GERMAN.720p.WEB.H264-RWP
2022-03-27 22:44:08 MP3 Dawn_Of_Ashes-Scars_Of_The_Broken-CD-2022-FWYH
2022-03-27 22:44:16 MP3 VA-The_Sound_Of_Progrezo_Records-T_H_E_O_K_2-(PGZCO037THEOK2)-WEB-2020-BABAS
2022-03-27 22:44:37 TV-HD-NORD Formula1.2022.Saudiarabiens.Grand.Prix.SWEDiSH.720p.WEB.H264-ALLURE
2022-03-27 22:44:40 MP3 VA-Spotlight_Vol.2-2CD-2022-FWYH
2022-03-27 22:45:42 TV-HD-DE Familie.Fox.Die.Geheimnishueter.S02E08.GERMAN.1080p.WEB.H264-RWP
2022-03-27 22:45:47 TV-HD-FR Close.to.Me.S01E02.FRENCH.720p.WEB.H264-FREAMON
2022-03-27 22:46:29 TV-SD-FR Close.to.Me.S01E02.FRENCH.WEB.H264-FREAMON
2022-03-27 22:46:41 TV-X264 ZERV.S01E02.German.1080p.BluRay.x264-iNTENTiON
2022-03-27 22:46:46 APPS UDEMY.Remote.Teaching.Online.How.To.Record.Lectures.at.Home.BOOKWARE-iLEARN
2022-03-27 22:47:04 TV-X264 ZERV.S01E02.German.720p.BluRay.x264-iNTENTiON
2022-03-27 22:47:26 TV-SD-DE ZERV.S01E02.German.BDRip.x264-iNTENTiON
2022-03-27 22:47:30 MP3 VA-ERA001_VA-(ERA001)-WEB-2021-BABAS
2022-03-27 22:47:39 TV-HD-DE Familie.Fox.Die.Geheimnishueter.S02E09.GERMAN.720p.WEB.H264-RWP
2022-03-27 22:47:47 TV-X264 ZERV.S01E03.German.1080p.BluRay.x264-iNTENTiON
2022-03-27 22:47:57 MP3 VA-ERA002_VA-(ERA002)-WEB-2021-BABAS
2022-03-27 22:48:10 TV-X264 ZERV.S01E03.German.720p.BluRay.x264-iNTENTiON
2022-03-27 22:48:38 TV-SD-DE ZERV.S01E03.German.BDRip.x264-iNTENTiON
2022-03-27 22:48:48 TV-X264 Married.At.First.Sight.AU.S09E33.1080p.HDTV.H264-CBFM
2022-03-27 22:48:55 TV-X264 ZERV.S01E04.German.1080p.BluRay.x264-iNTENTiON
2022-03-27 22:49:15 TV-X264 ZERV.S01E04.German.720p.BluRay.x264-iNTENTiON
2022-03-27 22:49:25 TV-HD-DE Familie.Fox.Die.Geheimnishueter.S02E09.GERMAN.1080p.WEB.H264-RWP
2022-03-27 22:49:38 TV-SD-DE ZERV.S01E04.German.BDRip.x264-iNTENTiON
2022-03-27 22:49:56 TV-X264 ZERV.S01E05.German.1080p.BluRay.x264-iNTENTiON
2022-03-27 22:50:20 TV-X264 ZERV.S01E05.German.720p.BluRay.x264-iNTENTiON
2022-03-27 22:50:43 TV-SD-DE ZERV.S01E05.German.BDRip.x264-iNTENTiON
2022-03-27 22:51:03 TV-X264 ZERV.S01E06.German.1080p.BluRay.x264-iNTENTiON
2022-03-27 22:51:06 TV-HD-DE Familie.Fox.Die.Geheimnishueter.S02E10.GERMAN.720p.WEB.H264-RWP
2022-03-27 22:51:23 TV-X264 ZERV.S01E06.German.720p.BluRay.x264-iNTENTiON
2022-03-27 22:51:48 TV-SD-DE ZERV.S01E06.German.BDRip.x264-iNTENTiON
2022-03-27 22:52:46 TV-HD-FR Akebi-chan.no.Sailor.Fuku.E12.FiNAL.SUBFRENCH.1080p.WEB.X264-SLEEPINGFOREST
2022-03-27 22:52:57 TV-HD-DE Familie.Fox.Die.Geheimnishueter.S02E10.GERMAN.1080p.WEB.H264-RWP
2022-03-27 22:53:11 TV-HD-FR Kaijin.Kaihatsubu.no.Kuroitsu-san.E11.SUBFRENCH.1080p.WEB.X264-SLEEPINGFOREST
2022-03-27 22:53:48 TV-HD-FR Ryman.s.Club.E09.SUBFRENCH.1080p.WEB.X264-SLEEPINGFOREST
2022-03-27 22:54:14 TV-HD-DE Familie.Fox.Die.Geheimnishueter.S02E11.GERMAN.720p.WEB.H264-RWP
2022-03-27 22:54:19 TV-HD-FR Sabiiro.no.Armor.E12.FiNAL.SUBFRENCH.1080p.WEB.X264-SLEEPINGFOREST
2022-03-27 22:54:48 TV-HD-FR Shenmue.the.Animation.E08.SUBFRENCH.1080p.WEB.X264-SLEEPINGFOREST
2022-03-27 22:55:46 TV-HD-DE Familie.Fox.Die.Geheimnishueter.S02E11.GERMAN.1080p.WEB.H264-RWP
2022-03-27 22:56:07 TV-HD-FR Shikkakumon.no.Saikyou.Kenja.E12.FiNAL.SUBFRENCH.1080p.WEB.X264-SLEEPINGFOREST
2022-03-27 22:56:58 TV-HD-DE Familie.Fox.Die.Geheimnishueter.S02E12.GERMAN.720p.WEB.H264-RWP
2022-03-27 22:57:11 TV-HD-FR Sono.Bisque.Doll.wa.Koi.wo.Suru.E12.FiNAL.SUBFRENCH.1080p.WEB.X264-SLEEPINGFOREST
2022-03-27 22:57:42 TV-HD-FR Yamishibai.Japanese.Ghost.Stories.Tenth.Season.E12.SUBFRENCH.1080p.WEB.X264-SLEEPINGFOREST
2022-03-27 22:57:59 TV-X264 Survivor.AU.S09E21.1080p.HDTV.H264-CBFM
2022-03-27 22:58:25 TV-HD-DE Familie.Fox.Die.Geheimnishueter.S02E12.GERMAN.1080p.WEB.H264-RWP
2022-03-27 22:59:47 TV-X264 Peaky.Blinders.S06E05.720p.HDTV.x264-ORGANiC
2022-03-27 22:59:51 TV-HD-DE Familie.Fox.Die.Geheimnishueter.S02E13.GERMAN.720p.WEB.H264-RWP
2022-03-27 23:00:08 MP3 VA-Flashbacks_Vol_3-(AR067)-WEB-2022-BABAS
2022-03-27 23:00:22 MP3 VA-Stamina_Records_Sixty_Five_The_Remix_EP-(STM065)-WEB-2022-OMA
2022-03-27 23:01:03 TV-X264 Peaky.Blinders.S06E05.1080p.HDTV.H264-ORGANiC
2022-03-27 23:01:17 TV-HD-DE Familie.Fox.Die.Geheimnishueter.S02E13.GERMAN.1080p.WEB.H264-RWP
2022-03-27 23:02:24 TV-HD-DE Familie.Fox.Die.Geheimnishueter.S02E14.GERMAN.720p.WEB.H264-RWP
2022-03-27 23:03:30 TV-HD-DE Familie.Fox.Die.Geheimnishueter.S02E14.GERMAN.1080p.WEB.H264-RWP
2022-03-27 23:04:28 TV-HD-DE Familie.Fox.Die.Geheimnishueter.S02E15.GERMAN.720p.WEB.H264-RWP
2022-03-27 23:05:30 MP3 Cohen-Happy.wav-(WEB)-2022-RUMBLE
2022-03-27 23:06:12 TV-HD-DE Familie.Fox.Die.Geheimnishueter.S02E15.GERMAN.1080p.WEB.H264-RWP
2022-03-27 23:06:13 MP3 Earth_Caller-There_Are_Things_Worse_Than_Death-(WEB)-2021-RUMBLE
2022-03-27 23:06:58 MP3 Skip_The_Use-Human_Disorder-(WEB)-2022-RUMBLE
2022-03-27 23:07:22 TV-HD-DE Familie.Fox.Die.Geheimnishueter.S02E16.GERMAN.720p.WEB.H264-RWP
2022-03-27 23:08:30 X265 First.Cow.2019.2160p.WEB.H265-SLOT
2022-03-27 23:08:39 TV-HD-DE Familie.Fox.Die.Geheimnishueter.S02E16.GERMAN.1080p.WEB.H264-RWP
2022-03-27 23:09:48 X265 American.Sniper.2014.2160p.WEB.H265-SLOT
2022-03-27 23:09:49 TV-HD-DE Familie.Fox.Die.Geheimnishueter.S02E17.GERMAN.720p.WEB.H264-RWP
2022-03-27 23:10:34 X264-HD Violet.Evergarden.The.Movie.2020.2160p.UHD.BluRay.x265-SURCODE
2022-03-27 23:11:04 TV-HD-DE Familie.Fox.Die.Geheimnishueter.S02E17.GERMAN.1080p.WEB.H264-RWP
2022-03-27 23:11:29 X265 First.Cow.2019.DV.2160p.WEB.H265-SLOT
2022-03-27 23:12:17 TV-HD-DE Familie.Fox.Die.Geheimnishueter.S02E18.GERMAN.720p.WEB.H264-RWP
2022-03-27 23:13:02 X265 American.Sniper.2014.DV.2160p.WEB.H265-SLOT
2022-03-27 23:13:30 TV-HD-DE Familie.Fox.Die.Geheimnishueter.S02E18.GERMAN.1080p.WEB.H264-RWP
2022-03-27 23:14:44 TV-HD-DE Familie.Fox.Die.Geheimnishueter.S02E19.GERMAN.720p.WEB.H264-RWP
2022-03-27 23:15:15 X265 First.Cow.2019.HDR.2160p.WEB.H265-SLOT
2022-03-27 23:15:45 TV-HD-DE Familie.Fox.Die.Geheimnishueter.S02E19.GERMAN.1080p.WEB.H264-RWP
2022-03-27 23:16:54 TV-HD-DE Familie.Fox.Die.Geheimnishueter.S02E20.GERMAN.720p.WEB.H264-RWP
2022-03-27 23:17:09 X265 American.Sniper.2014.HDR.2160p.WEB.H265-SLOT
2022-03-27 23:18:08 TV-HD-DE Familie.Fox.Die.Geheimnishueter.S02E20.GERMAN.1080p.WEB.H264-RWP
2022-03-27 23:19:05 X264-HD Harriet.2019.2160p.WEB.H265-SLOT
2022-03-27 23:19:07 TV-HD-DE Familie.Fox.Die.Geheimnishueter.S02E21.GERMAN.720p.WEB.H264-RWP
2022-03-27 23:20:19 TV-HD-DE Familie.Fox.Die.Geheimnishueter.S02E21.GERMAN.1080p.WEB.H264-RWP
2022-03-27 23:20:56 X265 Harriet.2019.HDR.2160p.WEB.H265-SLOT
2022-03-27 23:21:18 TV-HD-DE Familie.Fox.Die.Geheimnishueter.S02E22.GERMAN.720p.WEB.H264-RWP
2022-03-27 23:22:28 TV-HD-DE Familie.Fox.Die.Geheimnishueter.S02E22.GERMAN.1080p.WEB.H264-RWP
2022-03-27 23:23:25 TV-HD-DE Familie.Fox.Die.Geheimnishueter.S02E23.GERMAN.720p.WEB.H264-RWP
2022-03-27 23:29:27 TV-HD-DE Familie.Fox.Die.Geheimnishueter.S02E23.GERMAN.1080p.WEB.H264-RWP
2022-03-27 23:30:22 TV-HD-DE Familie.Fox.Die.Geheimnishueter.S02E24.GERMAN.720p.WEB.H264-RWP
2022-03-27 23:31:26 TV-HD-DE Familie.Fox.Die.Geheimnishueter.S02E24.GERMAN.1080p.WEB.H264-RWP
2022-03-27 23:31:44 TV-X264 Tid.For.Hage.S04E01.NORWEGiAN.720p.HDTV.x264-NORPiLT
2022-03-27 23:32:25 TV-HD-DE Familie.Fox.Die.Geheimnishueter.S02E25.GERMAN.720p.WEB.H264-RWP
2022-03-27 23:33:09 TV-X264 Helt.Perfekt.S12E06.NORWEGiAN.720p.HDTV.x264-NORPiLT
2022-03-27 23:33:41 TV-HD-DE Familie.Fox.Die.Geheimnishueter.S02E25.GERMAN.1080p.WEB.H264-RWP
2022-03-27 23:38:07 TV-HD-DE Familie.Fox.Die.Geheimnishueter.S02E26.GERMAN.720p.WEB.H264-RWP
2022-03-27 23:39:16 TV-HD-DE Familie.Fox.Die.Geheimnishueter.S02E26.GERMAN.1080p.WEB.H264-RWP
2022-03-27 23:41:14 X264-SD-PL Paw.Patrol.The.Movie.2021.POLISH.WEB.H264-FLAME
2022-03-27 23:41:54 X264-HD-PL Paw.Patrol.The.Movie.2021.POLISH.720p.WEB.H264-FLAME
2022-03-27 23:42:21 X264-HD-PL Paw.Patrol.The.Movie.2021.POLISH.1080p.WEB.H264-FLAME
2022-03-27 23:44:07 TV-X264 Vaer.Her.2020.NORWEGiAN.720p.HDTV.x264-SKRiTT
2022-03-27 23:44:21 TV-X264 71.Grader.Nord.Team.S01E13.NORWEGiAN.720p.HDTV.x264-SKRiTT
2022-03-27 23:50:14 MP3 J.A.K.A.M--Counterpoint_RMX_EP_2-(HOLEEP006)-WEB-2022-BABAS
2022-03-27 23:50:39 MP3 Misleading_Structures--Plethora-(ARCHIVES81)-WEB-2022-BABAS
2022-03-27 23:51:04 MP3 Ross_Kiser--Sudden_Movements_EP-(PBOX004)-WEB-2021-BABAS
2022-03-27 23:55:29 MP3 Vagantpoesi--Auditory_Free_Verse_Rendition-(FAM064)-WEB-2022-BABAS
2022-03-27 23:56:55 MP3 VA-Sounds_From_The_Iranian_Ultraverse-(SHAY004D)-WEB-2022-BABAS
2022-03-27 23:58:57 DVDR Bartok.The.Magnificent.1999.DVDRip.x264.BGAudio-Zamunda
2022-03-27 23:59:29 X264 Death.on.the.Nile.2022.1080p.BluRay.DTS-HD.MA.7.1.x264-EVO